[[{"header":{"parameterUnit":"m.s-1","parameterCategory":1,"la1":31.0,"la2":29.5877,"lo1":-88.7671,"lo2":-86.6584,"dy":0.0162,"dx":0.0185,"nx":115,"ny":88,"refTime":"2023-06-17T06:00:00:Z","depth":0,"parameterNumber":2,"parameterNumberName":"U-component_of_WINDS"},"data":[0.0,0.0,0.0,0.0,0.0,0.0,0.0,0.0,0.0,0.0,0.0,0.0,0.0,0.0,0.0,0.0,0.0,0.0,0.0,0.0,0.0,0.0,0.0,0.0,0.0,0.0,0.0,0.0,0.0,0.0,0.0,0.0,0.0,0.0,0.0,0.0,0.0,0.0,0.0,0.0,0.0,0.0,0.0,0.0,0.0,0.0,0.0,0.0,0.0,0.0,0.0,0.0,0.0,0.0,0.0,0.0,0.0,0.0,0.0,0.0,0.0,0.0,0.0,0.0,0.0,0.0,0.0,0.0,0.0,0.0,0.0,0.0,0.0,0.0,0.0,0.0,0.0,0.0,0.0,0.0,0.0,0.0,0.0,0.0,0.0,0.0,0.0,0.0,0.0,0.0,0.0,0.0,0.0,0.0,0.0,0.0,0.0,0.0,0.0,0.0,0.0,0.0,0.0,0.0,0.0,0.0,0.0,0.0,0.0,0.0,0.0,0.0,0.0,0.0,0.0,0.0,0.0,0.0,0.0,0.0,0.0,0.0,0.0,0.0,0.0,0.0,0.0,0.0,0.0,0.0,0.0,0.0,0.0,0.0,0.0,0.0,0.0,0.0,0.0,0.0,0.0,0.0,0.0,0.0,0.0,0.0,0.0,0.0,0.0,0.0,0.0,0.0,0.0,0.0,0.0,0.0,0.0,0.0,0.0,0.0,0.0,0.0,0.0,0.0,0.0,0.0,0.0,0.0,0.0,0.0,0.0,0.0,0.0,0.0,0.0,0.0,0.0,0.0,0.0,0.0,0.0,0.0,0.0,0.0,0.0,0.0,0.0,0.0,0.0,0.0,0.0,0.0,0.0,0.0,0.0,0.0,0.0,0.0,0.0,0.0,0.0,0.0,0.0,0.0,0.0,0.0,0.0,0.0,0.0,0.0,0.0,0.0,0.0,0.0,0.0,0.0,0.0,0.0,0.0,0.0,0.0,0.0,0.0,0.0,0.0,0.0,0.0,0.0,0.0,0.0,0.0,0.0,0.0,0.0,0.0,0.0,0.0,0.0,0.0,0.0,0.0,0.0,0.0,0.0,0.0,0.0,0.0,0.0,0.0,0.0,0.0,0.0,0.0,0.0,0.0,0.0,0.0,0.0,0.0,0.0,0.0,0.0,0.0,0.0,0.0,0.0,0.0,0.0,0.0,0.0,0.0,0.0,0.0,0.0,0.0,0.0,0.0,0.0,0.0,0.0,0.0,0.0,0.0,0.0,0.0,0.0,0.0,0.0,0.0,0.0,0.0,0.0,0.0,0.0,0.0,0.0,0.0,0.0,0.0,0.0,0.0,0.0,0.0,0.0,0.0,0.0,0.0,0.0,0.0,0.0,0.0,0.0,0.0,0.0,0.0,0.0,0.0,0.0,0.0,0.0,0.0,0.0,0.0,0.0,0.0,0.0,0.0,0.0,0.0,0.0,0.0,0.0,0.0,0.0,0.0,0.0,0.0,0.0,0.0,0.0,0.0,0.0,0.0,0.0,0.0,0.0,0.0,0.0,0.0,0.0,0.0,0.0,0.0,0.0,0.0,0.0,0.0,0.0,0.0,0.0,0.0,0.0,0.0,0.0,0.0,0.0,0.0,0.0,0.0,0.0,0.0,0.0,0.0,0.0,0.0,0.0,0.0,0.0,0.0,0.0,0.0,0.0,0.0,0.0,0.0,0.0,0.0,0.0,0.0,0.0,0.0,0.0,0.0,0.0,0.0,0.0,0.0,0.0,0.0,0.0,0.0,0.0,0.0,0.0,0.0,0.0,0.0,0.0,0.0,0.0,0.0,0.0,0.0,0.0,0.0,0.0,0.0,0.0,0.0,0.0,0.0,0.0,0.0,0.0,0.0,0.0,0.0,0.0,0.0,0.0,0.0,0.0,0.0,0.0,0.0,0.0,0.0,0.0,0.0,0.0,0.0,0.0,0.0,0.0,0.0,0.0,0.0,0.0,0.0,0.0,0.0,0.0,0.0,0.0,0.0,0.0,0.0,0.0,0.0,0.0,0.0,0.0,0.0,0.0,0.0,0.0,0.0,0.0,0.0,0.0,0.0,0.0,0.0,0.0,0.0,0.0,0.0,0.0,0.0,0.0,0.0,0.0,0.0,0.0,0.0,0.0,0.0,0.0,0.0,0.0,0.0,0.0,0.0,0.0,0.0,0.0,0.0,0.0,0.0,0.0,0.0,0.0,0.0,0.0,0.0,0.0,0.0,0.0,0.0,0.0,0.0,0.0,0.0,0.0,0.0,0.0,0.0,0.0,0.0,0.0,0.0,0.0,0.0,0.0,0.0,0.0,0.0,0.0,0.0,0.0,0.0,0.0,0.0,0.0,0.0,0.0,0.0,0.0,0.0,0.0,0.0,0.0,0.0,0.0,0.0,0.0,0.0,0.0,0.0,0.0,0.0,0.0,0.0,0.0,0.0,0.0,0.0,0.0,0.0,0.0,0.0,0.0,0.0,0.0,0.0,0.0,0.0,0.0,0.0,0.0,0.0,0.0,0.0,0.0,0.0,0.0,0.0,0.0,0.0,0.0,0.0,0.0,0.0,0.0,0.0,0.0,0.0,0.0,0.0,0.0,0.0,0.0,0.0,0.0,0.0,0.0,0.0,0.0,0.0,0.0,0.0,0.0,0.0,0.0,0.0,0.0,0.0,0.0,0.0,0.0,0.0,0.0,0.0,0.0,0.0,0.0,0.0,0.0,0.0,0.0,0.0,0.0,0.0,0.0,0.0,0.0,0.0,0.0,0.0,0.0,0.0,0.0,0.0,0.0,0.0,0.0,0.0,0.0,0.0,0.0,0.0,0.0,0.0,0.0,0.0,0.0,0.0,0.0,0.0,0.0,0.0,0.0,0.0,0.0,0.0,0.0,0.0,0.0,0.0,0.0,0.0,0.0,0.0,0.0,0.0,0.0,0.0,0.0,0.0,0.0,0.0,0.0,0.0,0.0,0.0,0.0,0.0,0.0,0.0,0.0,0.0,0.0,0.0,0.0,0.0,0.0,0.0,0.0,0.0,0.0,0.0,0.0,0.0,0.0,0.0,0.0,0.0,0.0,0.0,0.0,0.0,0.0,0.0,0.0,0.0,0.0,0.0,0.0,0.0,0.0,0.0,0.0,0.0,0.0,0.0,0.0,0.0,0.0,0.0,0.0,0.0,0.0,0.0,0.0,0.0,0.0,0.0,0.0,0.0,0.0,0.0,0.0,0.0,0.0,0.0,0.0,0.0,0.0,0.0,0.0,0.0,0.0,0.0,0.0,0.0,0.0,0.0,0.0,0.0,0.0,0.0,0.0,0.0,0.0,0.0,0.0,0.0,0.0,0.0,0.0,0.0,0.0,0.0,0.0,0.0,0.0,0.0,0.0,0.0,0.0,0.0,0.0,0.0,0.0,0.0,0.0,0.0,0.0,0.0,0.0,0.0,0.0,0.0,0.0,0.0,0.0,0.0,0.0,0.0,0.0,0.0,0.0,0.0,0.0,0.0,0.0,0.0,0.0,0.0,0.0,0.0,0.0,0.0,0.0,0.0,0.0,0.0,0.0,0.0,0.0,0.0,0.0,0.0,0.0,0.0,0.0,0.0,0.0,0.0,0.0,0.0,0.0,0.0,0.0,0.0,0.0,0.0,0.0,0.0,0.0,0.0,0.0,0.0,0.0,0.0,0.0,0.0,0.0,0.0,0.0,0.0,0.0,0.0,0.0,0.0,0.0,0.0,0.0,0.0,0.0,0.0,0.0,0.0,0.0,0.0,0.0,0.0,0.0,0.0,0.0,0.0,0.0,0.0,0.0,0.0,0.0,0.0,0.0,0.0,0.0,0.0,0.0,0.0,0.0,0.0,0.0,0.0,0.0,0.0,0.0,0.0,0.0,0.0,0.0,0.0,0.0,0.0,0.0,0.0,0.0,0.0,0.0,0.0,0.0,0.0,0.0,0.0,0.0,0.0,0.0,0.0,0.0,0.0,0.0,0.0,0.0,0.0,0.0,0.0,0.0,0.0,0.0,0.0,0.0,0.0,0.0,0.0,0.0,0.0,0.0,0.0,0.0,0.0,0.0,0.0,0.0,0.0,0.0,0.0,0.0,0.0,0.0,0.0,0.0,0.0,0.0,0.0,0.0,0.0,0.0,0.0,0.0,0.0,0.0,0.0,0.0,0.0,0.0,0.0,0.0,0.0,0.0,0.0,0.0,0.0,0.0,0.0,0.0,0.0,0.0,0.0,0.0,0.0,0.0,0.0,0.0,-2.4464,0.0,0.0,0.0,0.0,0.0,0.0,0.0,0.0,0.0,0.0,0.0,0.0,0.0,0.0,0.0,0.0,0.0,0.0,0.0,0.0,0.0,0.0,0.0,0.0,0.0,0.0,0.0,0.0,0.0,0.0,0.0,0.0,0.0,0.0,0.0,0.0,0.0,0.0,0.0,0.0,0.0,0.0,0.0,0.0,0.0,0.0,0.0,0.0,0.0,0.0,0.0,0.0,0.0,0.0,0.0,0.0,0.0,0.0,0.0,0.0,0.0,0.0,0.0,0.0,0.0,0.0,0.0,0.0,0.0,0.0,0.0,0.0,0.0,0.0,0.0,0.0,0.0,0.0,0.0,0.0,0.0,0.0,0.0,0.0,0.0,0.0,0.0,0.0,0.0,0.0,0.0,0.0,0.0,0.0,0.0,0.0,0.0,0.0,0.0,0.0,0.0,0.0,0.0,0.0,0.0,0.0,0.0,0.0,0.0,0.0,-2.2353,-2.2882,-2.3144,-2.3493,-2.3927,0.0,0.0,0.0,0.0,0.0,0.0,0.0,0.0,0.0,0.0,0.0,0.0,0.0,0.0,0.0,0.0,0.0,0.0,0.0,0.0,0.0,0.0,0.0,0.0,0.0,0.0,0.0,0.0,0.0,0.0,0.0,0.0,0.0,0.0,0.0,0.0,0.0,0.0,0.0,0.0,0.0,0.0,0.0,0.0,0.0,0.0,0.0,0.0,0.0,0.0,0.0,0.0,0.0,0.0,0.0,0.0,0.0,0.0,0.0,0.0,0.0,0.0,0.0,0.0,0.0,0.0,0.0,0.0,0.0,0.0,0.0,0.0,0.0,0.0,0.0,0.0,0.0,0.0,0.0,0.0,0.0,0.0,0.0,0.0,0.0,0.0,0.0,0.0,0.0,0.0,0.0,0.0,0.0,0.0,0.0,0.0,0.0,0.0,0.0,0.0,0.0,0.0,0.0,0.0,0.0,0.0,0.0,0.0,0.0,0.0,0.0,0.0,-2.2794,-2.3057,-2.3406,0.0,0.0,0.0,0.0,0.0,0.0,0.0,0.0,0.0,0.0,0.0,0.0,0.0,0.0,0.0,0.0,0.0,0.0,0.0,0.0,0.0,0.0,0.0,0.0,0.0,0.0,0.0,0.0,0.0,0.0,0.0,0.0,0.0,0.0,0.0,0.0,0.0,0.0,0.0,0.0,0.0,0.0,0.0,0.0,0.0,0.0,0.0,0.0,0.0,0.0,0.0,0.0,0.0,0.0,0.0,0.0,0.0,0.0,0.0,0.0,0.0,0.0,0.0,0.0,0.0,0.0,0.0,0.0,0.0,0.0,0.0,0.0,0.0,0.0,0.0,0.0,0.0,0.0,0.0,0.0,0.0,0.0,0.0,0.0,0.0,0.0,0.0,0.0,0.0,0.0,0.0,0.0,0.0,0.0,0.0,0.0,0.0,0.0,0.0,0.0,0.0,0.0,0.0,0.0,0.0,0.0,0.0,0.0,0.0,0.0,-2.175,-2.182,-2.2264,0.0,-2.3144,0.0,0.0,0.0,0.0,0.0,0.0,0.0,0.0,0.0,0.0,0.0,0.0,0.0,0.0,0.0,0.0,0.0,0.0,0.0,0.0,0.0,0.0,0.0,0.0,0.0,0.0,0.0,0.0,0.0,0.0,0.0,0.0,0.0,0.0,0.0,0.0,0.0,0.0,0.0,0.0,0.0,0.0,0.0,0.0,0.0,0.0,0.0,0.0,0.0,0.0,0.0,0.0,0.0,0.0,0.0,0.0,0.0,0.0,0.0,0.0,0.0,0.0,0.0,0.0,0.0,0.0,0.0,0.0,0.0,0.0,0.0,0.0,0.0,0.0,0.0,0.0,0.0,0.0,0.0,0.0,0.0,0.0,0.0,0.0,0.0,0.0,0.0,0.0,0.0,0.0,0.0,0.0,0.0,0.0,0.0,0.0,0.0,0.0,0.0,0.0,0.0,0.0,0.0,0.0,0.0,0.0,0.0,0.0,0.0,0.0,-2.1105,-2.1482,-2.2017,-2.2441,0.0,0.0,0.0,0.0,0.0,0.0,0.0,0.0,0.0,0.0,0.0,0.0,0.0,0.0,0.0,0.0,0.0,0.0,0.0,0.0,0.0,0.0,0.0,0.0,0.0,0.0,0.0,0.0,0.0,0.0,0.0,0.0,0.0,0.0,0.0,0.0,0.0,0.0,0.0,0.0,0.0,0.0,0.0,0.0,0.0,0.0,0.0,0.0,0.0,0.0,0.0,0.0,0.0,0.0,0.0,0.0,0.0,0.0,0.0,0.0,0.0,0.0,0.0,0.0,0.0,0.0,0.0,0.0,0.0,0.0,0.0,0.0,0.0,0.0,0.0,0.0,0.0,0.0,0.0,0.0,0.0,0.0,0.0,0.0,0.0,0.0,0.0,0.0,0.0,0.0,0.0,0.0,0.0,0.0,0.0,0.0,0.0,0.0,0.0,0.0,0.0,0.0,0.0,0.0,0.0,0.0,0.0,0.0,0.0,0.0,-2.0201,-2.0654,-2.1302,-2.1731,-2.2176,-2.246,0.0,0.0,0.0,0.0,0.0,0.0,0.0,0.0,0.0,0.0,0.0,0.0,0.0,0.0,0.0,0.0,0.0,0.0,0.0,0.0,0.0,0.0,0.0,0.0,0.0,0.0,0.0,0.0,0.0,0.0,0.0,0.0,0.0,0.0,0.0,0.0,0.0,0.0,0.0,0.0,0.0,0.0,0.0,0.0,0.0,0.0,0.0,0.0,0.0,0.0,0.0,0.0,0.0,0.0,0.0,0.0,0.0,0.0,0.0,0.0,0.0,0.0,0.0,0.0,0.0,0.0,0.0,0.0,0.0,0.0,0.0,0.0,0.0,0.0,0.0,0.0,0.0,0.0,0.0,0.0,0.0,0.0,0.0,0.0,0.0,0.0,0.0,0.0,0.0,0.0,0.0,0.0,0.0,0.0,0.0,0.0,0.0,0.0,0.0,0.0,0.0,0.0,0.0,0.0,0.0,0.0,0.0,0.0,-1.9288,-1.9928,-2.0564,-2.0997,-2.1463,-2.1731,0.0,0.0,0.0,0.0,0.0,0.0,0.0,0.0,0.0,0.0,0.0,0.0,0.0,0.0,0.0,0.0,0.0,0.0,0.0,0.0,0.0,0.0,0.0,0.0,0.0,0.0,0.0,0.0,0.0,0.0,0.0,0.0,0.0,0.0,0.0,0.0,0.0,0.0,0.0,0.0,0.0,0.0,0.0,0.0,0.0,0.0,0.0,0.0,0.0,0.0,0.0,0.0,0.0,0.0,0.0,0.0,0.0,0.0,0.0,0.0,0.0,0.0,0.0,0.0,0.0,0.0,0.0,0.0,0.0,0.0,0.0,0.0,0.0,0.0,0.0,0.0,0.0,0.0,0.0,0.0,0.0,0.0,0.0,0.0,0.0,0.0,0.0,0.0,0.0,0.0,0.0,0.0,0.0,0.0,0.0,0.0,0.0,0.0,0.0,0.0,0.0,0.0,0.0,0.0,0.0,0.0,0.0,0.0,0.0,-1.892,-1.9563,-2.011,-2.0564,-2.0744,-2.0925,0.0,0.0,0.0,0.0,0.0,0.0,0.0,0.0,0.0,0.0,0.0,0.0,0.0,0.0,0.0,0.0,0.0,0.0,0.0,0.0,0.0,0.0,0.0,0.0,0.0,0.0,0.0,0.0,0.0,0.0,0.0,0.0,0.0,0.0,0.0,0.0,0.0,0.0,0.0,0.0,0.0,0.0,0.0,0.0,0.0,0.0,0.0,0.0,0.0,0.0,0.0,0.0,0.0,0.0,0.0,0.0,0.0,0.0,0.0,0.0,0.0,0.0,0.0,0.0,0.0,0.0,0.0,0.0,0.0,0.0,0.0,0.0,0.0,0.0,0.0,0.0,0.0,0.0,0.0,0.0,0.0,0.0,0.0,0.0,0.0,0.0,0.0,0.0,0.0,0.0,0.0,0.0,0.0,0.0,0.0,0.0,0.0,0.0,0.0,0.0,0.0,0.0,0.0,0.0,0.0,0.0,0.0,0.0,0.0,-1.8643,0.0,-1.9579,0.0,-2.011,-2.0382,0.0,0.0,0.0,0.0,0.0,0.0,0.0,0.0,0.0,0.0,0.0,0.0,0.0,0.0,0.0,0.0,0.0,0.0,0.0,0.0,0.0,0.0,0.0,0.0,0.0,0.0,0.0,0.0,0.0,0.0,0.0,0.0,0.0,0.0,0.0,0.0,0.0,0.0,0.0,0.0,0.0,0.0,0.0,0.0,0.0,0.0,0.0,0.0,0.0,0.0,0.0,0.0,0.0,0.0,0.0,0.0,0.0,0.0,0.0,0.0,0.0,0.0,0.0,0.0,0.0,0.0,0.0,0.0,0.0,0.0,0.0,0.0,0.0,0.0,0.0,0.0,0.0,0.0,0.0,0.0,0.0,0.0,0.0,0.0,0.0,0.0,0.0,0.0,0.0,0.0,0.0,0.0,0.0,0.0,0.0,0.0,0.0,0.0,0.0,0.0,0.0,0.0,0.0,0.0,0.0,0.0,0.0,0.0,-1.7714,-1.8458,-1.8658,-1.8936,-1.9196,-1.9671,-2.0019,0.0,0.0,0.0,0.0,0.0,0.0,0.0,0.0,0.0,0.0,0.0,0.0,0.0,0.0,0.0,0.0,0.0,0.0,0.0,0.0,0.0,0.0,0.0,0.0,0.0,0.0,0.0,0.0,0.0,0.0,0.0,0.0,0.0,0.0,0.0,0.0,0.0,0.0,0.0,0.0,0.0,0.0,0.0,0.0,0.0,0.0,0.0,0.0,0.0,0.0,0.0,0.0,0.0,0.0,0.0,0.0,0.0,0.0,0.0,0.0,0.0,0.0,0.0,0.0,0.0,0.0,0.0,0.0,0.0,0.0,0.0,0.0,0.0,0.0,0.0,0.0,0.0,0.0,0.0,0.0,0.0,0.0,0.0,0.0,0.0,0.0,0.0,0.0,0.0,0.0,0.0,0.0,0.0,0.0,0.0,0.0,0.0,0.0,0.0,0.0,0.0,0.0,0.0,0.0,0.0,0.0,0.0,0.0,0.0,-1.7621,-1.8127,-1.8519,-1.8751,-1.9252,-1.9532,0.0,0.0,0.0,0.0,0.0,0.0,0.0,0.0,0.0,0.0,0.0,0.0,0.0,0.0,0.0,0.0,0.0,0.0,0.0,0.0,0.0,0.0,0.0,0.0,0.0,0.0,0.0,0.0,0.0,0.0,0.0,0.0,0.0,0.0,0.0,0.0,0.0,0.0,0.0,0.0,0.0,0.0,0.0,0.0,0.0,0.0,0.0,0.0,0.0,0.0,0.0,0.0,0.0,0.0,0.0,0.0,0.0,0.0,0.0,0.0,0.0,0.0,0.0,0.0,0.0,0.0,0.0,0.0,0.0,0.0,0.0,0.0,0.0,0.0,0.0,0.0,0.0,0.0,0.0,0.0,0.0,0.0,0.0,0.0,0.0,0.0,0.0,0.0,0.0,0.0,0.0,0.0,0.0,0.0,0.0,0.0,0.0,0.0,0.0,0.0,0.0,0.0,0.0,0.0,0.0,0.0,0.0,0.0,0.0,-1.7049,-1.7703,-1.8201,-1.8453,-1.8858,-1.9161,-1.9413,0.0,0.0,0.0,0.0,0.0,0.0,0.0,0.0,0.0,0.0,0.0,0.0,0.0,0.0,0.0,0.0,0.0,0.0,0.0,0.0,0.0,0.0,0.0,0.0,0.0,0.0,0.0,0.0,0.0,0.0,0.0,0.0,0.0,0.0,0.0,0.0,0.0,0.0,0.0,0.0,0.0,0.0,0.0,0.0,0.0,0.0,0.0,0.0,0.0,0.0,0.0,0.0,0.0,0.0,0.0,0.0,0.0,0.0,0.0,0.0,0.0,0.0,0.0,0.0,0.0,0.0,0.0,0.0,0.0,0.0,0.0,0.0,0.0,0.0,0.0,0.0,0.0,0.0,0.0,0.0,0.0,0.0,0.0,0.0,0.0,0.0,0.0,0.0,0.0,0.0,0.0,0.0,0.0,0.0,0.0,0.0,0.0,0.0,0.0,0.0,0.0,0.0,0.0,0.0,0.0,0.0,0.0,0.0,-1.6653,-1.7355,-1.7938,-1.8291,-1.8518,-1.8913,0.0,0.0,0.0,0.0,0.0,0.0,0.0,0.0,0.0,0.0,0.0,0.0,0.0,0.0,0.0,0.0,0.0,0.0,0.0,0.0,0.0,0.0,0.0,0.0,0.0,0.0,0.0,0.0,0.0,0.0,0.0,0.0,0.0,0.0,0.0,0.0,0.0,0.0,0.0,0.0,0.0,0.0,0.0,0.0,0.0,0.0,0.0,0.0,0.0,0.0,0.0,0.0,0.0,0.0,0.0,0.0,0.0,0.0,0.0,0.0,0.0,0.0,0.0,0.0,0.0,0.0,0.0,0.0,0.0,0.0,0.0,0.0,0.0,0.0,0.0,0.0,0.0,0.0,0.0,0.0,0.0,0.0,0.0,0.0,0.0,0.0,0.0,0.0,0.0,0.0,0.0,0.0,0.0,0.0,0.0,0.0,0.0,0.0,0.0,0.0,0.0,0.0,0.0,0.0,0.0,0.0,0.0,0.0,0.0,-1.6716,-1.6925,-1.7244,-1.7725,-1.8139,-1.8454,0.0,0.0,0.0,0.0,0.0,0.0,0.0,0.0,0.0,0.0,0.0,0.0,0.0,0.0,0.0,0.0,0.0,0.0,0.0,0.0,0.0,0.0,0.0,0.0,0.0,0.0,0.0,0.0,0.0,0.0,0.0,0.0,0.0,0.0,0.0,0.0,0.0,0.0,0.0,0.0,0.0,0.0,0.0,0.0,0.0,0.0,0.0,0.0,0.0,0.0,0.0,0.0,0.0,0.0,0.0,0.0,0.0,0.0,0.0,0.0,0.0,0.0,0.0,0.0,0.0,0.0,0.0,0.0,0.0,0.0,0.0,0.0,0.0,0.0,0.0,0.0,0.0,0.0,0.0,0.0,0.0,0.0,0.0,0.0,0.0,0.0,0.0,0.0,0.0,0.0,0.0,0.0,0.0,0.0,0.0,0.0,0.0,0.0,0.0,0.0,0.0,0.0,0.0,0.0,0.0,0.0,0.0,0.0,-1.6324,-1.6524,-1.6637,-1.6804,-1.719,-1.775,-1.8189,0.0,0.0,0.0,0.0,0.0,0.0,0.0,0.0,0.0,0.0,0.0,0.0,0.0,0.0,0.0,0.0,0.0,0.0,0.0,0.0,0.0,0.0,0.0,0.0,0.0,0.0,0.0,0.0,0.0,0.0,0.0,0.0,0.0,0.0,0.0,0.0,0.0,0.0,0.0,0.0,0.0,0.0,0.0,0.0,0.0,0.0,0.0,0.0,0.0,0.0,0.0,0.0,0.0,0.0,0.0,0.0,0.0,0.0,0.0,0.0,0.0,0.0,0.0,0.0,0.0,0.0,0.0,0.0,0.0,0.0,0.0,0.0,0.0,0.0,0.0,0.0,0.0,0.0,0.0,0.0,0.0,0.0,0.0,0.0,0.0,0.0,0.0,0.0,0.0,0.0,0.0,0.0,0.0,0.0,0.0,0.0,0.0,0.0,0.0,0.0,0.0,0.0,0.0,0.0,0.0,0.0,0.0,0.0,-1.6077,-1.6316,-1.6537,-1.6767,-1.6719,-1.7318,-1.7925,0.0,0.0,0.0,0.0,0.0,0.0,0.0,0.0,0.0,0.0,0.0,0.0,0.0,0.0,0.0,0.0,0.0,0.0,0.0,0.0,0.0,0.0,0.0,0.0,0.0,0.0,0.0,0.0,0.0,0.0,0.0,0.0,0.0,0.0,0.0,0.0,0.0,0.0,0.0,0.0,0.0,0.0,0.0,0.0,0.0,0.0,0.0,0.0,0.0,0.0,0.0,0.0,0.0,0.0,0.0,0.0,0.0,0.0,0.0,0.0,0.0,0.0,0.0,0.0,0.0,0.0,0.0,0.0,0.0,0.0,0.0,0.0,0.0,0.0,0.0,0.0,0.0,0.0,0.0,0.0,0.0,0.0,0.0,0.0,0.0,0.0,0.0,0.0,0.0,0.0,0.0,0.0,0.0,0.0,0.0,0.0,0.0,0.0,0.0,0.0,0.0,0.0,0.0,0.0,0.0,0.0,0.0,0.0,-1.6525,-1.6636,-1.6697,-1.6808,-1.7066,-1.7399,-1.7716,0.0,0.0,0.0,0.0,0.0,0.0,0.0,0.0,0.0,0.0,0.0,0.0,0.0,0.0,0.0,0.0,0.0,0.0,0.0,0.0,0.0,0.0,0.0,0.0,0.0,0.0,0.0,0.0,0.0,0.0,0.0,0.0,0.0,0.0,0.0,0.0,0.0,0.0,0.0,0.0,0.0,0.0,0.0,0.0,0.0,0.0,0.0,0.0,-4.0588,0.0,0.0,0.0,0.0,0.0,0.0,0.0,0.0,0.0,0.0,0.0,0.0,0.0,0.0,0.0,0.0,0.0,0.0,0.0,0.0,0.0,0.0,0.0,0.0,0.0,0.0,0.0,0.0,0.0,0.0,0.0,0.0,0.0,0.0,0.0,0.0,0.0,0.0,0.0,0.0,0.0,0.0,0.0,0.0,0.0,0.0,0.0,0.0,0.0,0.0,0.0,0.0,0.0,0.0,0.0,0.0,0.0,0.0,0.0,-1.6694,-1.6706,-1.6827,-1.694,-1.693,-1.7353,-1.7644,0.0,0.0,0.0,0.0,0.0,0.0,0.0,0.0,0.0,0.0,0.0,0.0,0.0,0.0,0.0,0.0,0.0,0.0,0.0,0.0,0.0,0.0,0.0,0.0,0.0,0.0,0.0,0.0,0.0,0.0,0.0,0.0,0.0,0.0,0.0,0.0,0.0,0.0,0.0,0.0,0.0,0.0,0.0,0.0,0.0,0.0,0.0,0.0,0.0,0.0,0.0,0.0,0.0,0.0,0.0,0.0,0.0,0.0,0.0,0.0,0.0,0.0,0.0,0.0,0.0,0.0,0.0,0.0,0.0,0.0,0.0,0.0,0.0,0.0,0.0,0.0,0.0,0.0,0.0,0.0,0.0,0.0,0.0,0.0,0.0,0.0,0.0,0.0,0.0,0.0,0.0,0.0,0.0,0.0,0.0,0.0,0.0,0.0,0.0,0.0,0.0,0.0,0.0,0.0,0.0,0.0,0.0,-1.6803,-1.6815,-1.6827,-1.7032,-1.7044,-1.6827,-1.7273,-1.7615,-1.794,0.0,0.0,0.0,0.0,0.0,0.0,0.0,0.0,0.0,0.0,0.0,0.0,0.0,0.0,0.0,0.0,0.0,0.0,0.0,0.0,0.0,0.0,0.0,0.0,0.0,0.0,0.0,0.0,0.0,0.0,0.0,0.0,0.0,0.0,0.0,0.0,0.0,0.0,-3.7727,-3.8339,0.0,0.0,0.0,0.0,0.0,0.0,0.0,0.0,-4.0278,0.0,0.0,0.0,0.0,0.0,0.0,0.0,0.0,0.0,0.0,0.0,0.0,0.0,0.0,0.0,0.0,0.0,0.0,0.0,0.0,0.0,0.0,0.0,0.0,0.0,0.0,0.0,0.0,0.0,0.0,0.0,0.0,0.0,0.0,0.0,0.0,0.0,0.0,0.0,0.0,0.0,0.0,0.0,0.0,0.0,0.0,0.0,0.0,0.0,0.0,0.0,0.0,0.0,0.0,0.0,0.0,-1.702,-1.7249,-1.7358,-1.7358,-1.7394,-1.7394,-1.7358,-1.7511,-1.764,-1.7927,0.0,0.0,0.0,0.0,0.0,0.0,0.0,0.0,0.0,0.0,0.0,0.0,0.0,0.0,0.0,0.0,0.0,0.0,0.0,0.0,0.0,0.0,0.0,0.0,0.0,0.0,0.0,0.0,0.0,0.0,0.0,0.0,0.0,0.0,0.0,0.0,0.0,0.0,0.0,-3.8718,-3.883,0.0,0.0,0.0,0.0,0.0,0.0,0.0,0.0,-4.1165,0.0,0.0,0.0,0.0,0.0,0.0,0.0,0.0,0.0,0.0,0.0,0.0,0.0,0.0,0.0,0.0,0.0,0.0,0.0,0.0,0.0,0.0,0.0,0.0,0.0,0.0,0.0,0.0,0.0,0.0,0.0,0.0,0.0,0.0,0.0,0.0,0.0,0.0,0.0,0.0,0.0,0.0,0.0,0.0,0.0,0.0,0.0,0.0,0.0,0.0,0.0,0.0,0.0,0.0,0.0,-1.7298,-1.7418,-1.7479,-1.7479,-1.7479,-1.7479,-1.7479,-1.7479,-1.7596,0.0,0.0,0.0,0.0,0.0,0.0,0.0,0.0,0.0,0.0,0.0,0.0,0.0,0.0,0.0,0.0,0.0,0.0,0.0,0.0,0.0,0.0,0.0,0.0,0.0,0.0,0.0,0.0,0.0,0.0,0.0,0.0,0.0,0.0,0.0,0.0,0.0,0.0,0.0,0.0,-3.8922,-3.9033,-3.9339,0.0,0.0,0.0,0.0,0.0,0.0,-4.0716,-4.0688,0.0,0.0,0.0,0.0,0.0,0.0,0.0,0.0,0.0,0.0,0.0,0.0,0.0,0.0,0.0,0.0,0.0,0.0,0.0,0.0,0.0,0.0,0.0,0.0,0.0,0.0,0.0,0.0,0.0,0.0,0.0,0.0,0.0,0.0,0.0,0.0,0.0,0.0,0.0,0.0,0.0,0.0,0.0,0.0,0.0,0.0,0.0,0.0,0.0,0.0,0.0,0.0,0.0,0.0,0.0,-1.7563,-1.7612,-1.7648,-1.7648,-1.7648,-1.7648,-1.7648,-1.7648,-1.7648,0.0,0.0,0.0,0.0,0.0,0.0,0.0,0.0,0.0,0.0,0.0,0.0,0.0,0.0,0.0,0.0,0.0,0.0,0.0,0.0,0.0,0.0,0.0,0.0,0.0,0.0,0.0,0.0,0.0,0.0,0.0,0.0,0.0,0.0,0.0,0.0,0.0,0.0,0.0,0.0,0.0,-3.9239,-3.9815,-3.9898,0.0,0.0,0.0,0.0,-4.0178,-4.0267,0.0,0.0,0.0,0.0,0.0,0.0,0.0,0.0,0.0,0.0,0.0,0.0,0.0,0.0,0.0,0.0,0.0,0.0,0.0,0.0,0.0,0.0,0.0,0.0,0.0,0.0,0.0,0.0,0.0,0.0,0.0,0.0,0.0,0.0,0.0,0.0,0.0,0.0,0.0,0.0,0.0,0.0,0.0,0.0,0.0,0.0,0.0,0.0,0.0,0.0,0.0,0.0,0.0,0.0,0.0,0.0,-1.7841,-1.807,-1.8203,-1.8203,-1.8191,-1.8203,-1.8203,-1.8203,-1.8203,0.0,0.0,0.0,0.0,0.0,0.0,0.0,0.0,0.0,0.0,0.0,0.0,0.0,0.0,0.0,0.0,0.0,0.0,0.0,0.0,0.0,0.0,0.0,0.0,0.0,0.0,0.0,0.0,0.0,0.0,0.0,0.0,0.0,0.0,0.0,0.0,0.0,0.0,0.0,0.0,0.0,-3.8889,-3.9425,-3.9505,-3.9784,0.0,0.0,-4.068,-4.0865,-4.105,0.0,0.0,0.0,0.0,0.0,0.0,0.0,0.0,0.0,0.0,0.0,0.0,0.0,0.0,0.0,0.0,0.0,0.0,0.0,0.0,0.0,0.0,0.0,0.0,0.0,0.0,0.0,0.0,0.0,0.0,0.0,0.0,0.0,0.0,0.0,0.0,0.0,0.0,0.0,0.0,0.0,0.0,0.0,0.0,0.0,0.0,0.0,0.0,0.0,0.0,0.0,0.0,0.0,0.0,0.0,-1.8106,-1.8118,-1.8227,-1.83,-1.83,-1.83,-1.83,-1.83,-1.83,-1.83,0.0,0.0,0.0,0.0,0.0,0.0,0.0,0.0,0.0,0.0,0.0,0.0,0.0,0.0,0.0,0.0,0.0,0.0,0.0,0.0,0.0,0.0,0.0,0.0,0.0,0.0,0.0,0.0,0.0,0.0,0.0,0.0,0.0,0.0,0.0,0.0,0.0,0.0,0.0,0.0,0.0,0.0,-3.9386,-3.9465,0.0,0.0,0.0,-4.0307,-4.0522,0.0,0.0,0.0,0.0,0.0,0.0,0.0,0.0,0.0,0.0,0.0,0.0,0.0,0.0,0.0,0.0,0.0,0.0,0.0,0.0,0.0,0.0,0.0,0.0,0.0,0.0,0.0,0.0,0.0,0.0,0.0,0.0,0.0,0.0,0.0,0.0,0.0,0.0,0.0,0.0,0.0,0.0,0.0,0.0,0.0,0.0,0.0,0.0,0.0,0.0,0.0,0.0,0.0,0.0,0.0,0.0,0.0,-1.8396,-1.8456,-1.8493,-1.8493,-1.8493,-1.8493,-1.8493,-1.8493,0.0,0.0,0.0,0.0,0.0,0.0,0.0,0.0,0.0,0.0,0.0,0.0,0.0,0.0,0.0,0.0,0.0,0.0,0.0,0.0,0.0,0.0,0.0,0.0,0.0,0.0,0.0,-3.2487,0.0,0.0,0.0,0.0,0.0,0.0,0.0,0.0,0.0,0.0,0.0,0.0,0.0,0.0,-3.9128,-3.9511,-3.9492,-3.9641,0.0,0.0,-4.0088,-4.0307,-4.0377,-4.0499,0.0,0.0,0.0,0.0,0.0,0.0,0.0,0.0,0.0,0.0,0.0,0.0,0.0,0.0,0.0,0.0,0.0,0.0,0.0,0.0,0.0,0.0,0.0,0.0,0.0,0.0,0.0,0.0,0.0,0.0,0.0,0.0,0.0,0.0,0.0,0.0,0.0,0.0,0.0,0.0,0.0,0.0,0.0,0.0,0.0,0.0,0.0,0.0,0.0,0.0,0.0,0.0,0.0,0.0,0.0,-1.8662,-1.8903,-1.9012,-1.9024,-1.9024,-1.9024,-1.9024,-1.9024,-1.9024,0.0,0.0,0.0,0.0,0.0,0.0,0.0,0.0,0.0,0.0,0.0,0.0,0.0,0.0,0.0,0.0,0.0,0.0,0.0,0.0,0.0,0.0,0.0,0.0,0.0,0.0,0.0,0.0,0.0,0.0,0.0,0.0,0.0,0.0,0.0,0.0,0.0,0.0,0.0,0.0,0.0,-3.8953,-3.9492,-3.9568,-3.9748,0.0,0.0,-4.049,-4.049,-4.0666,-4.0867,-4.0867,0.0,0.0,0.0,0.0,0.0,0.0,0.0,0.0,0.0,0.0,0.0,0.0,0.0,0.0,0.0,0.0,0.0,0.0,0.0,0.0,0.0,0.0,0.0,0.0,0.0,0.0,0.0,0.0,0.0,0.0,0.0,0.0,0.0,0.0,0.0,0.0,0.0,0.0,0.0,0.0,0.0,0.0,0.0,0.0,0.0,0.0,0.0,0.0,0.0,0.0,0.0,0.0,0.0,-1.9,-1.9169,-1.9265,-1.9398,-1.9567,-1.9579,-1.9567,-1.9579,-1.9579,-1.9495,0.0,0.0,0.0,0.0,0.0,0.0,0.0,0.0,0.0,0.0,0.0,0.0,0.0,0.0,0.0,0.0,0.0,0.0,0.0,0.0,0.0,0.0,0.0,0.0,0.0,0.0,0.0,0.0,-3.4006,-3.4852,-3.536,0.0,0.0,0.0,0.0,0.0,0.0,0.0,0.0,0.0,0.0,-3.8642,-3.9066,-3.9141,0.0,0.0,-3.9775,-3.9775,-4.0006,-4.0185,-4.0389,-4.0389,-4.0593,0.0,0.0,0.0,0.0,0.0,0.0,0.0,0.0,0.0,0.0,0.0,0.0,0.0,0.0,0.0,0.0,0.0,0.0,0.0,0.0,0.0,0.0,0.0,0.0,0.0,0.0,0.0,0.0,0.0,0.0,0.0,0.0,0.0,0.0,0.0,0.0,0.0,0.0,0.0,0.0,0.0,0.0,0.0,0.0,0.0,0.0,0.0,0.0,0.0,0.0,0.0,0.0,-1.9268,-1.9591,-1.9591,-1.9688,-1.9881,-1.9881,-1.9881,-1.9881,-1.9881,-1.9796,0.0,0.0,0.0,0.0,0.0,0.0,0.0,0.0,0.0,0.0,0.0,0.0,0.0,0.0,0.0,0.0,0.0,0.0,0.0,0.0,0.0,0.0,0.0,0.0,0.0,0.0,0.0,0.0,-3.4129,-3.4886,-3.5671,0.0,0.0,0.0,0.0,0.0,0.0,0.0,0.0,0.0,0.0,-3.863,-3.8792,-3.8841,-3.8841,-3.9154,-3.9154,-3.9154,-3.9387,-3.9569,-3.9775,-3.9672,0.0,0.0,0.0,0.0,0.0,0.0,0.0,0.0,0.0,0.0,0.0,0.0,0.0,0.0,0.0,0.0,0.0,0.0,0.0,0.0,0.0,0.0,0.0,0.0,0.0,0.0,0.0,0.0,0.0,0.0,0.0,0.0,0.0,0.0,0.0,0.0,0.0,0.0,0.0,0.0,0.0,0.0,0.0,0.0,0.0,0.0,0.0,0.0,0.0,0.0,0.0,0.0,0.0,-1.9444,-1.9881,-1.9881,-1.9893,-1.9893,-1.9893,-1.9905,-1.9905,-1.9893,-1.9893,-1.9869,0.0,0.0,0.0,0.0,0.0,0.0,0.0,0.0,0.0,0.0,0.0,0.0,0.0,0.0,0.0,0.0,0.0,0.0,0.0,0.0,0.0,0.0,0.0,0.0,0.0,0.0,-3.3793,-3.4343,-3.4993,0.0,0.0,0.0,0.0,0.0,0.0,0.0,0.0,0.0,0.0,-3.8816,-3.8736,-3.8736,-3.8736,-3.8736,-3.8736,-3.8841,-3.8841,-3.8841,-3.8841,-3.8841,0.0,0.0,0.0,0.0,0.0,0.0,0.0,0.0,0.0,0.0,0.0,0.0,0.0,0.0,0.0,0.0,0.0,0.0,0.0,0.0,0.0,0.0,0.0,0.0,0.0,0.0,0.0,-1.6655,-1.6923,0.0,0.0,0.0,0.0,0.0,0.0,0.0,0.0,0.0,0.0,0.0,-1.6451,-1.6589,0.0,0.0,0.0,0.0,0.0,0.0,0.0,0.0,0.0,0.0,0.0,0.0,-1.9551,-2.0134,-2.0146,-2.0231,-2.04,-2.0412,-2.0412,-2.0412,-2.04,-2.0327,-2.0158,0.0,0.0,0.0,0.0,0.0,0.0,0.0,0.0,0.0,0.0,0.0,0.0,0.0,0.0,0.0,0.0,0.0,0.0,0.0,0.0,0.0,0.0,0.0,0.0,0.0,-3.3416,0.0,0.0,0.0,0.0,0.0,0.0,0.0,0.0,0.0,0.0,0.0,-3.7464,-3.7631,-3.7679,-3.7655,-3.7655,-3.7655,-3.7655,0.0,0.0,0.0,0.0,0.0,0.0,0.0,0.0,0.0,0.0,0.0,0.0,0.0,0.0,-3.9519,-3.9931,-4.031,-4.033,-3.9861,0.0,0.0,0.0,0.0,0.0,0.0,0.0,0.0,0.0,0.0,0.0,0.0,0.0,0.0,0.0,0.0,-1.6763,0.0,0.0,0.0,0.0,0.0,0.0,0.0,0.0,-1.6131,-1.6197,-1.6056,-1.6187,-1.6386,0.0,-1.6959,-1.7248,0.0,0.0,0.0,0.0,0.0,0.0,0.0,0.0,-1.9816,-2.0407,-2.0641,-2.0774,-2.0943,-2.0955,-2.0955,-2.0955,-2.0859,-2.0678,-2.0424,-2.0158,-2.016,0.0,0.0,0.0,0.0,0.0,0.0,0.0,0.0,0.0,0.0,0.0,0.0,0.0,0.0,0.0,0.0,0.0,0.0,0.0,0.0,0.0,0.0,0.0,-3.3704,0.0,0.0,0.0,0.0,0.0,0.0,0.0,0.0,0.0,-3.7012,-3.712,-3.712,-3.712,-3.712,-3.712,-3.712,0.0,0.0,0.0,0.0,0.0,0.0,0.0,-3.7465,-3.7679,-3.7868,-3.7998,-3.821,-3.821,-3.821,-3.8315,0.0,0.0,-3.9465,-3.9981,-4.0084,-3.9702,-4.0336,-4.0763,-4.0135,-4.0657,-4.1205,0.0,0.0,0.0,0.0,0.0,0.0,0.0,0.0,-1.6566,-1.6696,0.0,-1.6897,0.0,0.0,0.0,0.0,0.0,0.0,0.0,0.0,-1.5606,-1.5624,-1.5615,-1.5615,-1.5762,-1.6204,-1.6646,-1.7223,-1.7935,-1.7959,0.0,0.0,0.0,0.0,0.0,0.0,-2.0083,-2.0509,-2.1174,-2.1474,-2.1462,-2.1474,-2.1474,-2.1462,-2.1209,-2.0955,-2.069,-2.0436,-2.044,-2.0823,-2.0831,0.0,0.0,0.0,0.0,0.0,0.0,0.0,0.0,0.0,0.0,0.0,0.0,0.0,0.0,0.0,0.0,0.0,0.0,0.0,0.0,-3.3544,0.0,0.0,0.0,0.0,0.0,0.0,0.0,0.0,0.0,0.0,-3.7021,-3.7059,-3.712,-3.7036,0.0,0.0,0.0,0.0,-3.7012,-3.7012,-3.712,-3.7036,-3.7036,-3.7036,-3.7036,-3.7143,0.0,0.0,-3.712,-3.712,-3.7251,-3.7489,-3.7785,-3.808,-3.8631,-3.9258,-3.9672,-3.9672,-4.0083,-4.0491,-4.0795,-4.1019,-4.1345,-1.5567,0.0,0.0,0.0,0.0,-1.629,-1.6443,-1.6731,-1.6731,-1.6769,-1.6827,-1.6538,0.0,0.0,0.0,0.0,0.0,0.0,-1.5771,-1.5624,-1.5624,-1.5624,-1.5624,-1.5624,-1.5771,-1.6204,-1.6352,-1.6949,-1.7976,-1.8,-1.8218,-1.8939,0.0,0.0,0.0,0.0,-2.0336,-2.0779,-2.1282,-2.1474,-2.1474,-2.1474,-2.1474,-2.1474,-2.1402,-2.1233,-2.0955,-2.0871,-2.0889,-2.0695,-2.0971,0.0,0.0,0.0,0.0,0.0,0.0,0.0,0.0,0.0,0.0,0.0,0.0,0.0,0.0,0.0,0.0,0.0,0.0,0.0,-3.354,-3.3893,-3.436,0.0,0.0,0.0,0.0,0.0,0.0,0.0,0.0,0.0,-3.7244,-3.6824,-3.6495,0.0,0.0,-3.6472,-3.6472,-3.6472,-3.6495,-3.6472,0.0,0.0,0.0,-3.6495,-3.658,-3.6796,-3.7036,-3.712,-3.712,-3.712,-3.712,-3.7251,-3.7358,-3.7465,-3.7916,-3.8526,-3.905,-3.905,-3.949,-3.9903,-4.0083,-4.0593,-4.1097,-1.5429,-1.5607,-1.5615,-1.5771,-1.5919,-1.591,-1.6066,-1.6361,-1.6361,-1.6361,-1.6361,-1.6066,-1.5919,-1.5919,-1.5851,0.0,0.0,0.0,-1.5552,-1.5402,-1.5402,-1.5402,-1.5402,-1.5552,-1.5852,-1.6151,-1.6292,-1.7048,-1.8239,-1.8239,-1.8684,-1.9413,0.0,0.0,-1.9726,-2.0252,-2.0589,-2.1038,-2.1582,-2.1788,-2.1788,-2.1788,-2.174,-2.1643,-2.1631,-2.151,-2.1233,-2.1221,-2.1242,-2.1114,-2.1496,-2.162,0.0,0.0,0.0,0.0,0.0,0.0,0.0,0.0,0.0,0.0,0.0,-2.7518,0.0,0.0,0.0,0.0,-3.1264,-3.2391,-3.3215,-3.3674,0.0,0.0,0.0,0.0,0.0,0.0,0.0,-3.6649,-3.6879,-3.6994,-3.7109,-3.6703,-3.6541,-3.6874,-3.6874,-3.6874,-3.6874,0.0,-3.6805,-3.6599,-3.6576,-3.6507,-3.63,-3.6254,-3.6386,-3.6472,-3.6712,-3.6796,-3.682,-3.682,-3.682,-3.6928,-3.6928,-3.7036,-3.7489,-3.7998,-3.8445,-3.8631,-3.905,-3.9362,-3.9697,-4.0083,-4.0593,-1.5696,-1.5614,-1.5716,-1.572,-1.572,-1.572,-1.572,-1.5869,-1.5869,-1.5869,-1.5869,-1.572,-1.572,-1.5729,-1.5754,0.0,-1.5387,-1.5557,-1.5317,-1.5009,-1.5009,-1.5009,-1.5163,-1.547,-1.594,-1.6256,-1.6699,-1.7464,-1.8541,-1.8704,-1.915,-1.9898,-1.9478,-1.9387,-1.9792,-2.0445,-2.1001,-2.1296,-2.1977,-2.2259,-2.2259,-2.2271,-2.215,-2.1909,-2.1897,-2.1776,-2.1523,-2.151,-2.1521,-2.1666,-2.2064,-2.223,-2.2402,0.0,0.0,0.0,0.0,0.0,0.0,0.0,0.0,0.0,0.0,0.0,0.0,0.0,0.0,0.0,-3.1247,0.0,-3.2246,-3.3316,0.0,0.0,0.0,-3.5478,-3.5596,-3.5852,-3.6202,-3.6413,0.0,0.0,-3.6876,0.0,-3.7106,-3.7794,-3.7839,-3.7793,-3.7793,-3.7747,-3.7609,-3.715,-3.7081,-3.6897,-3.6461,-3.6323,-3.6254,-3.6254,-3.6254,-3.6277,-3.6386,-3.6386,-3.6386,-3.6603,-3.6688,-3.6796,-3.7382,-3.7596,-3.7679,-3.821,-3.8526,-3.8945,-3.9465,-3.9697,-4.0006,-1.6733,-1.6449,-1.6581,-1.6511,-1.6511,-1.6814,-1.7125,-1.7436,-1.7436,-1.7446,-1.7446,-1.7125,-1.6658,-1.6043,-1.5772,-1.5483,-1.5483,-1.5532,-1.5548,-1.5382,-1.539,-1.554,-1.5855,-1.6013,-1.6477,-1.7105,-1.7576,-1.8192,-1.9138,-1.946,-1.9937,-2.0382,-2.0583,-2.0494,-2.0292,-2.0785,-2.1268,-2.1566,-2.2085,-2.2271,-2.2271,-2.2271,-2.2235,-2.2174,-2.2162,-2.2042,-2.1788,-2.1776,-2.1788,-2.1951,-2.2367,-2.2756,-2.3399,-2.4231,0.0,0.0,0.0,0.0,0.0,0.0,0.0,0.0,0.0,-2.7554,-2.8329,0.0,-2.9397,0.0,-3.1172,-3.2245,-3.3,-3.3375,0.0,0.0,-3.5331,-3.5718,-3.6467,-3.6587,-3.6828,-3.7166,-3.7405,-3.7546,-3.7643,-3.7903,-3.8022,-3.8258,-3.7814,-3.7451,-3.7793,-3.7793,-3.7747,-3.7632,-3.7609,-3.7425,-3.6943,-3.6507,-3.6277,-3.6254,-3.6277,-3.6254,-3.6254,-3.6254,-3.6277,-3.6386,-3.6386,-3.6495,-3.682,-3.7036,-3.7358,-3.7679,-3.821,-3.8631,-3.8945,-3.9387,-3.98,-1.7495,-1.7293,-1.7368,-1.7494,-1.7476,-1.7208,-1.725,-1.7417,-1.7417,-1.7417,-1.7417,-1.725,-1.6933,-1.6466,-1.6148,-1.6148,-1.6148,-1.6148,-1.6148,-1.6148,-1.6148,-1.6148,-1.6466,-1.6616,-1.7092,-1.7715,-1.8188,-1.8828,-1.9614,-1.9938,-2.0252,-2.0878,-2.1023,-2.1201,-2.1391,-2.1429,-2.1744,-2.2305,-2.2488,-2.238,-2.2271,-2.2271,-2.2271,-2.2271,-2.2271,-2.2198,-2.2054,-2.2189,-2.2362,-2.2526,-2.2802,-2.3314,-2.4025,-2.4593,-2.5228,0.0,0.0,0.0,0.0,0.0,0.0,0.0,0.0,0.0,0.0,0.0,-2.9526,-3.0041,-3.0992,-3.191,-3.2676,-3.3165,-3.367,-3.4423,-3.5046,-3.5665,-3.6178,-3.6667,-3.6911,-3.7154,-3.7517,-3.7637,-3.7616,-3.7878,-3.7998,-3.8118,-3.7792,-3.7785,-3.8111,-3.8227,-3.8274,-3.8183,-3.8137,-3.7953,-3.7448,-3.7127,-3.6874,-3.6668,-3.6622,-3.6553,-3.63,-3.6254,-3.6254,-3.6254,-3.6254,-3.6386,-3.6688,-3.6904,-3.7251,-3.7596,-3.7892,-3.8315,-3.8526,-3.8945,-3.9362,-1.83,-1.8434,-1.8597,-1.869,-1.8477,-1.7602,-1.7199,-1.7013,-1.7022,-1.7022,-1.7013,-1.7022,-1.7022,-1.7013,-1.6854,-1.6863,-1.6863,-1.6863,-1.6863,-1.6854,-1.6863,-1.6863,-1.7022,-1.7322,-1.7799,-1.8274,-1.8749,-1.9391,-2.0032,-2.019,-2.0494,-2.1279,-2.1279,-2.1749,-2.2518,-2.2425,-2.2543,-2.3043,-2.2814,-2.2585,-2.2367,-2.2331,-2.2307,-2.2307,-2.2283,-2.2271,-2.2259,-2.2707,-2.2892,-2.3108,-2.352,-2.3984,-2.4432,-2.486,-2.5555,0.0,-2.6919,0.0,0.0,0.0,0.0,0.0,0.0,0.0,0.0,-2.9453,-2.9848,-3.0389,-3.1024,-3.1672,-3.1949,-3.2829,-3.3447,-3.3594,-3.4584,-3.5334,-3.5604,-3.6304,-3.6896,-3.7019,-3.7197,-3.7374,-3.7374,-3.7374,-3.7495,-3.7758,-3.7834,-3.8029,-3.8551,-3.8744,-3.8726,-3.8595,-3.8619,-3.8367,-3.7976,-3.7816,-3.7609,-3.7219,-3.7127,-3.6943,-3.6484,-3.6392,-3.6369,-3.63,-3.6254,-3.6386,-3.6603,-3.6904,-3.7143,-3.7489,-3.7785,-3.808,-3.8396,-3.8631,-3.8945,-2.0288,-2.013,-2.0249,-2.0239,-2.0209,-1.9755,-1.9202,-1.8397,-1.8397,-1.8397,-1.8226,-1.79,-1.7738,-1.7729,-1.7412,-1.7258,-1.7249,-1.7249,-1.7258,-1.7258,-1.7249,-1.7412,-1.7729,-1.8226,-1.8713,-1.9027,-1.9846,-2.0341,-2.0502,-2.0825,-2.1296,-2.1778,-2.2099,-2.2579,-2.3046,0.0,0.0,0.0,-2.2995,-2.2947,-2.2887,-2.2681,-2.2573,-2.2573,-2.2367,0.0,-2.2259,-2.2707,-2.298,-2.3375,-2.3966,0.0,0.0,0.0,0.0,0.0,0.0,0.0,0.0,0.0,0.0,0.0,-2.9204,-2.941,-3.0088,-3.0511,-3.0781,-3.0933,-3.1568,-3.2102,-3.2501,-3.2898,-3.3538,-3.4323,-3.4713,-3.5231,-3.6408,-3.633,-3.6499,-3.7369,-3.7169,-3.7154,-3.7396,-3.7374,-3.7374,-3.7517,-3.7495,-3.7637,-3.7998,-3.8455,-3.8766,-3.8794,-3.8732,-3.8573,-3.8459,-3.8091,-3.7862,-3.7655,-3.7632,-3.7448,-3.7012,-3.6897,-3.6714,-3.6392,-3.6254,-3.6277,-3.6386,-3.682,-3.712,-3.7143,-3.7679,-3.8104,-3.8291,-3.8631,-3.8945,-2.116,0.0,-2.0847,-2.0796,0.0,-2.0564,-2.0246,-1.9629,-1.9414,-1.9316,-1.9316,-1.9153,-1.8981,-1.899,-1.8827,-1.8664,-1.8664,-1.8664,-1.8664,-1.8664,-1.8664,-1.8827,-1.8981,-1.9153,-1.9489,-1.9978,-2.0303,-2.079,-2.0952,-2.1438,-2.1761,-2.2234,-2.2728,-2.305,-2.352,-2.3548,-2.3442,-2.3043,-2.3176,-2.3176,-2.3043,-2.2923,-2.2838,-2.2838,0.0,0.0,0.0,0.0,0.0,0.0,0.0,0.0,0.0,0.0,0.0,-2.7885,-2.8172,-2.8522,-2.8773,-2.8898,-2.9304,-2.9864,-3.016,-3.0409,-3.0463,-3.0565,-3.0854,-3.1007,-3.1261,-3.1801,-3.2186,-3.2588,-3.3254,-3.4049,-3.4444,-3.51,-3.6119,-3.6342,-3.6707,-3.7339,-3.7524,-3.7536,-3.7544,-3.7623,-3.7636,-3.7418,-3.7374,-3.7495,-3.7616,-3.8096,-3.8455,-3.8789,-3.8866,-3.8941,-3.8918,-3.8734,-3.8436,-3.8252,-3.8183,-3.7976,-3.7494,-3.7402,-3.7242,-3.6782,-3.6645,-3.6576,-3.6541,-3.6796,-3.712,-3.7358,-3.7679,-3.7974,-3.8185,-3.8396,-3.8736,-2.1875,-2.1516,-2.1453,-2.1361,-2.134,-2.1125,-2.1012,-2.094,0.0,0.0,0.0,-1.9967,-1.9967,-1.9967,-1.9967,-1.9967,-1.9967,-1.9967,-1.9967,-1.9967,-1.9967,-1.9967,-1.9967,-2.013,-2.0303,-2.0627,-2.079,-2.1114,-2.1438,-2.1761,-2.2245,-2.2728,-2.305,-2.3359,-2.384,-2.384,-2.3623,-2.3212,-2.3406,-2.3418,-2.3188,-2.314,-2.3116,-2.3116,-2.3068,-2.3089,-2.3327,-2.3618,-2.3983,-2.4201,-2.508,-2.5672,-2.6101,-2.6998,-2.7744,-2.8313,-2.8749,-2.9183,-2.9633,-2.9905,-3.0336,-3.0623,-3.1338,-3.1439,-3.0686,-3.0635,-3.0771,-3.1062,-3.1199,-3.1472,-3.2133,-3.2538,-3.3077,-3.3746,-3.4412,-3.5073,-3.575,-3.6302,-3.6929,-3.7294,-3.7721,-3.8057,-3.7816,-3.7913,-3.7841,-3.7593,-3.744,-3.7374,-3.7495,-3.7758,-3.8238,-3.8693,-3.9003,-3.9285,-3.9308,-3.9262,-3.9147,-3.8757,-3.8711,-3.8527,-3.8091,-3.793,-3.7724,-3.7265,-3.7173,-3.7077,-3.6858,-3.7091,-3.7345,-3.7489,-3.7785,-3.7974,-3.7974,-3.8185,-3.8421,-2.2855,-2.2802,-2.2556,-2.246,-2.2439,-2.2214,-2.2001,-2.1787,-2.0693,-2.0149,-1.9967,-1.9967,-1.9967,-1.9967,-1.9967,-1.9967,-1.9967,-1.9967,-1.9967,0.0,-1.9967,-1.9967,-1.9967,-2.0292,-2.0627,-2.0627,-2.1276,-2.1761,-2.1922,-2.2245,-2.2728,-2.3038,-2.3211,-2.3371,-2.384,-2.384,-2.3804,-2.3731,-2.3768,-2.3768,-2.3731,-2.3514,-2.3393,-2.3393,-2.3176,-2.334,-2.3612,-2.4061,-2.4508,-2.5232,-2.6143,-2.6885,-2.7638,-2.8402,-2.9,-2.9446,-2.9876,-3.0319,-3.0647,-3.0794,-3.1089,-3.1806,-3.2244,-3.221,-3.1491,-3.1405,-3.1405,-3.1546,-3.1791,-3.2106,-3.2542,-3.2923,-3.3459,-3.4165,-3.4595,-3.5141,-3.5916,-3.627,-3.6709,-3.7384,-3.7419,-3.7721,-3.81,-3.7924,-3.7811,-3.7863,-3.7702,-3.7396,-3.7495,-3.7878,-3.8477,-3.8812,-3.9049,-3.9308,-3.9308,-3.9308,-3.9262,-3.9239,-3.917,-3.901,-3.855,-3.8459,-3.8275,-3.777,-3.7678,-3.7607,-3.7502,-3.7582,-3.7722,-3.7738,-3.7833,-3.7974,-3.7974,-3.808,-3.8185,-2.3986,-2.3742,-2.3794,-2.366,-2.3365,-2.3254,-2.3065,-2.2843,-2.2397,-2.1637,-2.0979,-2.0805,-2.0895,-2.0627,-2.0627,-2.0779,-2.079,-2.0779,-2.0627,-2.0779,-2.079,-2.0627,-2.0779,-2.1114,-2.1276,-2.1276,-2.1922,-2.2245,-2.2245,-2.2728,-2.305,-2.3211,-2.3371,-2.3692,-2.384,-2.384,-2.384,-2.384,-2.384,-2.384,-2.384,-2.3731,-2.3659,-2.3671,-2.3696,-2.4033,-2.4196,-2.4817,-2.537,-2.5824,-2.6875,-2.7618,-2.7934,-2.8987,-2.9601,-2.975,-3.0346,-3.0792,-3.0956,-3.1384,-3.1826,-3.2397,-3.2543,-3.2552,-3.221,-3.1987,-3.1782,-3.1593,-3.17,-3.2123,-3.2561,-3.2841,-3.34,-3.437,-3.4508,-3.5059,-3.5879,-3.613,-3.6509,-3.7289,-3.7674,-3.7989,-3.8359,-3.8401,-3.8395,-3.8407,-3.8073,-3.7702,-3.744,-3.7998,-3.838,-3.8596,-3.8953,-3.9308,-3.9308,-3.9308,-3.9308,-3.9308,-3.9308,-3.9216,-3.901,-3.8987,-3.8757,-3.8344,-3.8321,-3.8341,-3.8213,-3.8084,-3.8176,-3.8227,-3.8059,-3.8022,-3.7974,-3.8104,-3.8421,-2.4966,-2.46,-2.4486,-2.4292,-2.4075,-2.4064,-2.3949,-2.3778,-2.3778,-2.3191,-2.2135,-2.2004,-2.1818,-2.161,-2.1599,-2.1599,-2.1599,-2.1599,-2.1599,-2.1599,-2.1599,-2.1599,-2.1599,-2.1922,-2.2084,-2.2084,-2.2567,-2.2728,-2.2728,-2.3211,-2.3371,-2.3359,-2.368,-2.384,-2.384,-2.384,-2.384,-2.384,-2.384,-2.384,-2.384,-2.384,-2.384,-2.384,-2.4172,-2.4539,-2.4799,-2.557,-2.6101,-2.6501,-2.7545,-2.8291,-2.8458,-2.9366,-3.0134,-3.0285,-3.0884,-3.1332,-3.1481,-3.2059,-3.2651,-3.2946,-3.2946,-3.2912,-3.2809,-3.2552,-3.2227,-3.1885,-3.1765,-3.1997,-3.2703,-3.2755,-3.3121,-3.4094,-3.437,-3.4784,-3.5606,-3.5879,-3.6287,-3.7213,-3.775,-3.8138,-3.8371,-3.8722,-3.8808,-3.8734,-3.8488,-3.8095,-3.778,-3.8176,-3.8515,-3.8522,-3.8976,-3.9308,-3.9308,-3.9308,-3.9308,-3.9308,-3.9308,-3.9285,-3.9262,-3.9285,-3.9193,-3.8826,-3.8966,-3.908,-3.8953,-3.88,-3.8871,-3.8923,-3.8719,-3.8431,-3.8455,-3.8562,-3.8688,-2.516,-2.5057,-2.481,-2.4292,-2.4075,-2.4064,-2.4052,-2.4029,-2.4029,-2.3881,-2.3393,-2.3138,-2.2819,-2.2429,-2.2418,-2.2418,-2.2406,-2.2406,-2.2406,-2.2406,-2.2406,-2.2406,-2.2406,-2.2567,-2.2567,-2.2567,-2.2889,-2.3211,-2.3211,-2.352,-2.3692,-2.368,-2.384,-2.384,-2.384,-2.384,-2.384,-2.384,-2.384,-2.384,-2.384,-2.384,-2.384,-2.384,-2.4332,-2.4639,-2.5079,-2.5872,-2.6648,-2.7407,-2.8316,-2.9094,-2.9868,-3.0361,-3.0977,-3.1727,-3.1879,-3.2201,-3.2944,-3.3415,-3.3549,-3.3734,-3.37,-3.3546,-3.3254,-3.3186,-3.2998,-3.2638,-3.2278,-3.2377,-3.3056,-3.295,-3.3193,-3.3872,-3.4269,-3.4508,-3.5059,-3.5606,-3.6132,-3.6519,-3.7213,-3.775,-3.8158,-3.8544,-3.8616,-3.8864,-3.8838,-3.8597,-3.8139,-3.8642,-3.8896,-3.868,-3.8976,-3.9331,-3.9308,-3.9308,-3.9308,-3.9308,-3.9308,-3.9308,-3.9308,-3.9308,-3.9262,-3.9288,-3.9545,-3.9546,-3.9588,-3.9533,-3.9658,-3.9498,-3.9417,-3.9393,-3.9441,-3.9345,-3.9274,-2.6233,-2.6068,-2.5689,-2.5299,-2.4944,-2.4921,-2.4921,-2.4921,-2.4921,-2.4779,-2.4542,-2.4306,-2.3657,-2.2796,-2.2784,-2.2704,-2.2567,-2.2567,-2.2567,-2.2567,-2.2567,-2.2567,-2.2567,-2.2889,-2.2878,-2.305,-2.3359,-2.3532,-2.352,-2.3692,-2.384,-2.384,-2.384,-2.384,-2.384,-2.384,-2.384,-2.384,-2.384,-2.384,-2.384,-2.384,-2.4012,-2.4172,-2.4652,-2.513,-2.5911,-2.6702,-2.7476,-2.8417,-2.9197,-2.9834,-3.0469,-3.1071,-3.1702,-3.1993,-3.2452,-3.2909,-3.3517,-3.3685,-3.3837,-3.3837,-3.3837,-3.3768,-3.3631,-3.3597,-3.3678,-3.3638,-3.3102,-3.3046,-3.3624,-3.3768,-3.3855,-3.408,-3.4305,-3.4492,-3.4527,-3.5059,-3.5606,-3.6132,-3.6809,-3.7482,-3.815,-3.8798,-3.9131,-3.9256,-3.9253,-3.9078,-3.8641,-3.9029,-3.9433,-3.9376,-3.959,-3.9629,-3.94,-3.9308,-3.9308,-3.9308,-3.9308,-3.9308,-3.9308,-3.9308,-3.9308,-3.9567,-3.9779,-4.0083,-4.0243,-4.0093,-4.017,-4.0042,-3.9753,-3.9609,-3.9609,-3.9609,-3.9564,-2.693,-2.6701,-2.6363,-2.5965,-2.5542,-2.547,-2.5433,-2.5433,-2.5433,-2.5325,-2.5168,-2.5156,-2.4568,-2.3657,-2.3329,-2.3156,-2.2994,-2.2924,-2.2889,-2.2878,-2.2889,-2.2878,-2.3038,-2.3199,-2.3371,-2.3359,-2.368,-2.384,-2.384,-2.384,-2.384,-2.384,-2.384,-2.384,-2.384,-2.384,-2.384,-2.384,-2.384,-2.384,-2.4,-2.4,-2.4172,-2.4492,-2.513,-2.5766,-2.6386,-2.7476,-2.8261,-2.8886,-2.9819,-3.0454,-3.0933,-3.1702,-3.2146,-3.2299,-3.2909,-3.3517,-3.3837,-3.3837,-3.3837,-3.3837,-3.3837,-3.3988,-3.3988,-3.4139,-3.4273,-3.4521,-3.4197,-3.4009,-3.4177,-3.436,-3.445,-3.4605,-3.4495,-3.4416,-3.4594,-3.474,-3.5196,-3.5743,-3.6539,-3.7213,-3.8037,-3.8946,-3.9432,-3.9563,-3.9733,-3.958,-3.9292,-3.9516,-3.9993,-3.9859,-4.0114,-4.0089,-3.9607,-3.9377,-3.9354,-3.9308,-3.9308,-3.9308,-3.9308,-3.9308,-3.9426,-3.9684,-4.013,-4.0339,-4.05,-4.0559,-4.0595,-4.0547,-4.0306,-4.0042,-4.0186,-4.0066,-4.0154,-2.7027,-2.693,-2.6447,-2.6049,-2.5784,-2.5542,-2.5433,-2.5433,-2.5433,-2.5421,-2.5409,-2.5409,-2.5264,-2.4795,-2.4339,-2.4076,-2.4028,-2.3824,-2.3728,-2.3728,-2.3728,-2.3692,-2.368,-2.384,-2.3692,-2.3716,-2.3692,-2.384,-2.384,-2.384,-2.384,-2.384,-2.384,-2.384,-2.384,-2.384,-2.384,-2.384,-2.384,-2.4,-2.4332,-2.4492,-2.4492,-2.4652,-2.5766,-2.6386,-2.6702,-2.7947,-2.89,-2.89,-3.0175,-3.0948,-3.1411,-3.1872,-3.2501,-3.3095,-3.3534,-3.3854,-3.3854,-3.3854,-3.3837,-3.3837,-3.4139,-3.4441,-3.4441,-3.4724,-3.4857,-3.5007,-3.5217,-3.5186,-3.5028,-3.4739,-3.4812,-3.499,-3.466,-3.46,-3.4929,-3.4872,-3.5078,-3.547,-3.6132,-3.7079,-3.8037,-3.8835,-3.9341,-3.967,-3.9953,-4.0039,-3.9774,-4.0151,-4.0226,-4.0185,-4.0332,-4.0617,-4.0112,-3.9698,-3.9423,-3.9377,-3.9423,-3.9308,-3.9426,-3.9544,-3.9684,-3.9919,-4.027,-4.0595,-4.0711,-4.0918,-4.0961,-4.1028,-4.1004,-4.0884,-4.0715,-4.1004,-4.1046,-2.693,-2.6749,-2.6375,-2.6061,-2.5808,-2.5542,-2.5433,-2.5433,-2.5433,-2.5433,-2.5433,-2.5433,-2.5385,-2.5277,-2.4927,-2.4649,-2.448,-2.4383,-2.4347,-2.4347,-2.4347,-2.4347,-2.4323,-2.4178,-2.4094,-2.4069,-2.3925,-2.384,-2.384,-2.384,-2.384,-2.384,-2.384,-2.384,-2.384,-2.384,-2.384,-2.3852,-2.4,-2.4332,-2.4652,-2.5276,-2.5766,-2.5753,-2.607,-2.686,-2.7947,-2.8588,-2.9301,-3.0434,-3.109,-3.1808,-3.2484,-3.3142,-3.3781,-3.4229,-3.4163,-3.4196,-3.4162,-3.4126,-3.4139,-3.4139,-3.4574,-3.4724,-3.4857,-3.4857,-3.5157,-3.5306,-3.5456,-3.5515,-3.5721,-3.5705,-3.5522,-3.543,-3.5265,-3.4935,-3.4815,-3.4836,-3.5086,-3.5272,-3.6132,-3.7213,-3.8037,-3.8835,-3.9363,-3.9625,-4.0018,-4.0192,-4.0212,-4.064,-4.0912,-4.0905,-4.1012,-4.126,-4.1099,-4.0295,-3.979,-3.9675,-3.9607,-3.9541,-3.959,-3.9684,-3.9802,-4.027,-4.0619,-4.085,-4.0942,-4.1057,-4.1196,-4.1196,-4.1196,-4.1196,-4.1172,-4.1196,-4.1287,-2.693,-2.6725,-2.6363,-2.6122,-2.5916,-2.559,-2.5433,-2.5433,-2.5433,-2.5433,-2.5433,-2.5433,-2.5433,-2.5409,-2.5252,-2.5083,-2.4878,-2.4721,-2.4625,-2.4625,-2.4625,-2.4625,-2.4601,-2.4444,-2.4359,-2.4323,-2.4094,-2.3973,-2.3961,-2.3888,-2.384,-2.384,-2.384,-2.384,-2.384,-2.384,-2.3852,-2.4012,-2.4332,-2.4652,-2.513,-2.5911,-2.6756,-2.7299,-2.7327,-2.7787,-2.9047,-2.9621,-3.0399,-3.1559,-3.2062,-3.263,-3.3503,-3.4183,-3.4654,-3.5089,-3.502,-3.4865,-3.4984,-3.4824,-3.4784,-3.4766,-3.5078,-3.5157,-3.5157,-3.5306,-3.5456,-3.5754,-3.5754,-3.5903,-3.6052,-3.6182,-3.6091,-3.5834,-3.5705,-3.5412,-3.488,-3.4981,-3.5285,-3.5482,-3.6366,-3.7233,-3.7904,-3.8702,-3.9231,-3.9494,-4.0018,-4.0279,-4.0409,-4.0799,-4.1293,-4.1271,-4.1511,-4.1731,-4.1673,-4.1076,-4.0479,-4.0318,-4.0048,-3.9913,-3.9988,-3.9918,-4.0177,-4.0503,-4.0826,-4.0966,-4.1081,-4.1196,-4.1196,-4.1196,-4.1196,-4.1196,-4.1196,-4.1196,-4.1172,-2.7027,-2.6942,-2.6447,-2.623,-2.6122,-2.5675,-2.5458,-2.5446,-2.5433,-2.5433,-2.5433,-2.5433,-2.5433,-2.5433,-2.5397,-2.5409,-2.5289,-2.4914,-2.4721,-2.4709,-2.4697,-2.4697,-2.4697,-2.4661,-2.4613,-2.4576,-2.4359,-2.4238,-2.4226,-2.4033,-2.3925,-2.3876,-2.3888,-2.3876,-2.384,-2.384,-2.4,-2.4332,-2.4652,-2.513,-2.6228,-2.6571,-2.7499,-2.8993,-2.9383,-2.9571,-2.9556,-3.0938,-3.1888,-3.2412,-3.2888,-3.3536,-3.425,-3.4913,-3.5175,-3.5522,-3.5591,-3.5729,-3.5987,-3.5823,-3.5628,-3.5574,-3.5557,-3.5677,-3.5695,-3.594,-3.6052,-3.6052,-3.6201,-3.6201,-3.6201,-3.6201,-3.6182,-3.6164,-3.587,-3.565,-3.5504,-3.5536,-3.5736,-3.6023,-3.6739,-3.7119,-3.7368,-3.8304,-3.9099,-3.9363,-3.9888,-4.0279,-4.0409,-4.0928,-4.1164,-4.1421,-4.1738,-4.2155,-4.2063,-4.1903,-4.1397,-4.0938,-4.0554,-4.0283,-4.0548,-4.0574,-4.0669,-4.0949,-4.099,-4.1105,-4.1196,-4.1196,-4.1196,-4.1196,-4.1196,-4.1196,-4.1196,-4.1196,-4.1196,-2.7027,-2.6991,-2.6653,-2.6387,-2.6194,-2.5844,-2.5615,-2.5446,-2.5433,-2.5433,-2.5433,-2.5433,-2.5433,-2.5433,-2.5433,-2.5433,-2.5421,-2.5252,-2.518,-2.5168,-2.518,-2.5168,-2.5144,-2.4999,-2.4806,-2.4649,-2.4552,-2.4504,-2.4492,-2.4407,-2.4299,-2.4154,-2.4106,-2.4009,-2.3864,-2.4172,-2.4332,-2.4652,-2.5435,-2.6083,-2.6571,-2.7843,-2.8806,-2.9412,-3.0915,-3.1817,-3.1978,-3.2188,-3.2698,-3.3738,-3.4057,-3.4651,-3.535,-3.5897,-3.6216,-3.6341,-3.643,-3.6446,-3.655,-3.6558,-3.6462,-3.639,-3.6406,-3.6358,-3.6454,-3.6216,-3.6237,-3.6219,-3.6201,-3.6201,-3.6201,-3.6201,-3.6201,-3.6201,-3.6091,-3.5889,-3.565,-3.5861,-3.5991,-3.6246,-3.6719,-3.7171,-3.7597,-3.8419,-3.903,-3.9252,-3.9909,-4.0301,-4.0409,-4.0928,-4.1315,-4.1293,-4.1829,-4.2339,-4.2224,-4.2132,-4.1903,-4.1591,-4.123,-4.0959,-4.1181,-4.1163,-4.1259,-4.128,-4.1321,-4.1293,-4.1244,-4.1196,-4.1196,-4.1196,-4.1196,-4.1196,-4.1196,-4.1196,-4.1196,-2.7027,-2.7003,-2.6749,-2.6472,-2.6206,-2.594,-2.5675,-2.5458,-2.5433,-2.5433,-2.5433,-2.5433,-2.5433,-2.5433,-2.5433,-2.5433,-2.5433,-2.5433,-2.5433,-2.5433,-2.5433,-2.5433,-2.5421,-2.5277,-2.512,-2.4939,-2.483,-2.4782,-2.4782,-2.4673,-2.454,-2.4407,-2.4383,-2.4251,-2.4182,-2.448,-2.4764,-2.5302,-2.5924,-2.6702,-2.7361,-2.8619,-2.9626,-3.0673,-3.2044,-3.3034,-3.3726,-3.3725,-3.3885,-3.4709,-3.524,-3.5857,-3.6402,-3.6724,-3.7045,-3.717,-3.7153,-3.7309,-3.7432,-3.7402,-3.7185,-3.7267,-3.7129,-3.7062,-3.6989,-3.6677,-3.6457,-3.6439,-3.6292,-3.6201,-3.6201,-3.6201,-3.6201,-3.6201,-3.6201,-3.6091,-3.5962,-3.6066,-3.6274,-3.6466,-3.6867,-3.7351,-3.7903,-3.8739,-3.9235,-3.955,-4.0147,-4.0541,-4.0627,-4.0906,-4.1187,-4.1572,-4.1934,-4.2212,-4.2339,-4.2316,-4.2316,-4.2097,-4.1932,-4.1877,-4.1888,-4.1754,-4.1805,-4.1899,-4.1942,-4.1677,-4.1605,-4.1293,-4.1196,-4.1196,-4.1268,-4.1196,-4.1196,-4.1196,-4.1196,-2.7027,-2.6991,-2.6761,-2.6496,-2.6206,-2.5965,-2.5711,-2.547,-2.5433,-2.5433,-2.5433,-2.5433,-2.5433,-2.5433,-2.5433,-2.5433,-2.5433,-2.5433,-2.5433,-2.5433,-2.5433,-2.5433,-2.5421,-2.5397,-2.5373,-2.5337,-2.5156,-2.5071,-2.5059,-2.4866,-2.4661,-2.4661,-2.4649,-2.4693,-2.48,-2.4913,-2.5435,-2.6175,-2.644,-2.7388,-2.8802,-2.9159,-3.0227,-3.2269,-3.273,-3.3676,-3.4942,-3.517,-3.5366,-3.5578,-3.6207,-3.6689,-3.6902,-3.7205,-3.7525,-3.7845,-3.8004,-3.8127,-3.8371,-3.8116,-3.7897,-3.8034,-3.7686,-3.7448,-3.7411,-3.7099,-3.6861,-3.6842,-3.6567,-3.6329,-3.6311,-3.6292,-3.6274,-3.6201,-3.6201,-3.6182,-3.6164,-3.6146,-3.6417,-3.6758,-3.7047,-3.7586,-3.8267,-3.9337,-3.9773,-4.0082,-4.049,-4.0869,-4.1022,-4.1347,-4.1534,-4.1768,-4.2198,-4.2212,-4.2339,-4.2339,-4.2316,-4.2454,-4.2427,-4.2514,-4.2503,-4.2492,-4.2305,-4.24,-4.2399,-4.2158,-4.1966,-4.1749,-4.1581,-4.1653,-4.1557,-4.1317,-4.1365,-4.1533,-4.1557,-2.7027,-2.7027,-2.6954,-2.6653,-2.6242,-2.6134,-2.5844,-2.547,-2.5433,-2.5433,-2.5433,-2.5433,-2.5433,-2.5433,-2.5433,-2.5433,-2.5433,-2.5433,-2.5433,-2.5433,-2.5433,-2.5433,-2.5433,-2.5433,-2.5433,-2.5421,-2.5349,-2.5337,-2.5337,-2.5228,-2.5108,-2.4939,-2.5261,-2.5293,-2.5236,-2.5842,-2.6339,-2.6747,-2.7665,-2.846,-2.9439,-3.0739,-3.1888,-3.2777,-3.4,-3.4697,-3.5416,-3.608,-3.6402,-3.6402,-3.6885,-3.7205,-3.7205,-3.7685,-3.7845,-3.8004,-3.8322,-3.8481,-3.8621,-3.853,-3.8475,-3.8456,-3.8089,-3.7851,-3.7851,-3.7503,-3.7301,-3.7246,-3.7136,-3.6952,-3.6751,-3.6659,-3.6531,-3.6256,-3.6219,-3.6201,-3.6182,-3.6423,-3.681,-3.7213,-3.7287,-3.7812,-3.8688,-3.9347,-3.9929,-4.035,-4.0964,-4.1571,-4.1706,-4.1725,-4.1983,-4.2237,-4.2449,-4.2326,-4.2339,-4.2339,-4.2466,-4.2696,-4.2958,-4.3161,-4.3298,-4.3259,-4.3048,-4.2808,-4.276,-4.2567,-4.2543,-4.2447,-4.2351,-4.211,-4.2158,-4.2086,-4.223,-4.2399,-4.2327,-2.7027,-2.7027,-2.7027,-2.6713,-2.6242,-2.6218,-2.5928,-2.5506,-2.5433,-2.5433,-2.5433,-2.5433,-2.5433,-2.5433,-2.5433,-2.5433,-2.5433,-2.5433,-2.5433,-2.5433,-2.5433,-2.5433,-2.5433,-2.5433,-2.5433,-2.5433,-2.5433,-2.5433,-2.5433,-2.5433,-2.5349,-2.5567,-2.5699,-2.5899,-2.6147,-2.6618,-2.7295,-2.785,-2.8674,-2.9427,-3.0703,-3.1668,-3.2793,-3.3643,-3.4775,-3.5409,-3.5884,-3.6724,-3.7205,-3.7205,-3.7365,-3.7685,-3.7685,-3.8004,-3.8322,-3.8322,-3.8481,-3.864,-3.864,-3.864,-3.864,-3.8621,-3.8383,-3.831,-3.8199,-3.7924,-3.7668,-3.7668,-3.7539,-3.7319,-3.7118,-3.6952,-3.6732,-3.6531,-3.6329,-3.6219,-3.6201,-3.6497,-3.696,-3.7345,-3.7651,-3.8059,-3.9189,-3.9798,-4.0292,-4.0838,-4.1596,-4.2009,-4.2349,-4.2393,-4.2478,-4.2759,-4.2883,-4.2853,-4.2775,-4.2729,-4.2824,-4.3158,-4.3443,-4.3796,-4.3778,-4.3935,-4.3671,-4.3409,-4.3216,-4.3072,-4.3072,-4.2976,-4.2663,-4.2567,-4.2735,-4.2808,-4.2832,-4.2976,-4.2952,-2.7027,-2.7027,-2.7003,-2.6689,-2.6254,-2.6182,-2.588,-2.5506,-2.5433,-2.5433,-2.5433,-2.5433,-2.5433,-2.5433,-2.5433,-2.5433,-2.5433,-2.5433,-2.5433,-2.5433,-2.5433,-2.5433,-2.5433,-2.5433,-2.5433,-2.5433,-2.5433,-2.5433,-2.5433,-2.5433,-2.5604,-2.5896,-2.6066,-2.6474,-2.6955,-2.7583,-2.8414,-2.9115,-2.9545,-3.0505,-3.1919,-3.2475,-3.3302,-3.4592,-3.519,-3.584,-3.6654,-3.7525,-3.7845,-3.7525,-3.7845,-3.8004,-3.8163,-3.8481,-3.8481,-3.864,-3.864,-3.864,-3.864,-3.864,-3.864,-3.864,-3.864,-3.864,-3.853,-3.8255,-3.8089,-3.8071,-3.7759,-3.7631,-3.7448,-3.7154,-3.6897,-3.6751,-3.6476,-3.6311,-3.6219,-3.6516,-3.696,-3.7402,-3.7696,-3.8574,-3.9425,-4.0412,-4.1001,-4.1283,-4.2072,-4.2672,-4.2881,-4.2906,-4.3306,-4.3745,-4.3739,-4.3579,-4.3372,-4.3165,-4.3345,-4.3565,-4.4057,-4.4362,-4.4314,-4.4295,-4.4347,-4.413,-4.3794,-4.3625,-4.3601,-4.3385,-4.3096,-4.3096,-4.3337,-4.3192,-4.3048,-4.3289,-4.3385,-2.7027,-2.7015,-2.681,-2.6532,-2.6218,-2.6001,-2.5735,-2.5446,-2.5433,-2.5433,-2.5433,-2.5433,-2.5433,-2.5433,-2.5433,-2.5433,-2.5433,-2.5433,-2.5433,-2.5433,-2.5433,-2.5433,-2.5433,-2.5433,-2.5433,-2.5433,-2.5433,-2.5433,-2.5433,-2.5433,-2.5604,-2.6103,-2.6613,-2.7096,-2.7875,-2.8338,-2.9063,-2.9948,-3.0469,-3.1426,-3.2793,-3.3546,-3.414,-3.5231,-3.5926,-3.678,-3.749,-3.7845,-3.8163,-3.8322,-3.8322,-3.8481,-3.8481,-3.8481,-3.864,-3.864,-3.864,-3.864,-3.864,-3.864,-3.864,-3.864,-3.864,-3.864,-3.864,-3.8566,-3.8493,-3.8493,-3.842,-3.8181,-3.7906,-3.7521,-3.7228,-3.6971,-3.6787,-3.6567,-3.6311,-3.6516,-3.696,-3.7402,-3.799,-3.872,-3.957,-4.0576,-4.1368,-4.1848,-4.2527,-4.3222,-4.3414,-4.3533,-4.3849,-4.4295,-4.4245,-4.4061,-4.3808,-4.3709,-4.3891,-4.4091,-4.4563,-4.4972,-4.4924,-4.4732,-4.4659,-4.4491,-4.4275,-4.4154,-4.3986,-4.4058,-4.3794,-4.389,-4.3914,-4.3794,-4.3721,-4.3818,-4.3794,-2.7027,-2.7003,-2.6749,-2.6472,-2.6206,-2.594,-2.5687,-2.547,-2.5433,-2.5433,-2.5433,-2.5433,-2.5433,-2.5433,-2.5433,-2.5433,-2.5433,-2.5433,-2.5433,-2.5433,-2.5433,-2.5433,-2.5433,-2.5433,-2.5433,-2.5433,-2.5433,-2.5433,-2.5433,-2.5604,-2.5933,-2.6443,-2.7122,-2.7799,-2.8473,-2.9314,-3.0064,-3.0883,-3.1553,-3.2529,-3.3807,-3.4321,-3.5046,-3.5994,-3.6885,-3.7525,-3.8004,-3.8163,-3.8322,-3.8481,-3.864,-3.864,-3.864,-3.864,-3.864,-3.864,-3.864,-3.864,-3.864,-3.864,-3.864,-3.864,-3.864,-3.864,-3.864,-3.864,-3.864,-3.864,-3.8603,-3.8511,-3.831,-3.7943,-3.7594,-3.7429,-3.7209,-3.6934,-3.6586,-3.6794,-3.7107,-3.7549,-3.8282,-3.9011,-3.9858,-4.074,-4.1431,-4.1933,-4.2656,-4.3331,-4.3885,-4.4074,-4.4324,-4.464,-4.475,-4.452,-4.4377,-4.4256,-4.4417,-4.4795,-4.5086,-4.5398,-4.5477,-4.5237,-4.4972,-4.4732,-4.4443,-4.4347,-4.4227,-4.4347,-4.4347,-4.4227,-4.4178,-4.4299,-4.4299,-4.413,-4.4106,-2.6966,-2.6942,-2.6641,-2.6375,-2.6146,-2.5868,-2.5639,-2.5458,-2.5433,-2.5433,-2.5433,-2.5433,-2.5433,-2.5433,-2.5433,-2.5433,-2.5433,-2.5433,-2.5433,-2.5433,-2.5433,-2.5433,-2.5433,-2.5433,-2.5433,-2.5433,-2.5433,-2.5433,-2.5604,-2.5933,-2.6443,-2.6953,-2.763,-2.8473,-2.9314,-3.015,-3.1135,-3.1902,-3.2538,-3.3499,-3.4668,-3.497,-3.568,-3.6815,-3.7525,-3.8004,-3.8163,-3.8322,-3.864,-3.864,-3.864,-3.864,-3.864,-3.864,-3.864,-3.864,-3.864,-3.864,-3.864,-3.864,-3.864,-3.864,-3.864,-3.864,-3.864,-3.864,-3.864,-3.864,-3.864,-3.864,-3.8603,-3.8328,-3.8089,-3.7924,-3.7668,-3.7356,-3.7122,-3.7315,-3.7406,-3.7568,-3.8428,-3.9445,-4.0002,-4.0719,-4.1431,-4.2018,-4.2743,-4.3441,-4.3997,-4.4388,-4.4595,-4.4983,-4.5071,-4.4979,-4.4861,-4.5123,-4.5263,-4.5384,-4.5657,-4.5797,-4.6006,-4.5694,-4.5333,-4.4828,-4.4563,-4.4539,-4.4419,-4.4347,-4.4347,-4.4347,-4.4347,-4.4347,-4.4347,-4.4347,-4.4395,-2.6701,-2.6665,-2.617,-2.5928,-2.5856,-2.5615,-2.5494,-2.5446,-2.5433,-2.5433,-2.5433,-2.5433,-2.5433,-2.5433,-2.5433,-2.5433,-2.5433,-2.5433,-2.5433,-2.5433,-2.5433,-2.5433,-2.5433,-2.5433,-2.5433,-2.5433,-2.5433,-2.5604,-2.5933,-2.6103,-2.677,-2.763,-2.8136,-2.881,-2.9983,-3.0817,-3.1662,-3.2819,-3.3381,-3.4213,-3.5042,-3.585,-3.6442,-3.7525,-3.8004,-3.8163,-3.8481,-3.8481,-3.864,-3.864,-3.864,-3.864,-3.864,-3.864,-3.864,-3.864,-3.864,-3.864,-3.864,-3.864,-3.864,-3.864,-3.864,-3.864,-3.864,-3.864,-3.864,-3.864,-3.864,-3.864,-3.864,-3.853,-3.8365,-3.8126,-3.7961,-3.7759,-3.7509,-3.7632,-3.7857,-3.7796,-3.8711,-3.957,-4.0146,-4.0719,-4.1573,-4.2159,-4.2743,-4.3441,-4.4135,-4.4411,-4.4663,-4.4937,-4.5324,-4.5278,-4.5209,-4.568,-4.6076,-4.6045,-4.6299,-4.6477,-4.6439,-4.6102,-4.5718,-4.5381,-4.5044,-4.4924,-4.4756,-4.4539,-4.4443,-4.4539,-4.4467,-4.4395,-4.4515,-4.4635,-4.4611,-2.6556,-2.6375,-2.5989,-2.5832,-2.5784,-2.5554,-2.5433,-2.5433,-2.5433,-2.5433,-2.5433,-2.5433,-2.5433,-2.5433,-2.5433,-2.5433,-2.5433,-2.5433,-2.5433,-2.5433,-2.5433,-2.5433,-2.5433,-2.5604,-2.5763,-2.5775,-2.5945,-2.6116,-2.6103,-2.6626,-2.7292,-2.7968,-2.8473,-2.9481,-3.0651,-3.1482,-3.2324,-3.3476,-3.4131,-3.4783,-3.5757,-3.6563,-3.7525,-3.7845,-3.8163,-3.8481,-3.8481,-3.864,-3.864,-3.864,-3.864,-3.864,-3.864,-3.864,-3.864,-3.864,-3.864,-3.864,-3.864,-3.864,-3.864,-3.864,-3.864,-3.864,-3.864,-3.864,-3.864,-3.864,-3.864,-3.864,-3.864,-3.864,-3.853,-3.8401,-3.8328,-3.8126,-3.7969,-3.8326,-3.8292,-3.8158,-3.9014,-3.971,-4.0002,-4.0719,-4.1714,-4.23,-4.2743,-4.3441,-4.4135,-4.4411,-4.4548,-4.5097,-4.537,-4.537,-4.5483,-4.6001,-4.6405,-4.6469,-4.6775,-4.6981,-4.6992,-4.6704,-4.6439,-4.615,-4.5838,-4.5525,-4.5261,-4.514,-4.4924,-4.4756,-4.4804,-4.4852,-4.4876,-4.49,-4.4948,-2.6339,-2.6122,-2.5856,-2.5747,-2.5711,-2.553,-2.5433,-2.5433,-2.5433,-2.5433,-2.5433,-2.5433,-2.5433,-2.5433,-2.5433,-2.5433,-2.5433,-2.5433,-2.5433,-2.5604,-2.5604,-2.5604,-2.5775,-2.5933,-2.6273,-2.6273,-2.6613,-2.6796,-2.6613,-2.7135,-2.7812,-2.8642,-2.9314,-3.015,-3.1164,-3.2324,-3.3148,-3.3968,-3.4783,-3.5595,-3.6402,-3.7365,-3.8004,-3.8163,-3.8481,-3.864,-3.864,-3.864,-3.864,-3.864,-3.864,-3.864,-3.864,-3.864,-3.864,-3.864,-3.864,-3.864,-3.864,-3.864,-3.864,-3.864,-3.864,-3.864,-3.864,-3.864,-3.864,-3.864,-3.864,-3.864,-3.864,-3.864,-3.864,-3.8621,-3.8585,-3.8511,-3.855,-3.8756,-3.9165,-3.9295,-3.9623,-4.0096,-4.0326,-4.1069,-4.2131,-4.2462,-4.2883,-4.3441,-4.4135,-4.4273,-4.4548,-4.5097,-4.537,-4.537,-4.5619,-4.6025,-4.6271,-4.6382,-4.6894,-4.7329,-4.7353,-4.7329,-4.7064,-4.6728,-4.6631,-4.6319,-4.603,-4.5669,-4.5453,-4.5285,-4.5285,-4.5309,-4.5357,-4.5429,-4.5628,-2.5904,-2.5844,-2.559,-2.5482,-2.5482,-2.5458,-2.5433,-2.5433,-2.5433,-2.5433,-2.5433,-2.5433,-2.5433,-2.5433,-2.5433,-2.5433,-2.5433,-2.5604,-2.5775,-2.5933,-2.6103,-2.6273,-2.6443,-2.6613,-2.6783,-2.6783,-2.7304,-2.7304,-2.7474,-2.7799,-2.8473,-2.9314,-3.015,-3.1164,-3.1994,-3.2983,-3.3804,-3.4637,-3.5109,-3.608,-3.7045,-3.7685,-3.8163,-3.8481,-3.8481,-3.864,-3.864,-3.864,-3.864,-3.864,-3.864,-3.864,-3.864,-3.864,-3.864,-3.864,-3.864,-3.864,-3.864,-3.864,-3.864,-3.864,-3.864,-3.864,-3.864,-3.864,-3.864,-3.864,-3.864,-3.864,-3.864,-3.864,-3.864,-3.864,-3.864,-3.878,-3.8966,-3.9074,-3.9508,-4.0124,-4.0524,-4.072,-4.1085,-4.1937,-4.265,-4.2655,-4.3023,-4.3647,-4.4224,-4.4452,-4.4548,-4.5233,-4.537,-4.537,-4.5619,-4.6025,-4.6294,-4.6405,-4.6941,-4.7497,-4.7497,-4.7497,-4.7497,-4.7233,-4.7136,-4.6896,-4.6439,-4.6102,-4.591,-4.5838,-4.5838,-4.5838,-4.5838,-4.5958,-4.6255,-2.5602,-2.5602,-2.5494,-2.5433,-2.5433,-2.5433,-2.5433,-2.5433,-2.5433,-2.5433,-2.5433,-2.5433,-2.5604,-2.5763,-2.6116,-2.6286,-2.6116,-2.6116,-2.6273,-2.6443,-2.6443,-2.6613,-2.6783,-2.7135,-2.7135,-2.7304,-2.7812,-2.8318,-2.8318,-2.8487,-2.8978,-3.015,-3.0651,-3.1482,-3.2654,-3.3476,-3.4294,-3.5109,-3.608,-3.6885,-3.7685,-3.8163,-3.8481,-3.864,-3.864,-3.864,-3.864,-3.864,-3.864,-3.864,-3.864,-3.864,-3.864,-3.864,-3.864,-3.864,-3.864,-3.864,-3.864,-3.864,-3.864,-3.864,-3.864,-3.864,-3.864,-3.864,-3.864,-3.864,-3.864,-3.864,-3.864,-3.864,-3.864,-3.864,-3.864,-3.8956,-3.9254,-3.9651,-3.9949,-4.0627,-4.143,-4.1765,-4.1974,-4.269,-4.3248,-4.3422,-4.3883,-4.4494,-4.499,-4.5319,-4.5324,-4.537,-4.537,-4.537,-4.5619,-4.6025,-4.6294,-4.6563,-4.7098,-4.7497,-4.7497,-4.7497,-4.7497,-4.7497,-4.7377,-4.7088,-4.6752,-4.6583,-4.6391,-4.6367,-4.6367,-4.6367,-4.6391,-4.6988,-4.7394,-2.5433,-2.5604,-2.5433,-2.5433,-2.5433,-2.5604,-2.5604,-2.5604,-2.5775,-2.5775,-2.5775,-2.5775,-2.5933,-2.6273,-2.6613,-2.6613,-2.6783,-2.6783,-2.6965,-2.6965,-2.6965,-2.7135,-2.7304,-2.7643,-2.7812,-2.7825,-2.8318,-2.8824,-2.916,-2.9328,-2.983,-3.0832,-3.1497,-3.2159,-3.3312,-3.4131,-3.4946,-3.5757,-3.6724,-3.7525,-3.8004,-3.8322,-3.8481,-3.864,-3.864,-3.864,-3.864,-3.864,-3.864,-3.864,-3.864,-3.864,-3.864,-3.864,-3.864,-3.864,-3.864,-3.864,-3.864,-3.864,-3.864,-3.864,-3.864,-3.864,-3.864,-3.864,-3.864,-3.864,-3.864,-3.864,-3.864,-3.864,-3.864,-3.864,-3.864,-3.8956,-3.9254,-3.9688,-4.0276,-4.1286,-4.2128,-4.287,-4.3144,-4.351,-4.3867,-4.4192,-4.4727,-4.5345,-4.5737,-4.6075,-4.6126,-4.5898,-4.5898,-4.5989,-4.6055,-4.6258,-4.6459,-4.6745,-4.7146,-4.7364,-4.7497,-4.7497,-4.7497,-4.7497,-4.7497,-4.7377,-4.7112,-4.6992,-4.6896,-4.6896,-4.692,-4.692,-4.7147,-4.7724,-4.824,-2.5604,-2.6103,-2.5604,-2.5433,-2.5433,-2.5933,-2.6103,-2.6103,-2.6443,-2.6613,-2.6613,-2.6613,-2.6626,-2.6783,-2.6953,-2.6953,-2.6783,-2.6783,-2.7135,-2.7304,-2.7474,-2.7643,-2.7812,-2.815,-2.8318,-2.8669,-2.9047,-2.9565,-3.0026,-3.0404,-3.0694,-3.0984,-3.2339,-3.3164,-3.3968,-3.4783,-3.5595,-3.6402,-3.7205,-3.7685,-3.8004,-3.8322,-3.864,-3.864,-3.864,-3.864,-3.864,-3.864,-3.864,-3.864,-3.864,-3.864,-3.864,-3.864,-3.864,-3.864,-3.864,-3.864,-3.864,-3.864,-3.864,-3.864,-3.864,-3.864,-3.864,-3.864,-3.864,-3.864,-3.864,-3.864,-3.864,-3.864,-3.864,-3.864,-3.864,-3.9114,-3.943,-3.9745,-4.049,-4.1888,-4.2637,-4.3186,-4.3924,-4.4251,-4.4632,-4.4961,-4.5556,-4.6177,-4.6382,-4.6603,-4.6675,-4.6655,-4.6655,-4.6657,-4.6703,-4.6861,-4.704,-4.7211,-4.7471,-4.7484,-4.7521,-4.7497,-4.7497,-4.7497,-4.7497,-4.7497,-4.7473,-4.7305,-4.7233,-4.7377,-4.7401,-4.7281,-4.7652,-4.8084,-4.8551,-2.6456,-2.6443,-2.6286,-2.6286,-2.6286,-2.6443,-2.6613,-2.6613,-2.6783,-2.6783,-2.6783,-2.7135,-2.7304,-2.7304,-2.7643,-2.763,-2.763,-2.763,-2.7812,-2.7812,-2.7981,-2.7981,-2.8318,-2.8487,-2.8655,-2.9047,-2.9495,-3.0113,-3.0803,-3.1613,-3.2282,-3.2918,-3.347,-3.382,-3.4458,-3.5433,-3.6402,-3.7045,-3.7525,-3.8004,-3.8322,-3.8481,-3.864,-3.864,-3.864,-3.864,-3.864,-3.864,-3.864,-3.864,-3.864,-3.864,-3.864,-3.864,-3.864,-3.864,-3.864,-3.864,-3.864,-3.864,-3.864,-3.864,-3.864,-3.864,-3.864,-3.864,-3.864,-3.864,-3.864,-3.864,-3.864,-3.864,-3.864,-3.864,-3.8798,-3.9114,-3.943,-3.9745,-4.0666,-4.1907,-4.2524,-4.3096,-4.3877,-4.4762,-4.5317,-4.5713,-4.6357,-4.6825,-4.7053,-4.7179,-4.7275,-4.7183,-4.7302,-4.7282,-4.7214,-4.749,-4.7648,-4.775,-4.7844,-4.77,-4.7738,-4.7521,-4.7521,-4.7497,-4.7497,-4.7497,-4.7497,-4.7497,-4.7497,-4.7497,-4.763,-4.7738,-4.8026,-4.8576,-4.8942,-2.6965,-2.6965,-2.6965,-2.6965,-2.6783,-2.6965,-2.6965,-2.6965,-2.7135,-2.7292,-2.7292,-2.7643,-2.7643,-2.7812,-2.7981,-2.8136,-2.8136,-2.815,-2.815,-2.815,-2.815,-2.815,-2.8345,-2.8751,-2.9001,-2.9367,-3.0255,-3.1121,-3.1631,-3.2631,-3.3305,-3.3897,-3.4403,-3.4768,-3.4946,-3.608,-3.7063,-3.7525,-3.7845,-3.8163,-3.8481,-3.864,-3.864,-3.864,-3.864,-3.864,-3.864,-3.864,-3.864,-3.864,-3.864,-3.864,-3.864,-3.864,-3.864,-3.864,-3.864,-3.864,-3.864,-3.864,-3.864,-3.864,-3.864,-3.864,-3.864,-3.864,-3.864,-3.864,-3.864,-3.864,-3.864,-3.864,-3.864,-3.864,-3.864,-3.8956,-3.943,-3.9902,-4.0977,-4.2062,-4.2524,-4.3136,-4.4352,-4.5256,-4.5937,-4.6544,-4.6939,-4.7454,-4.7653,-4.7826,-4.778,-4.7809,-4.7693,-4.777,-4.7819,-4.8169,-4.8467,-4.8362,-4.8324,-4.8219,-4.8026,-4.7834,-4.7593,-4.7497,-4.7497,-4.7497,-4.7497,-4.7497,-4.7497,-4.7497,-4.763,-4.7894,-4.8313,-4.8706,-4.9072,-2.7135,-2.7487,-2.7474,-2.7304,-2.6965,-2.7304,-2.7474,-2.7474,-2.7812,-2.7981,-2.7968,-2.815,-2.815,-2.8136,-2.8136,-2.8136,-2.815,-2.815,-2.815,-2.815,-2.815,-2.815,-2.8595,-2.89,-2.9547,-3.0184,-3.1095,-3.1954,-3.2468,-3.3661,-3.434,-3.4983,-3.5691,-3.6106,-3.5517,-3.6258,-3.7063,-3.7863,-3.8076,-3.8395,-3.8554,-3.8731,-3.8731,-3.864,-3.864,-3.864,-3.864,-3.864,-3.864,-3.864,-3.864,-3.864,-3.864,-3.864,-3.864,-3.864,-3.864,-3.864,-3.864,-3.864,-3.864,-3.864,-3.864,-3.864,-3.864,-3.864,-3.864,-3.864,-3.864,-3.864,-3.864,-3.864,-3.864,-3.864,-3.864,-3.8956,-3.943,-3.9902,-4.0841,-4.2062,-4.2697,-4.3462,-4.4805,-4.6002,-4.6743,-4.731,-4.7626,-4.7895,-4.8118,-4.8217,-4.8102,-4.82,-4.8205,-4.8542,-4.8638,-4.9038,-4.9153,-4.9163,-4.8964,-4.8748,-4.8507,-4.8339,-4.805,-4.7666,-4.7617,-4.7714,-4.7617,-4.7497,-4.7497,-4.763,-4.7894,-4.8158,-4.8576,-4.8967,-4.9202,-2.7799,-2.7981,-2.7981,-2.7812,-2.7812,-2.7981,-2.7981,-2.7968,-2.8136,-2.815,-2.815,-2.815,-2.815,-2.815,-2.815,-2.815,-2.815,-2.815,-2.815,-2.815,-2.815,-2.8636,-2.8927,-2.9575,-3.0069,-3.0981,-3.1944,-3.2812,-3.333,-3.4517,-3.52,-3.5864,-3.6879,-3.7239,-3.7145,-3.748,-3.7844,-3.8689,-3.8743,-3.8883,-3.9025,-3.9025,-3.8915,-3.8695,-3.8676,-3.8676,-3.864,-3.864,-3.864,-3.864,-3.864,-3.864,-3.864,-3.864,-3.864,-3.864,-3.864,-3.864,-3.864,-3.864,-3.864,-3.864,-3.864,-3.864,-3.864,-3.864,-3.864,-3.864,-3.864,-3.864,-3.864,-3.864,-3.864,-3.864,-3.864,-3.9114,-3.9588,-3.9902,-4.0529,-4.1927,-4.2851,-4.405,-4.5405,-4.6299,-4.7038,-4.7648,-4.7941,-4.8086,-4.8331,-4.8331,-4.843,-4.8598,-4.884,-4.9224,-4.9463,-4.9582,-4.9698,-4.9619,-4.9517,-4.9349,-4.9109,-4.8868,-4.8531,-4.8171,-4.805,-4.7954,-4.7858,-4.7738,-4.7702,-4.7762,-4.8206,-4.8445,-4.8812,-4.9097,-4.9461,-2.815,-2.815,-2.815,-2.815,-2.815,-2.815,-2.815,-2.815,-2.815,-2.815,-2.815,-2.815,-2.815,-2.815,-2.815,-2.815,-2.815,-2.815,-2.815,-2.815,-2.8318,-2.8832,-2.9363,-3.0083,-3.0852,-3.1628,-3.2773,-3.3664,-3.4359,-3.5208,-3.624,-3.7045,-3.7875,-3.8345,-3.8452,-3.8536,-3.8725,-3.9177,-3.9358,-3.9447,-3.9447,-3.9392,-3.9245,-3.8988,-3.886,-3.8805,-3.8695,-3.864,-3.864,-3.864,-3.864,-3.864,-3.864,-3.864,-3.864,-3.864,-3.864,-3.864,-3.864,-3.864,-3.864,-3.864,-3.864,-3.864,-3.864,-3.864,-3.864,-3.864,-3.864,-3.864,-3.864,-3.864,-3.864,-3.864,-3.8798,-3.9114,-3.9588,-3.9902,-4.0685,-4.1907,-4.3289,-4.4504,-4.5853,-4.6596,-4.7332,-4.7794,-4.8255,-4.84,-4.84,-4.8546,-4.8691,-4.898,-4.9268,-4.9628,-4.989,-5.0175,-5.0125,-5.0191,-5.0022,-4.9878,-4.9614,-4.9325,-4.9012,-4.8724,-4.8579,-4.8411,-4.8195,-4.816,-4.8331,-4.8426,-4.8674,-4.8911,-4.9097,-4.9332,-4.959,-2.8123,-2.8123,-2.815,-2.8136,-2.8123,-2.8123,-2.815,-2.815,-2.815,-2.815,-2.815,-2.815,-2.815,-2.815,-2.815,-2.815,-2.8305,-2.8305,-2.8318,-2.8487,-2.8655,-2.9043,-2.9829,-3.0609,-3.1411,-3.2455,-3.358,-3.4576,-3.5542,-3.6329,-3.7208,-3.81,-3.868,-3.9155,-3.9281,-3.9515,-3.9558,-3.9906,-3.996,-3.9887,-3.9868,-3.985,-3.963,-3.9392,-3.9245,-3.9061,-3.8896,-3.875,-3.8695,-3.8676,-3.864,-3.864,-3.864,-3.864,-3.864,-3.864,-3.864,-3.864,-3.864,-3.864,-3.864,-3.864,-3.864,-3.864,-3.864,-3.864,-3.864,-3.864,-3.864,-3.864,-3.864,-3.864,-3.864,-3.864,-3.864,-3.9114,-3.9745,-4.0372,-4.1133,-4.2216,-4.3594,-4.4955,-4.6448,-4.7355,-4.7502,-4.8086,-4.84,-4.8546,-4.8691,-4.8835,-4.898,-4.9268,-4.9556,-4.9961,-5.0246,-5.0412,-5.0506,-5.0407,-5.0479,-5.0335,-5.007,-4.983,-4.9565,-4.9325,-4.9133,-4.8916,-4.8787,-4.8864,-4.9035,-4.9131,-4.9405,-4.9165,-4.9376,-4.9357,-4.959,-2.7829,-2.7843,-2.8056,-2.8016,-2.7869,-2.8056,-2.815,-2.815,-2.815,-2.815,-2.815,-2.815,-2.815,-2.815,-2.815,-2.815,-2.8305,-2.8473,-2.8655,-2.8824,-2.916,-2.9845,-3.0482,-3.1267,-3.2149,-3.3171,-3.4113,-3.505,-3.5748,-3.6773,-3.798,-3.8683,-3.9195,-3.9706,-4.0126,-4.0487,-4.0526,-4.0565,-4.0382,-4.0308,-4.029,-4.029,-4.0033,-3.9795,-3.9667,-3.9447,-3.9171,-3.9043,-3.8933,-3.8713,-3.8658,-3.864,-3.864,-3.864,-3.864,-3.864,-3.864,-3.864,-3.864,-3.864,-3.864,-3.864,-3.864,-3.864,-3.864,-3.864,-3.864,-3.864,-3.864,-3.864,-3.864,-3.864,-3.864,-3.864,-3.8798,-3.9272,-3.9902,-4.0685,-4.1443,-4.281,-4.405,-4.5405,-4.6913,-4.7502,-4.7794,-4.8255,-4.8546,-4.8691,-4.898,-4.9124,-4.9268,-4.9556,-4.9842,-5.027,-5.0412,-5.0554,-5.0696,-5.0672,-5.0696,-5.0672,-5.0503,-5.0263,-5.0119,-4.9878,-4.9589,-4.9463,-4.947,-4.9621,-4.9683,-5.0062,-5.0181,-4.9925,-4.9656,-4.9761,-4.9841,-2.7535,-2.7562,-2.7843,-2.7923,-2.7909,-2.807,-2.815,-2.815,-2.815,-2.815,-2.815,-2.815,-2.815,-2.815,-2.815,-2.8318,-2.8473,-2.8655,-2.8824,-2.916,-2.9663,-3.041,-3.1251,-3.2013,-3.2887,-3.3945,-3.4875,-3.5573,-3.6269,-3.7291,-3.8323,-3.8854,-3.9519,-3.9876,-4.0367,-4.0668,-4.1024,-4.0932,-4.084,-4.073,-4.0694,-4.0675,-4.0437,-4.018,-4.0088,-3.985,-3.9502,-3.9392,-3.9116,-3.886,-3.8786,-3.864,-3.864,-3.864,-3.864,-3.864,-3.864,-3.864,-3.864,-3.864,-3.864,-3.864,-3.864,-3.864,-3.864,-3.864,-3.864,-3.864,-3.864,-3.864,-3.864,-3.864,-3.864,-3.864,-3.8956,-3.943,-4.0059,-4.0841,-4.2062,-4.3269,-4.4633,-4.5853,-4.6891,-4.7479,-4.8086,-4.8546,-4.8835,-4.9124,-4.9412,-4.9556,-4.9675,-4.9818,-5.0128,-5.0412,-5.0554,-5.0696,-5.0696,-5.0696,-5.0696,-5.0696,-5.0696,-5.0648,-5.0431,-5.0215,-5.0022,-5.0084,-5.0239,-5.0181,-5.0381,-5.074,-5.1021,-5.0705,-5.0513,-5.0569,-5.0494,-2.7241,-2.7255,-2.7535,-2.7829,-2.8083,-2.8123,-2.815,-2.815,-2.815,-2.815,-2.815,-2.815,-2.815,-2.815,-2.8318,-2.8487,-2.8824,-2.8992,-2.9328,-2.9649,-3.0165,-3.1,-3.1719,-3.2513,-3.3517,-3.4626,-3.5399,-3.6096,-3.6946,-3.7808,-3.8683,-3.9025,-3.9536,-4.0046,-4.0554,-4.0892,-4.106,-4.1042,-4.1024,-4.0969,-4.1005,-4.0987,-4.0895,-4.0584,-4.0455,-4.0308,-3.9923,-3.9593,-3.93,-3.9135,-3.8951,-3.875,-3.8658,-3.864,-3.864,-3.864,-3.864,-3.864,-3.864,-3.864,-3.864,-3.864,-3.864,-3.864,-3.864,-3.864,-3.864,-3.864,-3.864,-3.864,-3.864,-3.864,-3.864,-3.8798,-3.9114,-3.9588,-4.0059,-4.1152,-4.2677,-4.3898,-4.5256,-4.6299,-4.7038,-4.7648,-4.8232,-4.8691,-4.9124,-4.9412,-4.9699,-4.9961,-5.0104,-5.0246,-5.0412,-5.0554,-5.0554,-5.0696,-5.0696,-5.0696,-5.0696,-5.0696,-5.0696,-5.0696,-5.0696,-5.0503,-5.0451,-5.0737,-5.0944,-5.0978,-5.1171,-5.1557,-5.1655,-5.1439,-5.1398,-5.1348,-5.1071,-2.6934,-2.6961,-2.7241,-2.7535,-2.7816,-2.8056,-2.8136,-2.815,-2.815,-2.815,-2.815,-2.815,-2.815,-2.8318,-2.8487,-2.8655,-2.8992,-2.9495,-2.9844,-3.0332,-3.0832,-3.1386,-3.2109,-3.3075,-3.4096,-3.4941,-3.5729,-3.66,-3.7464,-3.8323,-3.9025,-3.9536,-3.9876,-4.0385,-4.0892,-4.106,-4.106,-4.106,-4.106,-4.106,-4.106,-4.106,-4.0987,-4.0914,-4.0859,-4.0675,-4.0382,-4.0217,-3.974,-3.9355,-3.919,-3.8933,-3.8676,-3.8658,-3.864,-3.864,-3.864,-3.864,-3.864,-3.864,-3.864,-3.864,-3.864,-3.864,-3.864,-3.864,-3.864,-3.864,-3.864,-3.864,-3.864,-3.864,-3.864,-3.8956,-3.9272,-3.9588,-3.9902,-4.1598,-4.331,-4.4504,-4.5704,-4.6596,-4.7186,-4.7794,-4.84,-4.8835,-4.9245,-4.9532,-4.9985,-5.027,-5.0412,-5.0412,-5.0554,-5.0696,-5.0696,-5.0696,-5.0696,-5.0696,-5.0696,-5.0696,-5.0696,-5.0696,-5.0696,-5.0837,-5.093,-5.1095,-5.1516,-5.1861,-5.2128,-5.2279,-5.2341,-5.2176,-5.2251,-5.2277,-5.185,-2.6627,-2.6667,-2.6947,-2.7308,-2.7682,-2.7883,-2.8016,-2.8123,-2.815,-2.815,-2.815,-2.815,-2.8318,-2.8487,-2.8655,-2.916,-2.9495,-3.0165,-3.0499,-3.0998,-3.136,-3.2055,-3.2846,-3.3676,-3.4545,-3.5392,-3.6404,-3.7291,-3.798,-3.8494,-3.9195,-3.9706,-4.0216,-4.0572,-4.106,-4.106,-4.106,-4.106,-4.106,-4.106,-4.106,-4.106,-4.106,-4.106,-4.1024,-4.0895,-4.0785,-4.0602,-4.0217,-3.9722,-3.9465,-3.9025,-3.875,-3.864,-3.864,-3.864,-3.864,-3.864,-3.864,-3.864,-3.864,-3.864,-3.864,-3.864,-3.864,-3.864,-3.864,-3.864,-3.864,-3.864,-3.864,-3.864,-3.8798,-3.9114,-3.9588,-4.0059,-4.1133,-4.2677,-4.3898,-4.4955,-4.6002,-4.6913,-4.7648,-4.8232,-4.8835,-4.9245,-4.9509,-4.9818,-5.0246,-5.0412,-5.0554,-5.0696,-5.0696,-5.0696,-5.0696,-5.0696,-5.0696,-5.0696,-5.0696,-5.0696,-5.0696,-5.0696,-5.0696,-5.0837,-5.0978,-5.1376,-5.1656,-5.2238,-5.2515,-5.2641,-5.2666,-5.2829,-5.2929,-5.2929,-5.2528,-2.64,-2.6426,-2.6707,-2.7108,-2.7562,-2.7682,-2.7843,-2.8056,-2.8123,-2.815,-2.8136,-2.8318,-2.8487,-2.8655,-2.8992,-2.9495,-3.0165,-3.0665,-3.115,-3.1497,-3.2159,-3.2643,-3.3422,-3.4318,-3.5241,-3.6126,-3.7141,-3.7774,-3.8323,-3.9025,-3.9366,-3.9876,-4.0216,-4.0723,-4.106,-4.106,-4.106,-4.106,-4.106,-4.106,-4.106,-4.106,-4.106,-4.106,-4.106,-4.106,-4.095,-4.0804,-4.0565,-4.0125,-3.9648,-3.9116,-3.8786,-3.864,-3.864,-3.864,-3.864,-3.864,-3.864,-3.864,-3.864,-3.864,-3.864,-3.864,-3.864,-3.864,-3.864,-3.864,-3.864,-3.864,-3.864,-3.864,-3.8956,-3.9272,-3.9902,-4.0685,-4.2062,-4.3442,-4.4352,-4.5405,-4.6299,-4.7208,-4.7941,-4.8546,-4.8957,-4.9509,-4.9795,-5.0246,-5.0554,-5.0554,-5.0696,-5.0696,-5.0696,-5.0696,-5.0696,-5.0696,-5.0696,-5.0696,-5.0696,-5.0696,-5.0696,-5.0696,-5.0696,-5.0837,-5.1119,-5.1516,-5.1796,-5.2377,-5.2654,-5.2792,-5.2929,-5.2929,-5.2929,-5.2929,-5.2929,-2.64,-2.6413,-2.6707,-2.6894,-2.7068,-2.7482,-2.7736,-2.7816,-2.8043,-2.815,-2.8305,-2.8487,-2.8824,-2.8824,-2.9146,-2.983,-3.0332,-3.0984,-3.1316,-3.1647,-3.2654,-3.3211,-3.3944,-3.4941,-3.622,-3.7129,-3.7912,-3.8306,-3.8837,-3.9348,-3.9706,-4.0216,-4.0723,-4.0892,-4.106,-4.106,-4.106,-4.106,-4.106,-4.106,-4.106,-4.106,-4.106,-4.106,-4.106,-4.106,-4.1024,-4.1005,-4.0767,-4.0327,-3.974,-3.9171,-3.8823,-3.8676,-3.864,-3.864,-3.864,-3.864,-3.864,-3.864,-3.864,-3.864,-3.864,-3.864,-3.864,-3.864,-3.864,-3.864,-3.864,-3.864,-3.864,-3.864,-3.8798,-3.9588,-4.0216,-4.1308,-4.2697,-4.3594,-4.4654,-4.5555,-4.6596,-4.7355,-4.7941,-4.8546,-4.9101,-4.9532,-4.9938,-5.0246,-5.0554,-5.0696,-5.0696,-5.0696,-5.0696,-5.0696,-5.0696,-5.0696,-5.0696,-5.0696,-5.0696,-5.0696,-5.0696,-5.0696,-5.0837,-5.0978,-5.1401,-5.1796,-5.2099,-5.2515,-5.2654,-5.2929,-5.2929,-5.2929,-5.2929,-5.2929,-5.2929]},{"header":{"parameterUnit":"m.s-1","parameterCategory":1,"la1":31.0,"la2":29.5877,"lo1":-88.7671,"lo2":-86.6584,"dy":0.0162,"dx":0.0185,"nx":115,"ny":88,"refTime":"2023-06-17T06:00:00:Z","depth":0,"parameterNumber":3,"parameterNumberName":"V-component_of_WINDS"},"data":[0.0,0.0,0.0,0.0,0.0,0.0,0.0,0.0,0.0,0.0,0.0,0.0,0.0,0.0,0.0,0.0,0.0,0.0,0.0,0.0,0.0,0.0,0.0,0.0,0.0,0.0,0.0,0.0,0.0,0.0,0.0,0.0,0.0,0.0,0.0,0.0,0.0,0.0,0.0,0.0,0.0,0.0,0.0,0.0,0.0,0.0,0.0,0.0,0.0,0.0,0.0,0.0,0.0,0.0,0.0,0.0,0.0,0.0,0.0,0.0,0.0,0.0,0.0,0.0,0.0,0.0,0.0,0.0,0.0,0.0,0.0,0.0,0.0,0.0,0.0,0.0,0.0,0.0,0.0,0.0,0.0,0.0,0.0,0.0,0.0,0.0,0.0,0.0,0.0,0.0,0.0,0.0,0.0,0.0,0.0,0.0,0.0,0.0,0.0,0.0,0.0,0.0,0.0,0.0,0.0,0.0,0.0,0.0,0.0,0.0,0.0,0.0,0.0,0.0,0.0,0.0,0.0,0.0,0.0,0.0,0.0,0.0,0.0,0.0,0.0,0.0,0.0,0.0,0.0,0.0,0.0,0.0,0.0,0.0,0.0,0.0,0.0,0.0,0.0,0.0,0.0,0.0,0.0,0.0,0.0,0.0,0.0,0.0,0.0,0.0,0.0,0.0,0.0,0.0,0.0,0.0,0.0,0.0,0.0,0.0,0.0,0.0,0.0,0.0,0.0,0.0,0.0,0.0,0.0,0.0,0.0,0.0,0.0,0.0,0.0,0.0,0.0,0.0,0.0,0.0,0.0,0.0,0.0,0.0,0.0,0.0,0.0,0.0,0.0,0.0,0.0,0.0,0.0,0.0,0.0,0.0,0.0,0.0,0.0,0.0,0.0,0.0,0.0,0.0,0.0,0.0,0.0,0.0,0.0,0.0,0.0,0.0,0.0,0.0,0.0,0.0,0.0,0.0,0.0,0.0,0.0,0.0,0.0,0.0,0.0,0.0,0.0,0.0,0.0,0.0,0.0,0.0,0.0,0.0,0.0,0.0,0.0,0.0,0.0,0.0,0.0,0.0,0.0,0.0,0.0,0.0,0.0,0.0,0.0,0.0,0.0,0.0,0.0,0.0,0.0,0.0,0.0,0.0,0.0,0.0,0.0,0.0,0.0,0.0,0.0,0.0,0.0,0.0,0.0,0.0,0.0,0.0,0.0,0.0,0.0,0.0,0.0,0.0,0.0,0.0,0.0,0.0,0.0,0.0,0.0,0.0,0.0,0.0,0.0,0.0,0.0,0.0,0.0,0.0,0.0,0.0,0.0,0.0,0.0,0.0,0.0,0.0,0.0,0.0,0.0,0.0,0.0,0.0,0.0,0.0,0.0,0.0,0.0,0.0,0.0,0.0,0.0,0.0,0.0,0.0,0.0,0.0,0.0,0.0,0.0,0.0,0.0,0.0,0.0,0.0,0.0,0.0,0.0,0.0,0.0,0.0,0.0,0.0,0.0,0.0,0.0,0.0,0.0,0.0,0.0,0.0,0.0,0.0,0.0,0.0,0.0,0.0,0.0,0.0,0.0,0.0,0.0,0.0,0.0,0.0,0.0,0.0,0.0,0.0,0.0,0.0,0.0,0.0,0.0,0.0,0.0,0.0,0.0,0.0,0.0,0.0,0.0,0.0,0.0,0.0,0.0,0.0,0.0,0.0,0.0,0.0,0.0,0.0,0.0,0.0,0.0,0.0,0.0,0.0,0.0,0.0,0.0,0.0,0.0,0.0,0.0,0.0,0.0,0.0,0.0,0.0,0.0,0.0,0.0,0.0,0.0,0.0,0.0,0.0,0.0,0.0,0.0,0.0,0.0,0.0,0.0,0.0,0.0,0.0,0.0,0.0,0.0,0.0,0.0,0.0,0.0,0.0,0.0,0.0,0.0,0.0,0.0,0.0,0.0,0.0,0.0,0.0,0.0,0.0,0.0,0.0,0.0,0.0,0.0,0.0,0.0,0.0,0.0,0.0,0.0,0.0,0.0,0.0,0.0,0.0,0.0,0.0,0.0,0.0,0.0,0.0,0.0,0.0,0.0,0.0,0.0,0.0,0.0,0.0,0.0,0.0,0.0,0.0,0.0,0.0,0.0,0.0,0.0,0.0,0.0,0.0,0.0,0.0,0.0,0.0,0.0,0.0,0.0,0.0,0.0,0.0,0.0,0.0,0.0,0.0,0.0,0.0,0.0,0.0,0.0,0.0,0.0,0.0,0.0,0.0,0.0,0.0,0.0,0.0,0.0,0.0,0.0,0.0,0.0,0.0,0.0,0.0,0.0,0.0,0.0,0.0,0.0,0.0,0.0,0.0,0.0,0.0,0.0,0.0,0.0,0.0,0.0,0.0,0.0,0.0,0.0,0.0,0.0,0.0,0.0,0.0,0.0,0.0,0.0,0.0,0.0,0.0,0.0,0.0,0.0,0.0,0.0,0.0,0.0,0.0,0.0,0.0,0.0,0.0,0.0,0.0,0.0,0.0,0.0,0.0,0.0,0.0,0.0,0.0,0.0,0.0,0.0,0.0,0.0,0.0,0.0,0.0,0.0,0.0,0.0,0.0,0.0,0.0,0.0,0.0,0.0,0.0,0.0,0.0,0.0,0.0,0.0,0.0,0.0,0.0,0.0,0.0,0.0,0.0,0.0,0.0,0.0,0.0,0.0,0.0,0.0,0.0,0.0,0.0,0.0,0.0,0.0,0.0,0.0,0.0,0.0,0.0,0.0,0.0,0.0,0.0,0.0,0.0,0.0,0.0,0.0,0.0,0.0,0.0,0.0,0.0,0.0,0.0,0.0,0.0,0.0,0.0,0.0,0.0,0.0,0.0,0.0,0.0,0.0,0.0,0.0,0.0,0.0,0.0,0.0,0.0,0.0,0.0,0.0,0.0,0.0,0.0,0.0,0.0,0.0,0.0,0.0,0.0,0.0,0.0,0.0,0.0,0.0,0.0,0.0,0.0,0.0,0.0,0.0,0.0,0.0,0.0,0.0,0.0,0.0,0.0,0.0,0.0,0.0,0.0,0.0,0.0,0.0,0.0,0.0,0.0,0.0,0.0,0.0,0.0,0.0,0.0,0.0,0.0,0.0,0.0,0.0,0.0,0.0,0.0,0.0,0.0,0.0,0.0,0.0,0.0,0.0,0.0,0.0,0.0,0.0,0.0,0.0,0.0,0.0,0.0,0.0,0.0,0.0,0.0,0.0,0.0,0.0,0.0,0.0,0.0,0.0,0.0,0.0,0.0,0.0,0.0,0.0,0.0,0.0,0.0,0.0,0.0,0.0,0.0,0.0,0.0,0.0,0.0,0.0,0.0,0.0,0.0,0.0,0.0,0.0,0.0,0.0,0.0,0.0,0.0,0.0,0.0,0.0,0.0,0.0,0.0,0.0,0.0,0.0,0.0,0.0,0.0,0.0,0.0,0.0,0.0,0.0,0.0,0.0,0.0,0.0,0.0,0.0,0.0,0.0,0.0,0.0,0.0,0.0,0.0,0.0,0.0,0.0,0.0,0.0,0.0,0.0,0.0,0.0,0.0,0.0,0.0,0.0,0.0,0.0,0.0,0.0,0.0,0.0,0.0,0.0,0.0,0.0,0.0,0.0,0.0,0.0,0.0,0.0,0.0,0.0,0.0,0.0,0.0,0.0,0.0,0.0,0.0,0.0,0.0,0.0,0.0,0.0,0.0,0.0,0.0,0.0,0.0,0.0,0.0,0.0,0.0,0.0,0.0,0.0,0.0,0.0,0.0,0.0,0.0,0.0,0.0,0.0,0.0,0.0,0.0,0.0,0.0,0.0,0.0,0.0,0.0,0.0,0.0,0.0,0.0,0.0,0.0,0.0,0.0,0.0,0.0,0.0,0.0,0.0,0.0,0.0,0.0,0.0,0.0,0.0,0.0,0.0,0.0,0.0,0.0,0.0,0.0,0.0,0.0,0.0,0.0,0.0,0.0,0.0,0.0,0.0,0.0,0.0,0.0,0.0,0.0,0.0,0.0,0.0,0.0,0.0,0.0,0.0,0.0,0.0,0.0,0.0,0.0,0.0,0.0,0.0,0.0,0.0,0.0,0.0,0.0,0.0,0.0,0.0,0.0,0.0,0.0,0.0,0.0,0.0,0.0,0.0,0.0,0.0,0.0,0.0,0.0,0.0,0.0,0.0,0.0,0.0,0.0,0.0,0.0,0.0,0.0,0.0,0.0,0.0,0.0,0.0,0.0,0.0,0.0,0.0,0.0,0.0,0.0,-3.9342,0.0,0.0,0.0,0.0,0.0,0.0,0.0,0.0,0.0,0.0,0.0,0.0,0.0,0.0,0.0,0.0,0.0,0.0,0.0,0.0,0.0,0.0,0.0,0.0,0.0,0.0,0.0,0.0,0.0,0.0,0.0,0.0,0.0,0.0,0.0,0.0,0.0,0.0,0.0,0.0,0.0,0.0,0.0,0.0,0.0,0.0,0.0,0.0,0.0,0.0,0.0,0.0,0.0,0.0,0.0,0.0,0.0,0.0,0.0,0.0,0.0,0.0,0.0,0.0,0.0,0.0,0.0,0.0,0.0,0.0,0.0,0.0,0.0,0.0,0.0,0.0,0.0,0.0,0.0,0.0,0.0,0.0,0.0,0.0,0.0,0.0,0.0,0.0,0.0,0.0,0.0,0.0,0.0,0.0,0.0,0.0,0.0,0.0,0.0,0.0,0.0,0.0,0.0,0.0,0.0,0.0,0.0,0.0,0.0,0.0,-4.0534,-4.0238,-4.0087,-3.9884,-3.9625,0.0,0.0,0.0,0.0,0.0,0.0,0.0,0.0,0.0,0.0,0.0,0.0,0.0,0.0,0.0,0.0,0.0,0.0,0.0,0.0,0.0,0.0,0.0,0.0,0.0,0.0,0.0,0.0,0.0,0.0,0.0,0.0,0.0,0.0,0.0,0.0,0.0,0.0,0.0,0.0,0.0,0.0,0.0,0.0,0.0,0.0,0.0,0.0,0.0,0.0,0.0,0.0,0.0,0.0,0.0,0.0,0.0,0.0,0.0,0.0,0.0,0.0,0.0,0.0,0.0,0.0,0.0,0.0,0.0,0.0,0.0,0.0,0.0,0.0,0.0,0.0,0.0,0.0,0.0,0.0,0.0,0.0,0.0,0.0,0.0,0.0,0.0,0.0,0.0,0.0,0.0,0.0,0.0,0.0,0.0,0.0,0.0,0.0,0.0,0.0,0.0,0.0,0.0,0.0,0.0,0.0,0.0,0.0,0.0,0.0,0.0,0.0,-4.0288,-4.0138,-3.9935,0.0,0.0,0.0,0.0,0.0,0.0,0.0,0.0,0.0,0.0,0.0,0.0,0.0,0.0,0.0,0.0,0.0,0.0,0.0,0.0,0.0,0.0,0.0,0.0,0.0,0.0,0.0,0.0,0.0,0.0,0.0,0.0,0.0,0.0,0.0,0.0,0.0,0.0,0.0,0.0,0.0,0.0,0.0,0.0,0.0,0.0,0.0,0.0,0.0,0.0,0.0,0.0,0.0,0.0,0.0,0.0,0.0,0.0,0.0,0.0,0.0,0.0,0.0,0.0,0.0,0.0,0.0,0.0,0.0,0.0,0.0,0.0,0.0,0.0,0.0,0.0,0.0,0.0,0.0,0.0,0.0,0.0,0.0,0.0,0.0,0.0,0.0,0.0,0.0,0.0,0.0,0.0,0.0,0.0,0.0,0.0,0.0,0.0,0.0,0.0,0.0,0.0,0.0,0.0,0.0,0.0,0.0,0.0,0.0,0.0,-4.0905,-4.0823,-4.0583,0.0,-4.0087,0.0,0.0,0.0,0.0,0.0,0.0,0.0,0.0,0.0,0.0,0.0,0.0,0.0,0.0,0.0,0.0,0.0,0.0,0.0,0.0,0.0,0.0,0.0,0.0,0.0,0.0,0.0,0.0,0.0,0.0,0.0,0.0,0.0,0.0,0.0,0.0,0.0,0.0,0.0,0.0,0.0,0.0,0.0,0.0,0.0,0.0,0.0,0.0,0.0,0.0,0.0,0.0,0.0,0.0,0.0,0.0,0.0,0.0,0.0,0.0,0.0,0.0,0.0,0.0,0.0,0.0,0.0,0.0,0.0,0.0,0.0,0.0,0.0,0.0,0.0,0.0,0.0,0.0,0.0,0.0,0.0,0.0,0.0,0.0,0.0,0.0,0.0,0.0,0.0,0.0,0.0,0.0,0.0,0.0,0.0,0.0,0.0,0.0,0.0,0.0,0.0,0.0,0.0,0.0,0.0,0.0,0.0,0.0,0.0,0.0,-4.1198,-4.1047,-4.0762,-4.0485,0.0,0.0,0.0,0.0,0.0,0.0,0.0,0.0,0.0,0.0,0.0,0.0,0.0,0.0,0.0,0.0,0.0,0.0,0.0,0.0,0.0,0.0,0.0,0.0,0.0,0.0,0.0,0.0,0.0,0.0,0.0,0.0,0.0,0.0,0.0,0.0,0.0,0.0,0.0,0.0,0.0,0.0,0.0,0.0,0.0,0.0,0.0,0.0,0.0,0.0,0.0,0.0,0.0,0.0,0.0,0.0,0.0,0.0,0.0,0.0,0.0,0.0,0.0,0.0,0.0,0.0,0.0,0.0,0.0,0.0,0.0,0.0,0.0,0.0,0.0,0.0,0.0,0.0,0.0,0.0,0.0,0.0,0.0,0.0,0.0,0.0,0.0,0.0,0.0,0.0,0.0,0.0,0.0,0.0,0.0,0.0,0.0,0.0,0.0,0.0,0.0,0.0,0.0,0.0,0.0,0.0,0.0,0.0,0.0,0.0,-4.1648,-4.1426,-4.114,-4.0871,-4.0631,-4.0519,0.0,0.0,0.0,0.0,0.0,0.0,0.0,0.0,0.0,0.0,0.0,0.0,0.0,0.0,0.0,0.0,0.0,0.0,0.0,0.0,0.0,0.0,0.0,0.0,0.0,0.0,0.0,0.0,0.0,0.0,0.0,0.0,0.0,0.0,0.0,0.0,0.0,0.0,0.0,0.0,0.0,0.0,0.0,0.0,0.0,0.0,0.0,0.0,0.0,0.0,0.0,0.0,0.0,0.0,0.0,0.0,0.0,0.0,0.0,0.0,0.0,0.0,0.0,0.0,0.0,0.0,0.0,0.0,0.0,0.0,0.0,0.0,0.0,0.0,0.0,0.0,0.0,0.0,0.0,0.0,0.0,0.0,0.0,0.0,0.0,0.0,0.0,0.0,0.0,0.0,0.0,0.0,0.0,0.0,0.0,0.0,0.0,0.0,0.0,0.0,0.0,0.0,0.0,0.0,0.0,0.0,0.0,0.0,-4.2079,-4.178,-4.1471,-4.1209,-4.1012,-4.0871,0.0,0.0,0.0,0.0,0.0,0.0,0.0,0.0,0.0,0.0,0.0,0.0,0.0,0.0,0.0,0.0,0.0,0.0,0.0,0.0,0.0,0.0,0.0,0.0,0.0,0.0,0.0,0.0,0.0,0.0,0.0,0.0,0.0,0.0,0.0,0.0,0.0,0.0,0.0,0.0,0.0,0.0,0.0,0.0,0.0,0.0,0.0,0.0,0.0,0.0,0.0,0.0,0.0,0.0,0.0,0.0,0.0,0.0,0.0,0.0,0.0,0.0,0.0,0.0,0.0,0.0,0.0,0.0,0.0,0.0,0.0,0.0,0.0,0.0,0.0,0.0,0.0,0.0,0.0,0.0,0.0,0.0,0.0,0.0,0.0,0.0,0.0,0.0,0.0,0.0,0.0,0.0,0.0,0.0,0.0,0.0,0.0,0.0,0.0,0.0,0.0,0.0,0.0,0.0,0.0,0.0,0.0,0.0,0.0,-4.2246,-4.1952,-4.1692,-4.1471,-4.138,-4.129,0.0,0.0,0.0,0.0,0.0,0.0,0.0,0.0,0.0,0.0,0.0,0.0,0.0,0.0,0.0,0.0,0.0,0.0,0.0,0.0,0.0,0.0,0.0,0.0,0.0,0.0,0.0,0.0,0.0,0.0,0.0,0.0,0.0,0.0,0.0,0.0,0.0,0.0,0.0,0.0,0.0,0.0,0.0,0.0,0.0,0.0,0.0,0.0,0.0,0.0,0.0,0.0,0.0,0.0,0.0,0.0,0.0,0.0,0.0,0.0,0.0,0.0,0.0,0.0,0.0,0.0,0.0,0.0,0.0,0.0,0.0,0.0,0.0,0.0,0.0,0.0,0.0,0.0,0.0,0.0,0.0,0.0,0.0,0.0,0.0,0.0,0.0,0.0,0.0,0.0,0.0,0.0,0.0,0.0,0.0,0.0,0.0,0.0,0.0,0.0,0.0,0.0,0.0,0.0,0.0,0.0,0.0,0.0,0.0,-4.2369,0.0,-4.1987,0.0,-4.1692,-4.156,0.0,0.0,0.0,0.0,0.0,0.0,0.0,0.0,0.0,0.0,0.0,0.0,0.0,0.0,0.0,0.0,0.0,0.0,0.0,0.0,0.0,0.0,0.0,0.0,0.0,0.0,0.0,0.0,0.0,0.0,0.0,0.0,0.0,0.0,0.0,0.0,0.0,0.0,0.0,0.0,0.0,0.0,0.0,0.0,0.0,0.0,0.0,0.0,0.0,0.0,0.0,0.0,0.0,0.0,0.0,0.0,0.0,0.0,0.0,0.0,0.0,0.0,0.0,0.0,0.0,0.0,0.0,0.0,0.0,0.0,0.0,0.0,0.0,0.0,0.0,0.0,0.0,0.0,0.0,0.0,0.0,0.0,0.0,0.0,0.0,0.0,0.0,0.0,0.0,0.0,0.0,0.0,0.0,0.0,0.0,0.0,0.0,0.0,0.0,0.0,0.0,0.0,0.0,0.0,0.0,0.0,0.0,0.0,-4.2765,-4.245,-4.2405,-4.2282,-4.2121,-4.1945,-4.1736,0.0,0.0,0.0,0.0,0.0,0.0,0.0,0.0,0.0,0.0,0.0,0.0,0.0,0.0,0.0,0.0,0.0,0.0,0.0,0.0,0.0,0.0,0.0,0.0,0.0,0.0,0.0,0.0,0.0,0.0,0.0,0.0,0.0,0.0,0.0,0.0,0.0,0.0,0.0,0.0,0.0,0.0,0.0,0.0,0.0,0.0,0.0,0.0,0.0,0.0,0.0,0.0,0.0,0.0,0.0,0.0,0.0,0.0,0.0,0.0,0.0,0.0,0.0,0.0,0.0,0.0,0.0,0.0,0.0,0.0,0.0,0.0,0.0,0.0,0.0,0.0,0.0,0.0,0.0,0.0,0.0,0.0,0.0,0.0,0.0,0.0,0.0,0.0,0.0,0.0,0.0,0.0,0.0,0.0,0.0,0.0,0.0,0.0,0.0,0.0,0.0,0.0,0.0,0.0,0.0,0.0,0.0,0.0,0.0,-4.2804,-4.3228,-4.3104,-4.2364,-4.2739,-4.2612,0.0,0.0,0.0,0.0,0.0,0.0,0.0,0.0,0.0,0.0,0.0,0.0,0.0,0.0,0.0,0.0,0.0,0.0,0.0,0.0,0.0,0.0,0.0,0.0,0.0,0.0,0.0,0.0,0.0,0.0,0.0,0.0,0.0,0.0,0.0,0.0,0.0,0.0,0.0,0.0,0.0,0.0,0.0,0.0,0.0,0.0,0.0,0.0,0.0,0.0,0.0,0.0,0.0,0.0,0.0,0.0,0.0,0.0,0.0,0.0,0.0,0.0,0.0,0.0,0.0,0.0,0.0,0.0,0.0,0.0,0.0,0.0,0.0,0.0,0.0,0.0,0.0,0.0,0.0,0.0,0.0,0.0,0.0,0.0,0.0,0.0,0.0,0.0,0.0,0.0,0.0,0.0,0.0,0.0,0.0,0.0,0.0,0.0,0.0,0.0,0.0,0.0,0.0,0.0,0.0,0.0,0.0,0.0,0.0,-4.4126,-4.4372,-4.4213,-4.3472,-4.3894,-4.3805,-4.3095,0.0,0.0,0.0,0.0,0.0,0.0,0.0,0.0,0.0,0.0,0.0,0.0,0.0,0.0,0.0,0.0,0.0,0.0,0.0,0.0,0.0,0.0,0.0,0.0,0.0,0.0,0.0,0.0,0.0,0.0,0.0,0.0,0.0,0.0,0.0,0.0,0.0,0.0,0.0,0.0,0.0,0.0,0.0,0.0,0.0,0.0,0.0,0.0,0.0,0.0,0.0,0.0,0.0,0.0,0.0,0.0,0.0,0.0,0.0,0.0,0.0,0.0,0.0,0.0,0.0,0.0,0.0,0.0,0.0,0.0,0.0,0.0,0.0,0.0,0.0,0.0,0.0,0.0,0.0,0.0,0.0,0.0,0.0,0.0,0.0,0.0,0.0,0.0,0.0,0.0,0.0,0.0,0.0,0.0,0.0,0.0,0.0,0.0,0.0,0.0,0.0,0.0,0.0,0.0,0.0,0.0,0.0,0.0,-4.6067,-4.5807,-4.5539,-4.5273,-4.5265,-4.5101,0.0,0.0,0.0,0.0,0.0,0.0,0.0,0.0,0.0,0.0,0.0,0.0,0.0,0.0,0.0,0.0,0.0,0.0,0.0,0.0,0.0,0.0,0.0,0.0,0.0,0.0,0.0,0.0,0.0,0.0,0.0,0.0,0.0,0.0,0.0,0.0,0.0,0.0,0.0,0.0,0.0,0.0,0.0,0.0,0.0,0.0,0.0,0.0,0.0,0.0,0.0,0.0,0.0,0.0,0.0,0.0,0.0,0.0,0.0,0.0,0.0,0.0,0.0,0.0,0.0,0.0,0.0,0.0,0.0,0.0,0.0,0.0,0.0,0.0,0.0,0.0,0.0,0.0,0.0,0.0,0.0,0.0,0.0,0.0,0.0,0.0,0.0,0.0,0.0,0.0,0.0,0.0,0.0,0.0,0.0,0.0,0.0,0.0,0.0,0.0,0.0,0.0,0.0,0.0,0.0,0.0,0.0,0.0,0.0,-4.7868,-4.7795,-4.7057,-4.5581,-4.6048,-4.5965,0.0,0.0,0.0,0.0,0.0,0.0,0.0,0.0,0.0,0.0,0.0,0.0,0.0,0.0,0.0,0.0,0.0,0.0,0.0,0.0,0.0,0.0,0.0,0.0,0.0,0.0,0.0,0.0,0.0,0.0,0.0,0.0,0.0,0.0,0.0,0.0,0.0,0.0,0.0,0.0,0.0,0.0,0.0,0.0,0.0,0.0,0.0,0.0,0.0,0.0,0.0,0.0,0.0,0.0,0.0,0.0,0.0,0.0,0.0,0.0,0.0,0.0,0.0,0.0,0.0,0.0,0.0,0.0,0.0,0.0,0.0,0.0,0.0,0.0,0.0,0.0,0.0,0.0,0.0,0.0,0.0,0.0,0.0,0.0,0.0,0.0,0.0,0.0,0.0,0.0,0.0,0.0,0.0,0.0,0.0,0.0,0.0,0.0,0.0,0.0,0.0,0.0,0.0,0.0,0.0,0.0,0.0,0.0,-4.8787,-4.8678,-4.9011,-4.8458,-4.691,-4.7161,-4.7077,0.0,0.0,0.0,0.0,0.0,0.0,0.0,0.0,0.0,0.0,0.0,0.0,0.0,0.0,0.0,0.0,0.0,0.0,0.0,0.0,0.0,0.0,0.0,0.0,0.0,0.0,0.0,0.0,0.0,0.0,0.0,0.0,0.0,0.0,0.0,0.0,0.0,0.0,0.0,0.0,0.0,0.0,0.0,0.0,0.0,0.0,0.0,0.0,0.0,0.0,0.0,0.0,0.0,0.0,0.0,0.0,0.0,0.0,0.0,0.0,0.0,0.0,0.0,0.0,0.0,0.0,0.0,0.0,0.0,0.0,0.0,0.0,0.0,0.0,0.0,0.0,0.0,0.0,0.0,0.0,0.0,0.0,0.0,0.0,0.0,0.0,0.0,0.0,0.0,0.0,0.0,0.0,0.0,0.0,0.0,0.0,0.0,0.0,0.0,0.0,0.0,0.0,0.0,0.0,0.0,0.0,0.0,0.0,-4.9115,-4.9119,-4.9786,-4.975,-4.8901,-4.8567,-4.8263,0.0,0.0,0.0,0.0,0.0,0.0,0.0,0.0,0.0,0.0,0.0,0.0,0.0,0.0,0.0,0.0,0.0,0.0,0.0,0.0,0.0,0.0,0.0,0.0,0.0,0.0,0.0,0.0,0.0,0.0,0.0,0.0,0.0,0.0,0.0,0.0,0.0,0.0,0.0,0.0,0.0,0.0,0.0,0.0,0.0,0.0,0.0,0.0,0.0,0.0,0.0,0.0,0.0,0.0,0.0,0.0,0.0,0.0,0.0,0.0,0.0,0.0,0.0,0.0,0.0,0.0,0.0,0.0,0.0,0.0,0.0,0.0,0.0,0.0,0.0,0.0,0.0,0.0,0.0,0.0,0.0,0.0,0.0,0.0,0.0,0.0,0.0,0.0,0.0,0.0,0.0,0.0,0.0,0.0,0.0,0.0,0.0,0.0,0.0,0.0,0.0,0.0,0.0,0.0,0.0,0.0,0.0,0.0,-5.0859,-5.0823,-5.1009,-5.0972,-5.0639,-4.9823,-4.9005,0.0,0.0,0.0,0.0,0.0,0.0,0.0,0.0,0.0,0.0,0.0,0.0,0.0,0.0,0.0,0.0,0.0,0.0,0.0,0.0,0.0,0.0,0.0,0.0,0.0,0.0,0.0,0.0,0.0,0.0,0.0,0.0,0.0,0.0,0.0,0.0,0.0,0.0,0.0,0.0,0.0,0.0,0.0,0.0,0.0,0.0,0.0,0.0,-3.4819,0.0,0.0,0.0,0.0,0.0,0.0,0.0,0.0,0.0,0.0,0.0,0.0,0.0,0.0,0.0,0.0,0.0,0.0,0.0,0.0,0.0,0.0,0.0,0.0,0.0,0.0,0.0,0.0,0.0,0.0,0.0,0.0,0.0,0.0,0.0,0.0,0.0,0.0,0.0,0.0,0.0,0.0,0.0,0.0,0.0,0.0,0.0,0.0,0.0,0.0,0.0,0.0,0.0,0.0,0.0,0.0,0.0,0.0,0.0,-5.1379,-5.1416,-5.1788,-5.1751,-5.1343,-5.1119,-5.0523,0.0,0.0,0.0,0.0,0.0,0.0,0.0,0.0,0.0,0.0,0.0,0.0,0.0,0.0,0.0,0.0,0.0,0.0,0.0,0.0,0.0,0.0,0.0,0.0,0.0,0.0,0.0,0.0,0.0,0.0,0.0,0.0,0.0,0.0,0.0,0.0,0.0,0.0,0.0,0.0,0.0,0.0,0.0,0.0,0.0,0.0,0.0,0.0,0.0,0.0,0.0,0.0,0.0,0.0,0.0,0.0,0.0,0.0,0.0,0.0,0.0,0.0,0.0,0.0,0.0,0.0,0.0,0.0,0.0,0.0,0.0,0.0,0.0,0.0,0.0,0.0,0.0,0.0,0.0,0.0,0.0,0.0,0.0,0.0,0.0,0.0,0.0,0.0,0.0,0.0,0.0,0.0,0.0,0.0,0.0,0.0,0.0,0.0,0.0,0.0,0.0,0.0,0.0,0.0,0.0,0.0,0.0,-5.1714,-5.1751,-5.1788,-5.2419,-5.2457,-5.1788,-5.2382,-5.2268,-5.1372,0.0,0.0,0.0,0.0,0.0,0.0,0.0,0.0,0.0,0.0,0.0,0.0,0.0,0.0,0.0,0.0,0.0,0.0,0.0,0.0,0.0,0.0,0.0,0.0,0.0,0.0,0.0,0.0,0.0,0.0,0.0,0.0,0.0,0.0,0.0,0.0,0.0,0.0,-3.549,-3.5752,0.0,0.0,0.0,0.0,0.0,0.0,0.0,0.0,-3.6586,0.0,0.0,0.0,0.0,0.0,0.0,0.0,0.0,0.0,0.0,0.0,0.0,0.0,0.0,0.0,0.0,0.0,0.0,0.0,0.0,0.0,0.0,0.0,0.0,0.0,0.0,0.0,0.0,0.0,0.0,0.0,0.0,0.0,0.0,0.0,0.0,0.0,0.0,0.0,0.0,0.0,0.0,0.0,0.0,0.0,0.0,0.0,0.0,0.0,0.0,0.0,0.0,0.0,0.0,0.0,0.0,-5.2382,-5.3088,-5.3423,-5.3423,-5.3534,-5.3534,-5.3423,-5.3496,-5.3495,-5.3193,0.0,0.0,0.0,0.0,0.0,0.0,0.0,0.0,0.0,0.0,0.0,0.0,0.0,0.0,0.0,0.0,0.0,0.0,0.0,0.0,0.0,0.0,0.0,0.0,0.0,0.0,0.0,0.0,0.0,0.0,0.0,0.0,0.0,0.0,0.0,0.0,0.0,0.0,0.0,-3.7226,-3.7335,0.0,0.0,0.0,0.0,0.0,0.0,0.0,0.0,-3.8219,0.0,0.0,0.0,0.0,0.0,0.0,0.0,0.0,0.0,0.0,0.0,0.0,0.0,0.0,0.0,0.0,0.0,0.0,0.0,0.0,0.0,0.0,0.0,0.0,0.0,0.0,0.0,0.0,0.0,0.0,0.0,0.0,0.0,0.0,0.0,0.0,0.0,0.0,0.0,0.0,0.0,0.0,0.0,0.0,0.0,0.0,0.0,0.0,0.0,0.0,0.0,0.0,0.0,0.0,0.0,-5.3237,-5.3608,-5.3794,-5.3794,-5.3794,-5.3794,-5.3794,-5.3794,-5.3756,0.0,0.0,0.0,0.0,0.0,0.0,0.0,0.0,0.0,0.0,0.0,0.0,0.0,0.0,0.0,0.0,0.0,0.0,0.0,0.0,0.0,0.0,0.0,0.0,0.0,0.0,0.0,0.0,0.0,0.0,0.0,0.0,0.0,0.0,0.0,0.0,0.0,0.0,0.0,0.0,-3.8416,-3.8526,-3.8827,0.0,0.0,0.0,0.0,0.0,0.0,-3.9319,-3.9292,0.0,0.0,0.0,0.0,0.0,0.0,0.0,0.0,0.0,0.0,0.0,0.0,0.0,0.0,0.0,0.0,0.0,0.0,0.0,0.0,0.0,0.0,0.0,0.0,0.0,0.0,0.0,0.0,0.0,0.0,0.0,0.0,0.0,0.0,0.0,0.0,0.0,0.0,0.0,0.0,0.0,0.0,0.0,0.0,0.0,0.0,0.0,0.0,0.0,0.0,0.0,0.0,0.0,0.0,0.0,-5.4054,-5.4203,-5.4314,-5.4314,-5.4314,-5.4314,-5.4314,-5.4314,-5.4314,0.0,0.0,0.0,0.0,0.0,0.0,0.0,0.0,0.0,0.0,0.0,0.0,0.0,0.0,0.0,0.0,0.0,0.0,0.0,0.0,0.0,0.0,0.0,0.0,0.0,0.0,0.0,0.0,0.0,0.0,0.0,0.0,0.0,0.0,0.0,0.0,0.0,0.0,0.0,0.0,0.0,-3.9756,-4.034,-4.0423,0.0,0.0,0.0,0.0,-4.053,-4.0443,0.0,0.0,0.0,0.0,0.0,0.0,0.0,0.0,0.0,0.0,0.0,0.0,0.0,0.0,0.0,0.0,0.0,0.0,0.0,0.0,0.0,0.0,0.0,0.0,0.0,0.0,0.0,0.0,0.0,0.0,0.0,0.0,0.0,0.0,0.0,0.0,0.0,0.0,0.0,0.0,0.0,0.0,0.0,0.0,0.0,0.0,0.0,0.0,0.0,0.0,0.0,0.0,0.0,0.0,0.0,0.0,-5.4909,-5.5614,-5.6023,-5.6023,-5.5986,-5.6023,-5.6023,-5.6023,-5.6023,0.0,0.0,0.0,0.0,0.0,0.0,0.0,0.0,0.0,0.0,0.0,0.0,0.0,0.0,0.0,0.0,0.0,0.0,0.0,0.0,0.0,0.0,0.0,0.0,0.0,0.0,0.0,0.0,0.0,0.0,0.0,0.0,0.0,0.0,0.0,0.0,0.0,0.0,0.0,0.0,0.0,-4.1341,-4.191,-4.1995,-4.2108,0.0,0.0,-4.2495,-4.2317,-4.2139,0.0,0.0,0.0,0.0,0.0,0.0,0.0,0.0,0.0,0.0,0.0,0.0,0.0,0.0,0.0,0.0,0.0,0.0,0.0,0.0,0.0,0.0,0.0,0.0,0.0,0.0,0.0,0.0,0.0,0.0,0.0,0.0,0.0,0.0,0.0,0.0,0.0,0.0,0.0,0.0,0.0,0.0,0.0,0.0,0.0,0.0,0.0,0.0,0.0,0.0,0.0,0.0,0.0,0.0,0.0,-5.5726,-5.5763,-5.6097,-5.632,-5.632,-5.632,-5.632,-5.632,-5.632,-5.632,0.0,0.0,0.0,0.0,0.0,0.0,0.0,0.0,0.0,0.0,0.0,0.0,0.0,0.0,0.0,0.0,0.0,0.0,0.0,0.0,0.0,0.0,0.0,0.0,0.0,0.0,0.0,0.0,0.0,0.0,0.0,0.0,0.0,0.0,0.0,0.0,0.0,0.0,0.0,0.0,0.0,0.0,-4.3171,-4.3257,0.0,0.0,0.0,-4.3224,-4.3076,0.0,0.0,0.0,0.0,0.0,0.0,0.0,0.0,0.0,0.0,0.0,0.0,0.0,0.0,0.0,0.0,0.0,0.0,0.0,0.0,0.0,0.0,0.0,0.0,0.0,0.0,0.0,0.0,0.0,0.0,0.0,0.0,0.0,0.0,0.0,0.0,0.0,0.0,0.0,0.0,0.0,0.0,0.0,0.0,0.0,0.0,0.0,0.0,0.0,0.0,0.0,0.0,0.0,0.0,0.0,0.0,0.0,-5.6617,-5.6803,-5.6915,-5.6915,-5.6915,-5.6915,-5.6915,-5.6915,0.0,0.0,0.0,0.0,0.0,0.0,0.0,0.0,0.0,0.0,0.0,0.0,0.0,0.0,0.0,0.0,0.0,0.0,0.0,0.0,0.0,0.0,0.0,0.0,0.0,0.0,0.0,-4.3505,0.0,0.0,0.0,0.0,0.0,0.0,0.0,0.0,0.0,0.0,0.0,0.0,0.0,0.0,-4.3456,-4.4268,-4.4442,-4.4414,0.0,0.0,-4.4327,-4.4181,-4.4064,-4.4004,0.0,0.0,0.0,0.0,0.0,0.0,0.0,0.0,0.0,0.0,0.0,0.0,0.0,0.0,0.0,0.0,0.0,0.0,0.0,0.0,0.0,0.0,0.0,0.0,0.0,0.0,0.0,0.0,0.0,0.0,0.0,0.0,0.0,0.0,0.0,0.0,0.0,0.0,0.0,0.0,0.0,0.0,0.0,0.0,0.0,0.0,0.0,0.0,0.0,0.0,0.0,0.0,0.0,0.0,0.0,-5.7435,-5.8178,-5.8512,-5.8549,-5.8549,-5.8549,-5.8549,-5.8549,-5.8549,0.0,0.0,0.0,0.0,0.0,0.0,0.0,0.0,0.0,0.0,0.0,0.0,0.0,0.0,0.0,0.0,0.0,0.0,0.0,0.0,0.0,0.0,0.0,0.0,0.0,0.0,0.0,0.0,0.0,0.0,0.0,0.0,0.0,0.0,0.0,0.0,0.0,0.0,0.0,0.0,0.0,-4.4811,-4.543,-4.5518,-4.5725,0.0,0.0,-4.6373,-4.6373,-4.6167,-4.5989,-4.5989,0.0,0.0,0.0,0.0,0.0,0.0,0.0,0.0,0.0,0.0,0.0,0.0,0.0,0.0,0.0,0.0,0.0,0.0,0.0,0.0,0.0,0.0,0.0,0.0,0.0,0.0,0.0,0.0,0.0,0.0,0.0,0.0,0.0,0.0,0.0,0.0,0.0,0.0,0.0,0.0,0.0,0.0,0.0,0.0,0.0,0.0,0.0,0.0,0.0,0.0,0.0,0.0,0.0,-5.8475,-5.8995,-5.9292,-5.9701,-6.0221,-6.0258,-6.0221,-6.0258,-6.0258,-5.9998,0.0,0.0,0.0,0.0,0.0,0.0,0.0,0.0,0.0,0.0,0.0,0.0,0.0,0.0,0.0,0.0,0.0,0.0,0.0,0.0,0.0,0.0,0.0,0.0,0.0,0.0,0.0,0.0,-4.554,-4.5832,-4.6083,0.0,0.0,0.0,0.0,0.0,0.0,0.0,0.0,0.0,0.0,-4.6256,-4.6971,-4.7061,0.0,0.0,-4.7193,-4.7193,-4.7048,-4.6844,-4.6668,-4.6668,-4.6491,0.0,0.0,0.0,0.0,0.0,0.0,0.0,0.0,0.0,0.0,0.0,0.0,0.0,0.0,0.0,0.0,0.0,0.0,0.0,0.0,0.0,0.0,0.0,0.0,0.0,0.0,0.0,0.0,0.0,0.0,0.0,0.0,0.0,0.0,0.0,0.0,0.0,0.0,0.0,0.0,0.0,0.0,0.0,0.0,0.0,0.0,0.0,0.0,0.0,0.0,0.0,0.0,-5.9743,-6.0295,-6.0295,-6.0593,-6.1187,-6.1187,-6.1187,-6.1187,-6.1187,-6.0927,0.0,0.0,0.0,0.0,0.0,0.0,0.0,0.0,0.0,0.0,0.0,0.0,0.0,0.0,0.0,0.0,0.0,0.0,0.0,0.0,0.0,0.0,0.0,0.0,0.0,0.0,0.0,0.0,-4.676,-4.6931,-4.7123,0.0,0.0,0.0,0.0,0.0,0.0,0.0,0.0,0.0,0.0,-4.728,-4.7904,-4.7964,-4.7964,-4.7709,-4.7709,-4.7709,-4.7568,-4.7366,-4.7193,-4.7279,0.0,0.0,0.0,0.0,0.0,0.0,0.0,0.0,0.0,0.0,0.0,0.0,0.0,0.0,0.0,0.0,0.0,0.0,0.0,0.0,0.0,0.0,0.0,0.0,0.0,0.0,0.0,0.0,0.0,0.0,0.0,0.0,0.0,0.0,0.0,0.0,0.0,0.0,0.0,0.0,0.0,0.0,0.0,0.0,0.0,0.0,0.0,0.0,0.0,0.0,0.0,0.0,0.0,-6.1204,-6.1187,-6.1187,-6.1224,-6.1224,-6.1224,-6.1261,-6.1261,-6.1224,-6.1224,-6.115,0.0,0.0,0.0,0.0,0.0,0.0,0.0,0.0,0.0,0.0,0.0,0.0,0.0,0.0,0.0,0.0,0.0,0.0,0.0,0.0,0.0,0.0,0.0,0.0,0.0,0.0,-4.8487,-4.8147,-4.7725,0.0,0.0,0.0,0.0,0.0,0.0,0.0,0.0,0.0,0.0,-4.7934,-4.8049,-4.8049,-4.8049,-4.8049,-4.8049,-4.7964,-4.7964,-4.7964,-4.7964,-4.7964,0.0,0.0,0.0,0.0,0.0,0.0,0.0,0.0,0.0,0.0,0.0,0.0,0.0,0.0,0.0,0.0,0.0,0.0,0.0,0.0,0.0,0.0,0.0,0.0,0.0,0.0,0.0,-6.109,-6.1544,0.0,0.0,0.0,0.0,0.0,0.0,0.0,0.0,0.0,0.0,0.0,-6.3045,-6.3574,0.0,0.0,0.0,0.0,0.0,0.0,0.0,0.0,0.0,0.0,0.0,0.0,-6.1539,-6.1967,-6.2004,-6.2264,-6.2784,-6.2822,-6.2822,-6.2822,-6.2784,-6.2562,-6.2041,0.0,0.0,0.0,0.0,0.0,0.0,0.0,0.0,0.0,0.0,0.0,0.0,0.0,0.0,0.0,0.0,0.0,0.0,0.0,0.0,0.0,0.0,0.0,0.0,0.0,-4.9079,0.0,0.0,0.0,0.0,0.0,0.0,0.0,0.0,0.0,0.0,0.0,-4.8604,-4.8821,-4.8883,-4.8852,-4.8852,-4.8852,-4.8852,0.0,0.0,0.0,0.0,0.0,0.0,0.0,0.0,0.0,0.0,0.0,0.0,0.0,0.0,-4.7306,-4.6547,-4.6167,-4.5786,-4.5054,0.0,0.0,0.0,0.0,0.0,0.0,0.0,0.0,0.0,0.0,0.0,0.0,0.0,0.0,0.0,0.0,-6.2559,0.0,0.0,0.0,0.0,0.0,0.0,0.0,0.0,-6.4699,-6.4964,-6.4999,-6.553,-6.5722,0.0,-6.5577,-6.4936,0.0,0.0,0.0,0.0,0.0,0.0,0.0,0.0,-6.2848,-6.3275,-6.3527,-6.3936,-6.4456,-6.4493,-6.4493,-6.4493,-6.4196,-6.3639,-6.2859,-6.2041,-6.1589,0.0,0.0,0.0,0.0,0.0,0.0,0.0,0.0,0.0,0.0,0.0,0.0,0.0,0.0,0.0,0.0,0.0,0.0,0.0,0.0,0.0,0.0,0.0,-4.9969,0.0,0.0,0.0,0.0,0.0,0.0,0.0,0.0,0.0,-4.934,-4.9259,-4.9259,-4.9259,-4.9259,-4.9259,-4.9259,0.0,0.0,0.0,0.0,0.0,0.0,0.0,-4.9047,-4.8883,-4.8687,-4.8635,-4.8469,-4.8469,-4.8469,-4.8385,0.0,0.0,-4.7452,-4.7019,-4.6725,-4.628,-4.6197,-4.5872,-4.4967,-4.476,-4.4576,0.0,0.0,0.0,0.0,0.0,0.0,0.0,0.0,-6.2369,-6.2859,0.0,-6.3614,0.0,0.0,0.0,0.0,0.0,0.0,0.0,0.0,-6.7597,-6.7673,-6.7635,-6.7635,-6.7601,-6.7496,-6.7388,-6.7203,-6.6935,-6.531,0.0,0.0,0.0,0.0,0.0,0.0,-6.5179,-6.5046,-6.5654,-6.6091,-6.6054,-6.6091,-6.6091,-6.6054,-6.5274,-6.4493,-6.3676,-6.2896,-6.2443,-6.2234,-6.1365,0.0,0.0,0.0,0.0,0.0,0.0,0.0,0.0,0.0,0.0,0.0,0.0,0.0,0.0,0.0,0.0,0.0,0.0,0.0,0.0,-5.19,0.0,0.0,0.0,0.0,0.0,0.0,0.0,0.0,0.0,0.0,-4.9577,-4.9403,-4.9259,-4.9372,0.0,0.0,0.0,0.0,-4.934,-4.934,-4.9259,-4.9372,-4.9372,-4.9372,-4.9372,-4.9291,0.0,0.0,-4.9259,-4.9259,-4.921,-4.9078,-4.88,-4.8521,-4.8133,-4.7624,-4.7279,-4.7279,-4.6931,-4.658,-4.6314,-4.5958,-4.5718,-6.6764,0.0,0.0,0.0,0.0,-6.5947,-6.595,-6.5877,-6.5877,-6.6029,-6.6256,-6.6329,0.0,0.0,0.0,0.0,0.0,0.0,-6.7639,-6.7673,-6.7673,-6.7673,-6.7673,-6.7673,-6.7639,-6.7496,-6.746,-6.7353,-6.7086,-6.6595,-6.6252,-6.6049,0.0,0.0,0.0,0.0,-6.6,-6.5903,-6.5989,-6.6091,-6.6091,-6.6091,-6.6091,-6.6091,-6.5868,-6.5348,-6.4493,-6.4233,-6.3816,-6.3222,-6.2225,0.0,0.0,0.0,0.0,0.0,0.0,0.0,0.0,0.0,0.0,0.0,0.0,0.0,0.0,0.0,0.0,0.0,0.0,0.0,-5.3937,-5.3717,-5.3419,0.0,0.0,0.0,0.0,0.0,0.0,0.0,0.0,0.0,-5.1498,-5.0452,-4.9773,0.0,0.0,-4.9741,-4.9741,-4.9741,-4.9773,-4.9741,0.0,0.0,0.0,-4.9773,-4.9661,-4.9501,-4.9372,-4.9259,-4.9259,-4.9259,-4.9259,-4.921,-4.9128,-4.9047,-4.8749,-4.8218,-4.7794,-4.7794,-4.7482,-4.7135,-4.6931,-4.6491,-4.6046,-7.0319,-6.968,-6.8316,-6.7639,-6.7604,-6.7566,-6.7569,-6.7498,-6.7498,-6.7498,-6.7498,-6.7569,-6.7604,-6.7604,-6.7981,0.0,0.0,0.0,-6.8731,-6.8765,-6.8765,-6.8765,-6.8765,-6.8731,-6.8662,-6.8593,-6.8519,-6.8375,-6.8067,-6.8067,-6.7947,-6.7701,0.0,0.0,-6.6593,-6.6761,-6.6822,-6.6723,-6.6918,-6.7057,-6.7057,-6.7057,-6.6908,-6.6611,-6.6574,-6.6202,-6.5348,-6.5311,-6.4893,-6.403,-6.3326,-6.2788,0.0,0.0,0.0,0.0,0.0,0.0,0.0,0.0,0.0,0.0,0.0,-5.642,0.0,0.0,0.0,0.0,-5.5826,-5.5542,-5.5007,-5.4682,0.0,0.0,0.0,0.0,0.0,0.0,0.0,-5.2829,-5.2669,-5.2588,-5.2507,-5.1694,-5.0993,-5.0753,-5.0753,-5.0753,-5.0753,0.0,-5.0658,-5.0374,-5.0342,-5.0247,-4.9963,-4.99,-4.9852,-4.9741,-4.9613,-4.9501,-4.9533,-4.9533,-4.9533,-4.9452,-4.9452,-4.9372,-4.9078,-4.8635,-4.8332,-4.8133,-4.7794,-4.7538,-4.7309,-4.6931,-4.6491,-7.3059,-7.2677,-6.9455,-6.8092,-6.8092,-6.8092,-6.8092,-6.8057,-6.8057,-6.8057,-6.8057,-6.8092,-6.8092,-6.813,-6.8925,0.0,-6.9408,-7.0171,-7.0544,-7.061,-7.061,-7.061,-7.0577,-7.051,-7.0445,-7.0413,-7.0229,-7.0043,-6.9806,-6.9803,-6.9641,-6.9391,-6.7926,-6.7058,-6.6818,-6.7397,-6.7635,-6.7542,-6.8145,-6.8506,-6.8506,-6.8543,-6.8171,-6.7428,-6.7391,-6.702,-6.6239,-6.6202,-6.5747,-6.4753,-6.4535,-6.4106,-6.326,0.0,0.0,0.0,0.0,0.0,0.0,0.0,0.0,0.0,0.0,0.0,0.0,0.0,0.0,0.0,-5.6372,0.0,-5.5852,-5.5174,0.0,0.0,0.0,-5.3857,-5.3779,-5.3656,-5.342,-5.3229,0.0,0.0,-5.2909,0.0,-5.2748,-5.2258,-5.208,-5.2017,-5.2017,-5.1954,-5.1764,-5.1132,-5.1037,-5.0785,-5.0184,-4.9995,-4.99,-4.99,-4.99,-4.9931,-4.9852,-4.9852,-4.9852,-4.9693,-4.9582,-4.9501,-4.9159,-4.8996,-4.8883,-4.8469,-4.8218,-4.788,-4.7452,-4.7309,-4.7048,-7.3951,-7.2693,-7.1822,-7.1517,-7.1517,-7.1406,-7.1332,-7.1257,-7.1257,-7.1295,-7.1295,-7.1332,-7.1443,-7.1624,-7.1884,-7.2066,-7.2066,-7.2296,-7.2372,-7.2367,-7.2406,-7.2334,-7.2265,-7.223,-7.2086,-7.194,-7.1826,-7.1632,-7.1426,-7.1379,-7.1288,-7.1081,-7.0616,-6.9746,-6.8503,-6.8518,-6.8493,-6.8399,-6.848,-6.8543,-6.8543,-6.8543,-6.8431,-6.8246,-6.8208,-6.7837,-6.7057,-6.702,-6.6564,-6.5605,-6.5423,-6.5164,-6.4728,-6.438,0.0,0.0,0.0,0.0,0.0,0.0,0.0,0.0,0.0,-5.8094,-5.7763,0.0,-5.8323,0.0,-5.8015,-5.7873,-5.7446,-5.7229,0.0,0.0,-5.5996,-5.5797,-5.5357,-5.5277,-5.5117,-5.4843,-5.468,-5.463,-5.4516,-5.4384,-5.4301,-5.4134,-5.3013,-5.2263,-5.2017,-5.2017,-5.1954,-5.1796,-5.1764,-5.1512,-5.0848,-5.0247,-4.9931,-4.99,-4.9931,-4.99,-4.99,-4.99,-4.9931,-4.9852,-4.9852,-4.9773,-4.9533,-4.9372,-4.9128,-4.8883,-4.8469,-4.8133,-4.788,-4.7568,-4.7222,-7.578,-7.4905,-7.4486,-7.4296,-7.422,-7.3079,-7.2548,-7.2548,-7.2548,-7.2548,-7.2548,-7.2548,-7.2622,-7.277,-7.2841,-7.2841,-7.2841,-7.2841,-7.2841,-7.2841,-7.2841,-7.2841,-7.277,-7.2695,-7.2585,-7.2395,-7.2278,-7.2154,-7.1944,-7.1896,-7.1808,-7.1629,-7.1545,-7.1004,-6.9967,-6.9547,-6.949,-6.9681,-6.9211,-6.8877,-6.8543,-6.8543,-6.8543,-6.8543,-6.8543,-6.832,-6.7874,-6.7789,-6.7321,-6.6359,-6.6223,-6.5837,-6.5124,-6.4911,-6.4457,0.0,0.0,0.0,0.0,0.0,0.0,0.0,0.0,0.0,0.0,0.0,-5.9219,-5.8959,-5.8907,-5.8771,-5.8348,-5.8027,-5.7735,-5.7289,-5.6911,-5.6525,-5.6244,-5.5927,-5.5766,-5.5604,-5.536,-5.5278,-5.5246,-5.5113,-5.5031,-5.4948,-5.4223,-5.3464,-5.3184,-5.3101,-5.2922,-5.2554,-5.2491,-5.2238,-5.1543,-5.1101,-5.0753,-5.0469,-5.0405,-5.0311,-4.9963,-4.99,-4.99,-4.99,-4.99,-4.9852,-4.9582,-4.9421,-4.921,-4.8996,-4.8718,-4.8385,-4.8218,-4.788,-4.7538,-7.7718,-7.7526,-7.6723,-7.6379,-7.623,-7.403,-7.3041,-7.2965,-7.3003,-7.3003,-7.2965,-7.3003,-7.3003,-7.2965,-7.3001,-7.304,-7.304,-7.304,-7.304,-7.3001,-7.304,-7.304,-7.3003,-7.2852,-7.2737,-7.2619,-7.2497,-7.2369,-7.2234,-7.2191,-7.2064,-7.1836,-7.1836,-7.1696,-7.1417,-7.0586,-7.0425,-7.092,-7.0215,-6.9509,-6.884,-6.8729,-6.8654,-6.8654,-6.858,-6.8543,-6.8506,-6.8358,-6.7926,-6.711,-6.6883,-6.6345,-6.5347,-6.5186,-6.4875,0.0,-6.4194,0.0,0.0,0.0,0.0,0.0,0.0,0.0,0.0,-6.0388,-6.0194,-5.9966,-5.9596,-5.9254,-5.915,-5.8621,-5.8225,-5.8186,-5.7557,-5.71,-5.6978,-5.6441,-5.6009,-5.5929,-5.5669,-5.5409,-5.5409,-5.5409,-5.5328,-5.5196,-5.5049,-5.4819,-5.4549,-5.4317,-5.4041,-5.3366,-5.3155,-5.2807,-5.227,-5.2049,-5.1764,-5.1227,-5.1101,-5.0848,-5.0216,-5.0089,-5.0058,-4.9963,-4.99,-4.9852,-4.9693,-4.9421,-4.9291,-4.9078,-4.88,-4.8521,-4.8271,-4.8133,-4.788,-7.7748,-7.7143,-7.691,-7.6872,-7.6759,-7.5707,-7.4922,-7.448,-7.448,-7.448,-7.4482,-7.4561,-7.46,-7.4562,-7.4676,-7.4752,-7.4714,-7.4714,-7.4752,-7.4752,-7.4714,-7.4676,-7.4562,-7.4482,-7.4361,-7.4241,-7.4067,-7.3973,-7.3928,-7.3838,-7.3663,-7.3522,-7.3426,-7.328,-7.3093,0.0,0.0,0.0,-7.0772,-7.0623,-7.0437,-6.9806,-6.9472,-6.9472,-6.884,0.0,-6.8506,-6.8358,-6.8185,-6.7885,-6.7679,0.0,0.0,0.0,0.0,0.0,0.0,0.0,0.0,0.0,0.0,0.0,-6.2627,-6.2358,-6.2033,-6.187,-6.1736,-6.1704,-6.1293,-6.1016,-6.0804,-6.059,-6.0194,-5.9749,-5.9524,-5.9218,-5.8548,-5.786,-5.7291,-5.6727,-5.6157,-5.5604,-5.5442,-5.5409,-5.5409,-5.536,-5.5328,-5.5278,-5.5031,-5.4665,-5.4348,-5.4137,-5.3555,-5.3092,-5.2934,-5.2428,-5.2112,-5.1828,-5.1796,-5.1543,-5.0943,-5.0785,-5.0532,-5.0089,-4.99,-4.9931,-4.9852,-4.9533,-4.9259,-4.9291,-4.8883,-4.8552,-4.8355,-4.8133,-4.788,-7.8972,0.0,-7.7802,-7.7613,0.0,-7.6746,-7.6224,-7.5901,-7.5069,-7.4691,-7.4691,-7.4733,-7.4737,-7.4774,-7.4816,-7.4857,-7.4857,-7.4857,-7.4857,-7.4857,-7.4857,-7.4816,-7.4737,-7.4733,-7.4686,-7.4557,-7.4469,-7.4335,-7.4289,-7.4151,-7.4056,-7.3875,-7.3765,-7.3665,-7.3476,-7.3015,-7.2146,-7.092,-7.1329,-7.1329,-7.092,-7.0549,-7.0289,-7.0289,0.0,0.0,0.0,0.0,0.0,0.0,0.0,0.0,0.0,0.0,0.0,-6.5694,-6.5571,-6.5207,-6.4626,-6.4527,-6.4301,-6.4043,-6.3948,-6.3397,-6.2459,-6.2322,-6.2223,-6.2191,-6.202,-6.1745,-6.1501,-6.1289,-6.093,-6.0489,-6.0265,-5.9886,-5.9231,-5.8727,-5.8177,-5.7773,-5.7233,-5.6711,-5.6189,-5.6042,-5.5798,-5.5474,-5.5409,-5.5328,-5.5246,-5.4915,-5.4665,-5.438,-5.3989,-5.3597,-5.3566,-5.3313,-5.2902,-5.2649,-5.2554,-5.227,-5.1606,-5.148,-5.1259,-5.0627,-5.0437,-5.0342,-4.9836,-4.9501,-4.9259,-4.9128,-4.8883,-4.8604,-4.8438,-4.8271,-4.8049,-8.0235,-7.9604,-7.869,-7.8351,-7.8276,-7.7484,-7.707,-7.6806,0.0,0.0,0.0,-7.4519,-7.4519,-7.4519,-7.4519,-7.4519,-7.4519,-7.4519,-7.4519,-7.4519,-7.4519,-7.4519,-7.4519,-7.4476,-7.4469,-7.438,-7.4335,-7.4243,-7.4151,-7.4056,-7.3912,-7.3765,-7.3665,-7.3527,-7.3372,-7.3372,-7.2704,-7.1441,-7.2035,-7.2072,-7.1366,-7.1218,-7.1143,-7.1143,-7.0995,-7.0536,-6.9716,-6.9577,-6.9163,-6.8341,-6.7982,-6.7761,-6.7555,-6.7244,-6.6981,-6.67,-6.6514,-6.6324,-6.6167,-6.6002,-6.5805,-6.5672,-6.5334,-6.446,-6.2915,-6.281,-6.2743,-6.2643,-6.2575,-6.2439,-6.2057,-6.1845,-6.1559,-6.1195,-6.0823,-6.0444,-6.0091,-5.9531,-5.9098,-5.8822,-5.8363,-5.7771,-5.7134,-5.6741,-5.6366,-5.5733,-5.5507,-5.5409,-5.5328,-5.5196,-5.4864,-5.4497,-5.4179,-5.4071,-5.4103,-5.404,-5.3882,-5.3344,-5.3281,-5.3028,-5.2428,-5.2207,-5.1922,-5.129,-5.1164,-5.0799,-5.0039,-4.9671,-4.9334,-4.9078,-4.88,-4.8604,-4.8604,-4.8438,-4.8301,-8.0368,-8.018,-7.9316,-7.8978,-7.8902,-7.8113,-7.7362,-7.6611,-7.5901,-7.5199,-7.4519,-7.4519,-7.4519,-7.4519,-7.4519,-7.4519,-7.4519,-7.4519,-7.4519,0.0,-7.4519,-7.4519,-7.4519,-7.4432,-7.438,-7.438,-7.4197,-7.4056,-7.4009,-7.3912,-7.3765,-7.3628,-7.3615,-7.3564,-7.3372,-7.3372,-7.3261,-7.3038,-7.3149,-7.3149,-7.3038,-7.2369,-7.1998,-7.1998,-7.1329,-7.0782,-7.0568,-7.0375,-7.018,-6.9798,-6.9462,-6.9136,-6.8839,-6.8569,-6.8319,-6.8127,-6.7897,-6.77,-6.7639,-6.7572,-6.7437,-6.7058,-6.6849,-6.604,-6.4566,-6.439,-6.439,-6.4321,-6.4113,-6.4044,-6.3867,-6.3583,-6.3259,-6.2925,-6.2734,-6.2429,-6.1897,-6.0964,-6.0198,-5.9827,-5.902,-5.8363,-5.7836,-5.7297,-5.6856,-5.6399,-5.5895,-5.5442,-5.5328,-5.5113,-5.4697,-5.4412,-5.4242,-5.4103,-5.4103,-5.4103,-5.404,-5.4008,-5.3913,-5.3692,-5.306,-5.2934,-5.2681,-5.1986,-5.1859,-5.1524,-5.0681,-5.0329,-4.9832,-4.9182,-4.8862,-4.8604,-4.8604,-4.8521,-4.8438,-8.0975,-8.0151,-7.9687,-7.9238,-7.8878,-7.8503,-7.7866,-7.7117,-7.6841,-7.6085,-7.5012,-7.502,-7.4711,-7.438,-7.438,-7.4297,-7.4335,-7.4297,-7.438,-7.4297,-7.4335,-7.438,-7.4297,-7.4243,-7.4197,-7.4197,-7.4009,-7.3912,-7.3912,-7.3765,-7.3665,-7.3615,-7.3564,-7.3461,-7.3372,-7.3372,-7.3372,-7.3372,-7.3372,-7.3372,-7.3372,-7.3038,-7.2815,-7.2852,-7.2392,-7.1828,-7.1279,-7.1065,-7.0662,-6.9998,-6.9559,-6.9225,-6.914,-6.8706,-6.8486,-6.8421,-6.8159,-6.7959,-6.7927,-6.7688,-6.7481,-6.7165,-6.7094,-6.6742,-6.604,-6.5584,-6.5162,-6.4776,-6.4637,-6.4428,-6.4251,-6.4109,-6.382,-6.3302,-6.3227,-6.2923,-6.2459,-6.1953,-6.1367,-6.085,-6.0291,-5.963,-5.8787,-5.8293,-5.7734,-5.721,-5.6446,-5.5895,-5.5507,-5.5031,-5.4813,-5.4613,-5.4359,-5.4103,-5.4103,-5.4103,-5.4103,-5.4103,-5.4103,-5.3976,-5.3692,-5.366,-5.3344,-5.2776,-5.2503,-5.2052,-5.1174,-5.0539,-4.9978,-4.9594,-4.8934,-4.8666,-4.8604,-4.8552,-4.8301,-8.1659,-8.0464,-8.009,-7.9455,-7.8746,-7.8708,-7.8335,-7.7774,-7.7774,-7.7054,-7.5941,-7.5491,-7.4854,-7.4141,-7.4104,-7.4104,-7.4104,-7.4104,-7.4104,-7.4104,-7.4104,-7.4104,-7.4104,-7.4009,-7.3961,-7.3961,-7.3815,-7.3765,-7.3765,-7.3615,-7.3564,-7.3527,-7.3424,-7.3372,-7.3372,-7.3372,-7.3372,-7.3372,-7.3372,-7.3372,-7.3372,-7.3372,-7.3372,-7.3372,-7.3305,-7.2812,-7.2022,-7.171,-7.1228,-7.0412,-6.9927,-6.9586,-6.956,-6.9182,-6.8893,-6.8827,-6.856,-6.8356,-6.8288,-6.7975,-6.7693,-6.755,-6.755,-6.748,-6.7269,-6.6742,-6.6075,-6.5373,-6.5127,-6.4883,-6.453,-6.4285,-6.3965,-6.3452,-6.3302,-6.3076,-6.2615,-6.2459,-6.2223,-6.1628,-6.1301,-6.0738,-5.9942,-5.9343,-5.8632,-5.7696,-5.7061,-5.6478,-5.5748,-5.5288,-5.5005,-5.4761,-5.4391,-5.4103,-5.4103,-5.4103,-5.4103,-5.4103,-5.4103,-5.4071,-5.404,-5.4071,-5.3945,-5.3439,-5.3143,-5.2574,-5.1693,-5.1025,-5.0429,-5.0044,-4.9558,-4.9189,-4.922,-4.9136,-4.8638,-8.2294,-8.1958,-8.0522,-7.9455,-7.8746,-7.8708,-7.8671,-7.8596,-7.8596,-7.811,-7.7116,-7.5682,-7.4636,-7.3938,-7.3901,-7.3901,-7.3864,-7.3864,-7.3864,-7.3864,-7.3864,-7.3864,-7.3864,-7.3815,-7.3815,-7.3815,-7.3715,-7.3615,-7.3615,-7.3476,-7.3461,-7.3424,-7.3372,-7.3372,-7.3372,-7.3372,-7.3372,-7.3372,-7.3372,-7.3372,-7.3372,-7.3372,-7.3372,-7.3372,-7.3252,-7.3108,-7.2834,-7.2556,-7.2233,-7.1865,-7.1428,-7.1115,-7.0793,-7.0668,-7.04,-7.0022,-6.9953,-6.9849,-6.9458,-6.9276,-6.9168,-6.9165,-6.9095,-6.8779,-6.8182,-6.8041,-6.7655,-6.6918,-6.6181,-6.5654,-6.5227,-6.4667,-6.4104,-6.3703,-6.3446,-6.3227,-6.2923,-6.2615,-6.2268,-6.1997,-6.1628,-6.1301,-6.0771,-5.9924,-5.8899,-5.7891,-5.7579,-5.7223,-5.6543,-5.5963,-5.5549,-5.4984,-5.4391,-5.4134,-5.4103,-5.4103,-5.4103,-5.4103,-5.4103,-5.4103,-5.4103,-5.4103,-5.404,-5.3828,-5.3687,-5.3201,-5.2535,-5.1989,-5.145,-5.0784,-5.0451,-5.042,-5.0482,-5.0359,-4.9818,-8.2573,-8.2052,-8.0861,-7.9632,-7.8515,-7.8441,-7.8441,-7.8441,-7.8441,-7.7994,-7.725,-7.6505,-7.5604,-7.4562,-7.4524,-7.4263,-7.3815,-7.3815,-7.3815,-7.3815,-7.3815,-7.3815,-7.3815,-7.3715,-7.3678,-7.3665,-7.3527,-7.3513,-7.3476,-7.3461,-7.3372,-7.3372,-7.3372,-7.3372,-7.3372,-7.3372,-7.3372,-7.3372,-7.3372,-7.3372,-7.3372,-7.3372,-7.3357,-7.3305,-7.3145,-7.2982,-7.2667,-7.238,-7.2048,-7.1682,-7.1368,-7.1146,-7.0919,-7.0615,-7.0376,-7.0202,-6.9991,-6.9777,-6.9487,-6.9449,-6.9376,-6.9376,-6.9376,-6.9235,-6.8954,-6.8884,-6.867,-6.8211,-6.7125,-6.6281,-6.599,-6.5565,-6.5036,-6.4433,-6.418,-6.3858,-6.3261,-6.2923,-6.2615,-6.2268,-6.187,-6.1465,-6.1053,-6.0318,-5.9402,-5.8475,-5.8194,-5.7935,-5.7288,-5.6787,-5.6317,-5.5975,-5.5248,-5.4545,-5.4229,-5.4103,-5.4103,-5.4103,-5.4103,-5.4103,-5.4103,-5.4103,-5.4103,-5.3962,-5.3758,-5.3434,-5.2922,-5.225,-5.1647,-5.1251,-5.0882,-5.0697,-5.0697,-5.0697,-5.0187,-8.2883,-8.2177,-8.1137,-7.9911,-7.8611,-7.8388,-7.8276,-7.8276,-7.8276,-7.7942,-7.7459,-7.7422,-7.675,-7.5604,-7.5133,-7.4573,-7.4051,-7.3827,-7.3715,-7.3678,-7.3715,-7.3678,-7.3628,-7.3578,-7.3564,-7.3527,-7.3424,-7.3372,-7.3372,-7.3372,-7.3372,-7.3372,-7.3372,-7.3372,-7.3372,-7.3372,-7.3372,-7.3372,-7.3372,-7.3372,-7.332,-7.332,-7.3305,-7.3199,-7.2982,-7.276,-7.2496,-7.2048,-7.1744,-7.1494,-7.111,-7.0883,-7.0718,-7.0376,-7.0132,-7.0062,-6.9777,-6.9487,-6.9376,-6.9376,-6.9376,-6.9376,-6.9376,-6.9302,-6.9302,-6.9227,-6.9118,-6.8863,-6.7845,-6.7109,-6.6716,-6.6358,-6.5827,-6.5083,-6.4876,-6.4387,-6.3714,-6.3323,-6.2847,-6.2537,-6.203,-6.1628,-6.1169,-6.0548,-5.9859,-5.921,-5.8907,-5.868,-5.7979,-5.7496,-5.7117,-5.6925,-5.5978,-5.5177,-5.4514,-5.4198,-5.4166,-5.4103,-5.4103,-5.4103,-5.4103,-5.4103,-5.4017,-5.3876,-5.3496,-5.329,-5.302,-5.2383,-5.1959,-5.1898,-5.159,-5.1251,-5.1436,-5.1282,-5.1164,-8.318,-8.2883,-8.1397,-8.0171,-7.9354,-7.8611,-7.8276,-7.8276,-7.8276,-7.8239,-7.8202,-7.8202,-7.7756,-7.6882,-7.5469,-7.4651,-7.4502,-7.387,-7.3573,-7.3573,-7.3573,-7.3461,-7.3424,-7.3372,-7.3461,-7.3536,-7.3461,-7.3372,-7.3372,-7.3372,-7.3372,-7.3372,-7.3372,-7.3372,-7.3372,-7.3372,-7.3372,-7.3372,-7.3372,-7.332,-7.3252,-7.3199,-7.3199,-7.3145,-7.276,-7.2496,-7.238,-7.1866,-7.1531,-7.1531,-7.1087,-7.0754,-7.055,-7.0343,-7.0097,-6.9776,-6.9522,-6.9411,-6.9411,-6.9411,-6.9376,-6.9376,-6.9227,-6.9078,-6.9078,-6.8892,-6.8781,-6.8705,-6.8378,-6.7954,-6.7288,-6.6734,-6.6167,-6.5807,-6.5186,-6.4731,-6.4332,-6.3563,-6.2958,-6.2693,-6.2268,-6.1709,-6.1169,-6.0666,-6.0292,-5.9935,-5.9794,-5.936,-5.8691,-5.8149,-5.7716,-5.7125,-5.6543,-5.5904,-5.5209,-5.464,-5.4261,-5.4198,-5.4261,-5.4103,-5.4017,-5.3931,-5.3876,-5.3702,-5.344,-5.3144,-5.3055,-5.2846,-5.2664,-5.2513,-5.2483,-5.2329,-5.2113,-5.2483,-5.2301,-8.2883,-8.2326,-8.1174,-8.0208,-7.9428,-7.8611,-7.8276,-7.8276,-7.8276,-7.8276,-7.8276,-7.8276,-7.8128,-7.7793,-7.6716,-7.5861,-7.5341,-7.5044,-7.4933,-7.4933,-7.4933,-7.4933,-7.4858,-7.4413,-7.4153,-7.4078,-7.3632,-7.3372,-7.3372,-7.3372,-7.3372,-7.3372,-7.3372,-7.3372,-7.3372,-7.3372,-7.3372,-7.341,-7.332,-7.3252,-7.3145,-7.289,-7.276,-7.2723,-7.261,-7.2321,-7.1866,-7.1656,-7.1621,-7.1699,-7.1502,-7.1442,-7.1695,-7.1479,-7.1223,-7.0965,-7.0433,-7.0113,-7.0043,-6.9582,-6.9227,-6.9227,-6.8967,-6.8892,-6.8781,-6.8781,-6.8628,-6.8551,-6.8474,-6.8223,-6.7895,-6.7506,-6.7161,-6.6635,-6.6324,-6.5704,-6.4793,-6.416,-6.3623,-6.2983,-6.2268,-6.1628,-6.1169,-6.0666,-6.0325,-6.0152,-5.9892,-5.9587,-5.9337,-5.8856,-5.8428,-5.8147,-5.7497,-5.6789,-5.6568,-5.5462,-5.4767,-5.4609,-5.4514,-5.4175,-5.3994,-5.3876,-5.3789,-5.344,-5.3175,-5.2997,-5.2877,-5.2788,-5.2729,-5.2729,-5.2729,-5.2729,-5.2698,-5.2729,-5.2608,-8.2883,-8.2251,-8.1137,-8.0394,-7.9762,-7.8759,-7.8276,-7.8276,-7.8276,-7.8276,-7.8276,-7.8276,-7.8276,-7.8202,-7.7719,-7.7199,-7.6567,-7.6084,-7.5787,-7.5787,-7.5787,-7.5787,-7.5713,-7.523,-7.497,-7.4858,-7.4153,-7.3781,-7.3744,-7.3521,-7.3372,-7.3372,-7.3372,-7.3372,-7.3372,-7.3372,-7.341,-7.3357,-7.3252,-7.3145,-7.2982,-7.2667,-7.2526,-7.2533,-7.2606,-7.2389,-7.1893,-7.1954,-7.2053,-7.215,-7.2013,-7.2015,-7.2259,-7.207,-7.1845,-7.1546,-7.1014,-7.0699,-7.0552,-6.9847,-6.9386,-6.9351,-6.8844,-6.8628,-6.8628,-6.8551,-6.8474,-6.8319,-6.8319,-6.8241,-6.8162,-6.8049,-6.7876,-6.7394,-6.7152,-6.66,-6.56,-6.5103,-6.4316,-6.3358,-6.2358,-6.1662,-6.1252,-6.075,-6.041,-6.0239,-5.9892,-5.9716,-5.9628,-5.9363,-5.8972,-5.894,-5.8196,-5.7702,-5.7358,-5.6536,-5.5715,-5.5493,-5.4869,-5.4435,-5.404,-5.3946,-5.3559,-5.3264,-5.2966,-5.2908,-5.2819,-5.2729,-5.2729,-5.2729,-5.2729,-5.2729,-5.2729,-5.2729,-5.2698,-8.318,-8.292,-8.1397,-8.0728,-8.0394,-7.9019,-7.8351,-7.8313,-7.8276,-7.8276,-7.8276,-7.8276,-7.8276,-7.8276,-7.8165,-7.8202,-7.783,-7.6679,-7.6084,-7.6047,-7.601,-7.601,-7.601,-7.5899,-7.575,-7.5639,-7.497,-7.4598,-7.4561,-7.3967,-7.3632,-7.3484,-7.3521,-7.3484,-7.3372,-7.3372,-7.332,-7.3252,-7.3145,-7.2982,-7.2553,-7.2511,-7.2582,-7.2672,-7.2726,-7.2734,-7.2698,-7.2885,-7.2901,-7.2798,-7.2584,-7.233,-7.2211,-7.198,-7.1721,-7.1637,-7.1385,-7.1272,-7.1011,-7.0306,-6.9923,-6.9819,-6.9038,-6.8535,-6.857,-6.831,-6.8162,-6.8162,-6.8083,-6.8083,-6.8083,-6.8083,-6.8049,-6.8014,-6.7463,-6.7049,-6.6773,-6.6135,-6.5138,-6.3995,-6.2683,-6.1776,-6.158,-6.1002,-6.0496,-6.0325,-5.9979,-5.9716,-5.9628,-5.9274,-5.9062,-5.8882,-5.8514,-5.8022,-5.7895,-5.7674,-5.6979,-5.6347,-5.5563,-5.4939,-5.4549,-5.4335,-5.3726,-5.3365,-5.2939,-5.2849,-5.2729,-5.2729,-5.2729,-5.2729,-5.2729,-5.2729,-5.2729,-5.2729,-5.2729,-8.318,-8.3069,-8.2028,-8.1211,-8.0617,-7.9539,-7.8833,-7.8313,-7.8276,-7.8276,-7.8276,-7.8276,-7.8276,-7.8276,-7.8276,-7.8276,-7.8239,-7.7719,-7.7496,-7.7459,-7.7496,-7.7459,-7.7385,-7.6939,-7.6344,-7.5861,-7.5564,-7.5416,-7.5378,-7.5118,-7.4784,-7.4338,-7.419,-7.3892,-7.3447,-7.3305,-7.3252,-7.3145,-7.2835,-7.2647,-7.2511,-7.2535,-7.2662,-7.2798,-7.3276,-7.3613,-7.3544,-7.3153,-7.3012,-7.3183,-7.3035,-7.3058,-7.3287,-7.3194,-7.3037,-7.2888,-7.2275,-7.1917,-7.1733,-7.0982,-7.0417,-7.0278,-6.9565,-6.9105,-6.8922,-6.8473,-6.8152,-6.8118,-6.8083,-6.8083,-6.8083,-6.8083,-6.8083,-6.8083,-6.7876,-6.7497,-6.7049,-6.6048,-6.5265,-6.4721,-6.3599,-6.2791,-6.2264,-6.1483,-6.068,-6.0443,-6.0011,-5.9749,-5.9628,-5.9274,-5.9004,-5.8972,-5.8642,-5.8274,-5.8116,-5.799,-5.7674,-5.6983,-5.623,-5.5606,-5.5149,-5.4625,-5.4013,-5.3554,-5.3127,-5.2852,-5.279,-5.2729,-5.2729,-5.2729,-5.2729,-5.2729,-5.2729,-5.2729,-5.2729,-8.318,-8.3106,-8.2326,-8.1471,-8.0654,-7.9837,-7.9019,-7.8351,-7.8276,-7.8276,-7.8276,-7.8276,-7.8276,-7.8276,-7.8276,-7.8276,-7.8276,-7.8276,-7.8276,-7.8276,-7.8276,-7.8276,-7.8239,-7.7793,-7.731,-7.6753,-7.6419,-7.627,-7.627,-7.5936,-7.5527,-7.5118,-7.5044,-7.4635,-7.3877,-7.3697,-7.3478,-7.2964,-7.2704,-7.238,-7.2217,-7.219,-7.2416,-7.2701,-7.3259,-7.3761,-7.4005,-7.3576,-7.3503,-7.3593,-7.347,-7.3518,-7.3817,-7.3657,-7.3496,-7.3345,-7.2916,-7.2441,-7.229,-7.1468,-7.1053,-7.0833,-7.0199,-6.9704,-6.9566,-6.898,-6.8566,-6.8532,-6.8256,-6.8083,-6.8083,-6.8083,-6.8083,-6.8083,-6.8083,-6.7876,-6.7281,-6.6426,-6.5778,-6.5449,-6.4504,-6.3728,-6.3082,-6.2297,-6.1291,-6.0902,-6.0369,-5.9822,-5.9669,-5.9241,-5.9094,-5.8824,-5.8518,-5.8367,-5.8274,-5.8243,-5.8243,-5.7677,-5.6927,-5.6336,-5.584,-5.5158,-5.4481,-5.4113,-5.3683,-5.3345,-5.3252,-5.2852,-5.2729,-5.2729,-5.2821,-5.2729,-5.2729,-5.2729,-5.2729,-8.318,-8.3069,-8.2363,-8.1545,-8.0654,-7.9911,-7.9131,-7.8388,-7.8276,-7.8276,-7.8276,-7.8276,-7.8276,-7.8276,-7.8276,-7.8276,-7.8276,-7.8276,-7.8276,-7.8276,-7.8276,-7.8276,-7.8239,-7.8165,-7.809,-7.7979,-7.7422,-7.7162,-7.7125,-7.653,-7.5899,-7.5899,-7.5861,-7.5436,-7.4661,-7.4458,-7.3868,-7.2904,-7.2642,-7.229,-7.1739,-7.1721,-7.2083,-7.2904,-7.3084,-7.347,-7.4087,-7.4152,-7.4146,-7.4174,-7.3826,-7.3587,-7.3612,-7.3415,-7.3252,-7.3088,-7.3005,-7.2853,-7.2548,-7.2064,-7.165,-7.1532,-7.0877,-7.0429,-7.036,-6.9773,-6.9325,-6.9291,-6.8773,-6.8325,-6.829,-6.8256,-6.8221,-6.8083,-6.8083,-6.8049,-6.8014,-6.7271,-6.6724,-6.6314,-6.5481,-6.445,-6.4003,-6.3259,-6.2431,-6.1721,-6.1173,-6.0591,-5.9967,-5.9601,-5.9042,-5.8828,-5.8617,-5.8367,-5.8274,-5.8274,-5.8243,-5.79,-5.7337,-5.6933,-5.6404,-5.5627,-5.4885,-5.4515,-5.4268,-5.396,-5.3714,-5.3437,-5.3221,-5.3314,-5.3191,-5.2883,-5.2944,-5.316,-5.3191,-8.318,-8.318,-8.2957,-8.2028,-8.0765,-8.0431,-7.9539,-7.8388,-7.8276,-7.8276,-7.8276,-7.8276,-7.8276,-7.8276,-7.8276,-7.8276,-7.8276,-7.8276,-7.8276,-7.8276,-7.8276,-7.8276,-7.8276,-7.8276,-7.8276,-7.8239,-7.8016,-7.7979,-7.7979,-7.7645,-7.7273,-7.6753,-7.6606,-7.6143,-7.5421,-7.505,-7.438,-7.3487,-7.3021,-7.2715,-7.2408,-7.2418,-7.2901,-7.3619,-7.3751,-7.3987,-7.4252,-7.3975,-7.3817,-7.3817,-7.3577,-7.3415,-7.3415,-7.317,-7.3088,-7.3005,-7.2838,-7.2755,-7.2636,-7.2464,-7.236,-7.2326,-7.1636,-7.1187,-7.1187,-7.0532,-7.0153,-7.0049,-6.9842,-6.9497,-6.9118,-6.8946,-6.8704,-6.8187,-6.8118,-6.8083,-6.8049,-6.7787,-6.7444,-6.7134,-6.6242,-6.5493,-6.4707,-6.3895,-6.2979,-6.2431,-6.189,-6.1342,-6.0683,-6.0147,-5.9681,-5.9214,-5.8966,-5.8525,-5.8274,-5.8274,-5.8182,-5.7965,-5.7527,-5.7277,-5.6683,-5.6122,-5.5347,-5.4791,-5.473,-5.4483,-5.4453,-5.433,-5.4206,-5.3899,-5.396,-5.3868,-5.4052,-5.4268,-5.4176,-8.318,-8.318,-8.318,-8.2214,-8.0765,-8.0691,-7.9799,-7.8499,-7.8276,-7.8276,-7.8276,-7.8276,-7.8276,-7.8276,-7.8276,-7.8276,-7.8276,-7.8276,-7.8276,-7.8276,-7.8276,-7.8276,-7.8276,-7.8276,-7.8276,-7.8276,-7.8276,-7.8276,-7.8276,-7.8276,-7.8016,-7.7534,-7.7367,-7.6847,-7.5937,-7.569,-7.4992,-7.3995,-7.326,-7.2834,-7.2772,-7.24,-7.2798,-7.3399,-7.3734,-7.3822,-7.3983,-7.3657,-7.3415,-7.3415,-7.3334,-7.317,-7.317,-7.3005,-7.2838,-7.2838,-7.2755,-7.2671,-7.2671,-7.2671,-7.2671,-7.2636,-7.2188,-7.205,-7.1843,-7.1325,-7.0843,-7.0843,-7.0601,-7.0187,-6.9808,-6.9497,-6.9084,-6.8704,-6.8325,-6.8118,-6.8083,-6.7925,-6.7719,-6.7373,-6.6889,-6.6253,-6.5545,-6.4627,-6.3859,-6.3186,-6.2548,-6.1989,-6.1331,-6.0825,-6.0384,-5.9945,-5.9568,-5.9253,-5.8875,-5.8812,-5.8404,-5.806,-5.7651,-5.7335,-5.7053,-5.6488,-5.6149,-5.5561,-5.5315,-5.513,-5.513,-5.5007,-5.4607,-5.4483,-5.4699,-5.4791,-5.4822,-5.5007,-5.4976,-8.318,-8.318,-8.3106,-8.214,-8.0802,-8.058,-7.9651,-7.8499,-7.8276,-7.8276,-7.8276,-7.8276,-7.8276,-7.8276,-7.8276,-7.8276,-7.8276,-7.8276,-7.8276,-7.8276,-7.8276,-7.8276,-7.8276,-7.8276,-7.8276,-7.8276,-7.8276,-7.8276,-7.8276,-7.8276,-7.8221,-7.796,-7.7903,-7.7435,-7.6648,-7.63,-7.5494,-7.4388,-7.3587,-7.3194,-7.2973,-7.2513,-7.2653,-7.3345,-7.3364,-7.3483,-7.3517,-7.3252,-7.3088,-7.3252,-7.3088,-7.3005,-7.2922,-7.2755,-7.2755,-7.2671,-7.2671,-7.2671,-7.2671,-7.2671,-7.2671,-7.2671,-7.2671,-7.2671,-7.2464,-7.1946,-7.1636,-7.1601,-7.1015,-7.0774,-7.0429,-6.9877,-6.9394,-6.9118,-6.8601,-6.829,-6.8118,-6.7959,-6.7719,-6.7475,-6.7312,-6.6812,-6.6268,-6.5625,-6.4982,-6.3875,-6.3264,-6.2672,-6.2102,-6.1562,-6.0994,-6.0487,-6.0202,-5.9981,-5.9696,-5.9412,-5.8845,-5.8341,-5.7676,-5.7294,-5.7232,-5.695,-5.6761,-5.6484,-5.6053,-5.5838,-5.5807,-5.553,-5.5161,-5.5161,-5.5468,-5.5284,-5.5099,-5.5407,-5.553,-8.318,-8.3143,-8.2511,-8.1657,-8.0691,-8.0022,-7.9205,-7.8313,-7.8276,-7.8276,-7.8276,-7.8276,-7.8276,-7.8276,-7.8276,-7.8276,-7.8276,-7.8276,-7.8276,-7.8276,-7.8276,-7.8276,-7.8276,-7.8276,-7.8276,-7.8276,-7.8276,-7.8276,-7.8276,-7.8276,-7.8221,-7.8014,-7.7842,-7.7592,-7.7108,-7.6814,-7.6209,-7.5067,-7.4477,-7.4036,-7.3654,-7.3186,-7.3213,-7.3864,-7.3659,-7.3367,-7.3183,-7.3088,-7.2922,-7.2838,-7.2838,-7.2755,-7.2755,-7.2755,-7.2671,-7.2671,-7.2671,-7.2671,-7.2671,-7.2671,-7.2671,-7.2671,-7.2671,-7.2671,-7.2671,-7.2533,-7.2395,-7.2395,-7.2257,-7.1808,-7.1291,-7.0567,-7.0015,-6.9532,-6.9187,-6.8773,-6.829,-6.7959,-6.7719,-6.7475,-6.7146,-6.6728,-6.6182,-6.557,-6.4934,-6.444,-6.3947,-6.3479,-6.2874,-6.2172,-6.1759,-6.1247,-6.0897,-6.0645,-6.0297,-5.9886,-5.9316,-5.8777,-5.8076,-5.7562,-5.75,-5.7254,-5.7161,-5.6946,-5.6669,-5.6515,-5.63,-5.6392,-5.6053,-5.6176,-5.6207,-5.6053,-5.5961,-5.6084,-5.6053,-8.318,-8.3106,-8.2326,-8.1471,-8.0654,-7.9837,-7.9056,-7.8388,-7.8276,-7.8276,-7.8276,-7.8276,-7.8276,-7.8276,-7.8276,-7.8276,-7.8276,-7.8276,-7.8276,-7.8276,-7.8276,-7.8276,-7.8276,-7.8276,-7.8276,-7.8276,-7.8276,-7.8276,-7.8276,-7.8221,-7.8071,-7.79,-7.7666,-7.7426,-7.7181,-7.6866,-7.6323,-7.5489,-7.4788,-7.4369,-7.4183,-7.3602,-7.3476,-7.3799,-7.3577,-7.3252,-7.3005,-7.2922,-7.2838,-7.2755,-7.2671,-7.2671,-7.2671,-7.2671,-7.2671,-7.2671,-7.2671,-7.2671,-7.2671,-7.2671,-7.2671,-7.2671,-7.2671,-7.2671,-7.2671,-7.2671,-7.2671,-7.2671,-7.2602,-7.2429,-7.205,-7.136,-7.0705,-7.0394,-6.998,-6.9463,-6.8808,-6.812,-6.7638,-6.7394,-6.698,-6.6558,-6.6009,-6.5514,-6.5033,-6.4571,-6.4142,-6.3641,-6.326,-6.2652,-6.2427,-6.2009,-6.1593,-6.1277,-6.0801,-6.0357,-5.9753,-5.9176,-5.8758,-5.8369,-5.8208,-5.79,-5.7562,-5.7254,-5.6884,-5.6761,-5.6607,-5.6761,-5.6761,-5.6607,-5.6546,-5.67,-5.67,-5.6484,-5.6453,-8.2994,-8.292,-8.1991,-8.1174,-8.0468,-7.9614,-7.8908,-7.8351,-7.8276,-7.8276,-7.8276,-7.8276,-7.8276,-7.8276,-7.8276,-7.8276,-7.8276,-7.8276,-7.8276,-7.8276,-7.8276,-7.8276,-7.8276,-7.8276,-7.8276,-7.8276,-7.8276,-7.8276,-7.8221,-7.8071,-7.79,-7.7725,-7.7487,-7.7181,-7.6866,-7.6541,-7.6104,-7.5616,-7.4833,-7.4365,-7.4345,-7.3729,-7.3561,-7.3437,-7.3252,-7.3005,-7.2922,-7.2838,-7.2671,-7.2671,-7.2671,-7.2671,-7.2671,-7.2671,-7.2671,-7.2671,-7.2671,-7.2671,-7.2671,-7.2671,-7.2671,-7.2671,-7.2671,-7.2671,-7.2671,-7.2671,-7.2671,-7.2671,-7.2671,-7.2671,-7.2602,-7.2084,-7.1636,-7.1325,-7.0843,-7.0256,-6.9451,-6.837,-6.783,-6.7428,-6.6896,-6.6302,-6.5922,-6.5481,-6.5033,-6.4702,-6.4272,-6.3802,-6.3421,-6.3099,-6.281,-6.2485,-6.2035,-6.1909,-6.1463,-6.098,-6.034,-5.9955,-5.9501,-5.9147,-5.8885,-5.8485,-5.8023,-5.7377,-5.7038,-5.7008,-5.6854,-5.6761,-5.6761,-5.6761,-5.6761,-5.6761,-5.6761,-5.6761,-5.6823,-8.2177,-8.2066,-8.0542,-7.9799,-7.9576,-7.8833,-7.8462,-7.8313,-7.8276,-7.8276,-7.8276,-7.8276,-7.8276,-7.8276,-7.8276,-7.8276,-7.8276,-7.8276,-7.8276,-7.8276,-7.8276,-7.8276,-7.8276,-7.8276,-7.8276,-7.8276,-7.8276,-7.8221,-7.8071,-7.8014,-7.7747,-7.7487,-7.7304,-7.7056,-7.6607,-7.6275,-7.5971,-7.5478,-7.4975,-7.4642,-7.4299,-7.3913,-7.3492,-7.3252,-7.3005,-7.2922,-7.2755,-7.2755,-7.2671,-7.2671,-7.2671,-7.2671,-7.2671,-7.2671,-7.2671,-7.2671,-7.2671,-7.2671,-7.2671,-7.2671,-7.2671,-7.2671,-7.2671,-7.2671,-7.2671,-7.2671,-7.2671,-7.2671,-7.2671,-7.2671,-7.2671,-7.2464,-7.2153,-7.1705,-7.1394,-7.1015,-7.0175,-6.931,-6.8295,-6.7837,-6.7049,-6.6182,-6.5834,-6.5481,-6.4943,-6.461,-6.4272,-6.3802,-6.3325,-6.3131,-6.2905,-6.271,-6.2383,-6.2319,-6.2225,-6.1734,-6.1145,-6.0827,-6.0338,-5.9756,-5.9439,-5.9008,-5.8516,-5.8085,-5.7654,-5.75,-5.7285,-5.7008,-5.6884,-5.7008,-5.6915,-5.6823,-5.6977,-5.7131,-5.71,-8.1731,-8.1174,-7.9985,-7.9502,-7.9354,-7.8648,-7.8276,-7.8276,-7.8276,-7.8276,-7.8276,-7.8276,-7.8276,-7.8276,-7.8276,-7.8276,-7.8276,-7.8276,-7.8276,-7.8276,-7.8276,-7.8276,-7.8276,-7.8221,-7.8127,-7.8165,-7.8108,-7.8051,-7.8014,-7.7879,-7.7607,-7.7365,-7.7181,-7.6801,-7.6342,-7.6003,-7.5691,-7.5189,-7.4894,-7.4593,-7.4132,-7.3737,-7.3252,-7.3088,-7.2922,-7.2755,-7.2755,-7.2671,-7.2671,-7.2671,-7.2671,-7.2671,-7.2671,-7.2671,-7.2671,-7.2671,-7.2671,-7.2671,-7.2671,-7.2671,-7.2671,-7.2671,-7.2671,-7.2671,-7.2671,-7.2671,-7.2671,-7.2671,-7.2671,-7.2671,-7.2671,-7.2671,-7.2464,-7.2222,-7.2084,-7.1705,-7.1036,-7.0222,-6.9438,-6.8486,-6.7235,-6.6417,-6.5922,-6.5481,-6.4852,-6.4518,-6.4272,-6.3802,-6.3325,-6.3131,-6.3034,-6.2643,-6.2446,-6.2446,-6.2315,-6.1885,-6.1582,-6.1387,-6.0958,-6.0404,-6.0147,-5.9778,-5.9439,-5.907,-5.867,-5.827,-5.7931,-5.7777,-5.75,-5.7285,-5.7346,-5.7408,-5.7438,-5.7469,-5.7531,-8.1063,-8.0394,-7.9576,-7.9242,-7.9131,-7.8573,-7.8276,-7.8276,-7.8276,-7.8276,-7.8276,-7.8276,-7.8276,-7.8276,-7.8276,-7.8276,-7.8276,-7.8276,-7.8276,-7.8221,-7.8221,-7.8221,-7.8165,-7.8071,-7.7957,-7.7957,-7.7842,-7.782,-7.7842,-7.7703,-7.7463,-7.7118,-7.6866,-7.6541,-7.6176,-7.5691,-7.5334,-7.4968,-7.4593,-7.4209,-7.3817,-7.3334,-7.3005,-7.2922,-7.2755,-7.2671,-7.2671,-7.2671,-7.2671,-7.2671,-7.2671,-7.2671,-7.2671,-7.2671,-7.2671,-7.2671,-7.2671,-7.2671,-7.2671,-7.2671,-7.2671,-7.2671,-7.2671,-7.2671,-7.2671,-7.2671,-7.2671,-7.2671,-7.2671,-7.2671,-7.2671,-7.2671,-7.2671,-7.2636,-7.2567,-7.2429,-7.1744,-7.101,-7.0294,-6.9101,-6.7603,-6.6732,-6.6456,-6.5724,-6.5187,-6.4458,-6.4179,-6.3802,-6.3325,-6.3228,-6.3034,-6.2643,-6.2446,-6.2446,-6.2216,-6.1916,-6.1683,-6.1551,-6.1113,-6.0578,-6.0609,-6.0578,-6.024,-5.9809,-5.9686,-5.9285,-5.8916,-5.8454,-5.8177,-5.7962,-5.7962,-5.7993,-5.8054,-5.8146,-5.8139,-7.9725,-7.9539,-7.8759,-7.8425,-7.8425,-7.8351,-7.8276,-7.8276,-7.8276,-7.8276,-7.8276,-7.8276,-7.8276,-7.8276,-7.8276,-7.8276,-7.8276,-7.8221,-7.8165,-7.8071,-7.8014,-7.7957,-7.79,-7.7842,-7.7783,-7.7783,-7.7643,-7.7643,-7.7584,-7.7426,-7.7181,-7.6866,-7.6541,-7.6176,-7.5832,-7.5406,-7.5042,-7.4704,-7.4441,-7.3975,-7.3496,-7.317,-7.2922,-7.2755,-7.2755,-7.2671,-7.2671,-7.2671,-7.2671,-7.2671,-7.2671,-7.2671,-7.2671,-7.2671,-7.2671,-7.2671,-7.2671,-7.2671,-7.2671,-7.2671,-7.2671,-7.2671,-7.2671,-7.2671,-7.2671,-7.2671,-7.2671,-7.2671,-7.2671,-7.2671,-7.2671,-7.2671,-7.2671,-7.2671,-7.2671,-7.2552,-7.2141,-7.1593,-7.0908,-7.0202,-6.8796,-6.777,-6.7045,-6.6146,-6.5363,-6.4752,-6.4085,-6.3804,-6.3453,-6.3484,-6.3034,-6.2545,-6.2446,-6.2446,-6.2216,-6.1916,-6.1714,-6.1582,-6.1175,-6.0794,-6.0794,-6.0794,-6.0794,-6.0455,-6.0332,-6.0024,-5.9439,-5.9008,-5.8762,-5.867,-5.867,-5.867,-5.867,-5.8824,-5.8938,-7.8796,-7.8796,-7.8462,-7.8276,-7.8276,-7.8276,-7.8276,-7.8276,-7.8276,-7.8276,-7.8276,-7.8276,-7.8221,-7.8127,-7.8051,-7.7994,-7.8051,-7.8051,-7.7957,-7.79,-7.79,-7.7842,-7.7783,-7.7703,-7.7703,-7.7643,-7.7463,-7.7279,-7.7279,-7.7217,-7.6993,-7.6541,-7.6342,-7.6003,-7.555,-7.5189,-7.4819,-7.4441,-7.3975,-7.3577,-7.317,-7.2922,-7.2755,-7.2671,-7.2671,-7.2671,-7.2671,-7.2671,-7.2671,-7.2671,-7.2671,-7.2671,-7.2671,-7.2671,-7.2671,-7.2671,-7.2671,-7.2671,-7.2671,-7.2671,-7.2671,-7.2671,-7.2671,-7.2671,-7.2671,-7.2671,-7.2671,-7.2671,-7.2671,-7.2671,-7.2671,-7.2671,-7.2671,-7.2671,-7.2671,-7.2501,-7.2296,-7.1901,-7.1333,-7.0724,-6.9984,-6.8827,-6.7829,-6.701,-6.6279,-6.5603,-6.506,-6.4739,-6.4252,-6.3829,-6.3249,-6.2446,-6.2446,-6.2446,-6.2216,-6.1916,-6.1714,-6.1512,-6.1103,-6.0794,-6.0794,-6.0794,-6.0794,-6.0794,-6.064,-6.027,-5.9839,-5.9624,-5.9378,-5.9347,-5.9347,-5.9347,-5.9378,-5.9604,-5.9582,-7.8276,-7.8221,-7.8276,-7.8276,-7.8276,-7.8221,-7.8221,-7.8221,-7.8165,-7.8165,-7.8165,-7.8165,-7.8071,-7.7957,-7.7842,-7.7842,-7.7783,-7.7783,-7.7762,-7.7762,-7.7762,-7.7703,-7.7643,-7.7524,-7.7463,-7.75,-7.7279,-7.7092,-7.6966,-7.6902,-7.6708,-7.6311,-7.6039,-7.5762,-7.5262,-7.4894,-7.4517,-7.4132,-7.3657,-7.3252,-7.3005,-7.2838,-7.2755,-7.2671,-7.2671,-7.2671,-7.2671,-7.2671,-7.2671,-7.2671,-7.2671,-7.2671,-7.2671,-7.2671,-7.2671,-7.2671,-7.2671,-7.2671,-7.2671,-7.2671,-7.2671,-7.2671,-7.2671,-7.2671,-7.2671,-7.2671,-7.2671,-7.2671,-7.2671,-7.2671,-7.2671,-7.2671,-7.2671,-7.2671,-7.2671,-7.2501,-7.2296,-7.1969,-7.1552,-7.0794,-7.0113,-6.9616,-6.871,-6.7969,-6.7227,-6.6452,-6.5999,-6.567,-6.5016,-6.4297,-6.3779,-6.3173,-6.3173,-6.3009,-6.2525,-6.2229,-6.1933,-6.1472,-6.1165,-6.0897,-6.0794,-6.0794,-6.0794,-6.0794,-6.0794,-6.064,-6.0301,-6.0147,-6.0024,-6.0024,-6.0055,-6.0055,-6.0075,-6.0267,-6.0106,-7.8221,-7.8014,-7.8221,-7.8276,-7.8276,-7.8071,-7.8014,-7.8014,-7.79,-7.7842,-7.7842,-7.7842,-7.7879,-7.7783,-7.7725,-7.7725,-7.7783,-7.7783,-7.7703,-7.7643,-7.7584,-7.7524,-7.7463,-7.7341,-7.7279,-7.7192,-7.7176,-7.702,-7.6716,-7.6693,-7.6451,-7.6208,-7.5727,-7.537,-7.4968,-7.4593,-7.4209,-7.3817,-7.3415,-7.317,-7.3005,-7.2838,-7.2671,-7.2671,-7.2671,-7.2671,-7.2671,-7.2671,-7.2671,-7.2671,-7.2671,-7.2671,-7.2671,-7.2671,-7.2671,-7.2671,-7.2671,-7.2671,-7.2671,-7.2671,-7.2671,-7.2671,-7.2671,-7.2671,-7.2671,-7.2671,-7.2671,-7.2671,-7.2671,-7.2671,-7.2671,-7.2671,-7.2671,-7.2671,-7.2671,-7.2416,-7.2245,-7.2072,-7.1566,-7.0757,-7.0263,-6.9789,-6.928,-6.8468,-6.7753,-6.6972,-6.6284,-6.5948,-6.5326,-6.4736,-6.4539,-6.4216,-6.4216,-6.3924,-6.3115,-6.2754,-6.2424,-6.1805,-6.1309,-6.1051,-6.0824,-6.0794,-6.0794,-6.0794,-6.0794,-6.0794,-6.0763,-6.0547,-6.0455,-6.064,-6.0671,-6.0517,-6.0175,-6.018,-5.9955,-7.7937,-7.79,-7.7994,-7.7994,-7.7994,-7.79,-7.7842,-7.7842,-7.7783,-7.7783,-7.7783,-7.7703,-7.7643,-7.7643,-7.7524,-7.7487,-7.7487,-7.7487,-7.7463,-7.7463,-7.7402,-7.7402,-7.7279,-7.7217,-7.7155,-7.7176,-7.734,-7.7437,-7.7207,-7.6794,-7.6515,-7.6159,-7.5619,-7.5078,-7.4744,-7.4287,-7.3817,-7.3496,-7.3252,-7.3005,-7.2838,-7.2755,-7.2671,-7.2671,-7.2671,-7.2671,-7.2671,-7.2671,-7.2671,-7.2671,-7.2671,-7.2671,-7.2671,-7.2671,-7.2671,-7.2671,-7.2671,-7.2671,-7.2671,-7.2671,-7.2671,-7.2671,-7.2671,-7.2671,-7.2671,-7.2671,-7.2671,-7.2671,-7.2671,-7.2671,-7.2671,-7.2671,-7.2671,-7.2671,-7.2586,-7.2416,-7.2245,-7.2072,-7.1512,-7.0791,-7.0423,-6.9982,-6.9541,-6.8928,-6.8143,-6.7454,-6.6823,-6.6256,-6.5663,-6.5235,-6.5069,-6.4942,-6.4808,-6.4484,-6.3806,-6.3308,-6.2945,-6.2229,-6.1514,-6.1329,-6.1101,-6.0824,-6.0824,-6.0794,-6.0794,-6.0794,-6.0794,-6.0794,-6.0794,-6.0794,-6.069,-6.0555,-6.0377,-5.9986,-5.9636,-7.7762,-7.7762,-7.7762,-7.7762,-7.7783,-7.7762,-7.7762,-7.7762,-7.7703,-7.7607,-7.7607,-7.7524,-7.7524,-7.7463,-7.7402,-7.7304,-7.7304,-7.7341,-7.7341,-7.7341,-7.7341,-7.7341,-7.7353,-7.7411,-7.7568,-7.7514,-7.7801,-7.8005,-7.78,-7.7343,-7.7056,-7.6583,-7.5929,-7.5418,-7.4517,-7.3975,-7.3531,-7.3252,-7.3088,-7.2922,-7.2755,-7.2671,-7.2671,-7.2671,-7.2671,-7.2671,-7.2671,-7.2671,-7.2671,-7.2671,-7.2671,-7.2671,-7.2671,-7.2671,-7.2671,-7.2671,-7.2671,-7.2671,-7.2671,-7.2671,-7.2671,-7.2671,-7.2671,-7.2671,-7.2671,-7.2671,-7.2671,-7.2671,-7.2671,-7.2671,-7.2671,-7.2671,-7.2671,-7.2671,-7.2671,-7.2501,-7.2245,-7.1985,-7.1334,-7.0699,-7.0423,-7.0049,-6.9285,-6.8699,-6.8104,-6.7406,-6.7036,-6.6528,-6.6194,-6.5827,-6.5764,-6.5502,-6.5344,-6.4852,-6.433,-6.3922,-6.345,-6.2743,-6.213,-6.1717,-6.1471,-6.1225,-6.0917,-6.0794,-6.0794,-6.0794,-6.0794,-6.0794,-6.0794,-6.0794,-6.069,-6.0481,-6.0197,-5.988,-5.9529,-7.7703,-7.762,-7.7584,-7.7643,-7.7762,-7.7643,-7.7584,-7.7584,-7.7463,-7.7402,-7.7365,-7.7341,-7.7341,-7.7304,-7.7304,-7.7304,-7.7341,-7.7341,-7.7341,-7.7341,-7.7341,-7.7341,-7.7511,-7.7814,-7.7989,-7.8122,-7.8436,-7.8596,-7.8385,-7.788,-7.7584,-7.721,-7.654,-7.5697,-7.4463,-7.3931,-7.3531,-7.3122,-7.3144,-7.2977,-7.2893,-7.2843,-7.2843,-7.2671,-7.2671,-7.2671,-7.2671,-7.2671,-7.2671,-7.2671,-7.2671,-7.2671,-7.2671,-7.2671,-7.2671,-7.2671,-7.2671,-7.2671,-7.2671,-7.2671,-7.2671,-7.2671,-7.2671,-7.2671,-7.2671,-7.2671,-7.2671,-7.2671,-7.2671,-7.2671,-7.2671,-7.2671,-7.2671,-7.2671,-7.2671,-7.2501,-7.2245,-7.1985,-7.1457,-7.0699,-7.0363,-6.9893,-6.8994,-6.8201,-6.7695,-6.7253,-6.7078,-6.6837,-6.6533,-6.6365,-6.6207,-6.6038,-6.5744,-6.5302,-6.4839,-6.4488,-6.4057,-6.321,-6.2671,-6.2394,-6.2086,-6.1871,-6.1502,-6.1009,-6.0948,-6.1071,-6.0948,-6.0794,-6.0794,-6.069,-6.0481,-6.0272,-5.9986,-5.9667,-5.9422,-7.7426,-7.7402,-7.7402,-7.7463,-7.7463,-7.7402,-7.7402,-7.7365,-7.7304,-7.7341,-7.7341,-7.7341,-7.7341,-7.7341,-7.7341,-7.7341,-7.7341,-7.7341,-7.7341,-7.7341,-7.7341,-7.762,-7.7887,-7.8062,-7.8333,-7.8649,-7.9064,-7.9215,-7.8999,-7.8445,-7.8141,-7.7795,-7.6886,-7.593,-7.5323,-7.4764,-7.4274,-7.4322,-7.4029,-7.3514,-7.3395,-7.3395,-7.3188,-7.2774,-7.274,-7.274,-7.2671,-7.2671,-7.2671,-7.2671,-7.2671,-7.2671,-7.2671,-7.2671,-7.2671,-7.2671,-7.2671,-7.2671,-7.2671,-7.2671,-7.2671,-7.2671,-7.2671,-7.2671,-7.2671,-7.2671,-7.2671,-7.2671,-7.2671,-7.2671,-7.2671,-7.2671,-7.2671,-7.2671,-7.2671,-7.2416,-7.2159,-7.1985,-7.1634,-7.0825,-7.027,-6.9478,-6.86,-6.8,-6.7491,-6.7109,-6.6901,-6.6796,-6.6523,-6.6523,-6.6354,-6.628,-6.6004,-6.562,-6.5343,-6.4909,-6.4476,-6.3796,-6.3379,-6.3164,-6.2856,-6.2548,-6.2117,-6.1656,-6.1502,-6.1379,-6.1255,-6.1101,-6.0782,-6.0586,-6.0333,-6.0092,-5.9743,-5.956,-5.9207,-7.7341,-7.7341,-7.7341,-7.7341,-7.7341,-7.7341,-7.7341,-7.7341,-7.7341,-7.7341,-7.7341,-7.7341,-7.7341,-7.7341,-7.7341,-7.7341,-7.7341,-7.7341,-7.7341,-7.7341,-7.7279,-7.7631,-7.8016,-7.837,-7.8826,-7.9275,-7.9612,-7.9791,-7.9494,-7.9079,-7.8611,-7.8105,-7.7228,-7.6908,-7.6287,-7.5631,-7.4787,-7.486,-7.4412,-7.4188,-7.4188,-7.4085,-7.3809,-7.3326,-7.3084,-7.2981,-7.2774,-7.2671,-7.2671,-7.2671,-7.2671,-7.2671,-7.2671,-7.2671,-7.2671,-7.2671,-7.2671,-7.2671,-7.2671,-7.2671,-7.2671,-7.2671,-7.2671,-7.2671,-7.2671,-7.2671,-7.2671,-7.2671,-7.2671,-7.2671,-7.2671,-7.2671,-7.2671,-7.2671,-7.2586,-7.2416,-7.2159,-7.1985,-7.1546,-7.0791,-6.9955,-6.9188,-6.8301,-6.7797,-6.7285,-6.7005,-6.6723,-6.6617,-6.6617,-6.6512,-6.6406,-6.6192,-6.5978,-6.5561,-6.5313,-6.5094,-6.4738,-6.4241,-6.4026,-6.3841,-6.3502,-6.3133,-6.2733,-6.2364,-6.2179,-6.1963,-6.1686,-6.1366,-6.1033,-6.0608,-6.0107,-5.9864,-5.956,-5.9315,-5.9099,-7.7268,-7.7268,-7.7341,-7.7304,-7.7268,-7.7268,-7.7341,-7.7341,-7.7341,-7.7341,-7.7341,-7.7341,-7.7341,-7.7341,-7.7341,-7.7341,-7.7243,-7.7243,-7.7279,-7.7217,-7.7155,-7.7678,-7.8216,-7.8711,-7.9235,-7.9826,-8.008,-7.9996,-7.9828,-7.9258,-7.8892,-7.8552,-7.8007,-7.7682,-7.7093,-7.6314,-7.5587,-7.5448,-7.5154,-7.5016,-7.4981,-7.4947,-7.4533,-7.4085,-7.3809,-7.3464,-7.3153,-7.2877,-7.2774,-7.274,-7.2671,-7.2671,-7.2671,-7.2671,-7.2671,-7.2671,-7.2671,-7.2671,-7.2671,-7.2671,-7.2671,-7.2671,-7.2671,-7.2671,-7.2671,-7.2671,-7.2671,-7.2671,-7.2671,-7.2671,-7.2671,-7.2671,-7.2671,-7.2671,-7.2671,-7.2416,-7.2072,-7.1722,-7.1244,-7.0608,-6.9765,-6.8896,-6.7899,-6.7317,-6.7213,-6.6796,-6.6617,-6.6512,-6.6406,-6.6299,-6.6192,-6.5978,-6.5762,-6.5406,-6.5187,-6.5108,-6.4936,-6.4518,-6.4611,-6.4426,-6.4087,-6.3779,-6.3441,-6.3133,-6.2887,-6.261,-6.2165,-6.1706,-6.1371,-6.0943,-6.0469,-5.9908,-5.9633,-5.9345,-5.9099,-7.646,-7.6497,-7.7084,-7.6974,-7.657,-7.7084,-7.7341,-7.7341,-7.7341,-7.7341,-7.7341,-7.7341,-7.7341,-7.7341,-7.7341,-7.7341,-7.7243,-7.7181,-7.7155,-7.7092,-7.6966,-7.775,-7.8383,-7.8872,-7.9571,-8.0081,-8.0364,-8.013,-7.9822,-7.9311,-7.8741,-7.8441,-7.8186,-7.7928,-7.7493,-7.6952,-7.6622,-7.6292,-7.5947,-7.5809,-7.5775,-7.5775,-7.5292,-7.4843,-7.4602,-7.4188,-7.3671,-7.3429,-7.3222,-7.2809,-7.2705,-7.2671,-7.2671,-7.2671,-7.2671,-7.2671,-7.2671,-7.2671,-7.2671,-7.2671,-7.2671,-7.2671,-7.2671,-7.2671,-7.2671,-7.2671,-7.2671,-7.2671,-7.2671,-7.2671,-7.2671,-7.2671,-7.2671,-7.2671,-7.2586,-7.2331,-7.1985,-7.1546,-7.1064,-7.0203,-6.9478,-6.86,-6.7625,-6.7213,-6.7005,-6.6723,-6.6512,-6.6406,-6.6192,-6.6085,-6.5978,-6.5762,-6.5546,-6.5218,-6.5108,-6.4998,-6.4888,-6.4857,-6.4888,-6.4857,-6.4641,-6.4334,-6.4149,-6.3841,-6.3472,-6.3025,-6.2472,-6.2103,-6.1903,-6.1546,-6.1146,-6.0295,-5.9705,-5.9567,-5.9398,-7.5652,-7.5726,-7.6497,-7.6717,-7.668,-7.7121,-7.7341,-7.7341,-7.7341,-7.7341,-7.7341,-7.7341,-7.7341,-7.7341,-7.7341,-7.7279,-7.7181,-7.7155,-7.7092,-7.6966,-7.6773,-7.7698,-7.8332,-7.8741,-7.9396,-7.9969,-8.0207,-7.9899,-7.9586,-7.9069,-7.8574,-7.8357,-7.798,-7.7841,-7.7544,-7.7298,-7.7154,-7.6982,-7.6809,-7.6602,-7.6533,-7.6499,-7.6051,-7.5568,-7.5395,-7.4947,-7.4292,-7.4085,-7.3567,-7.3084,-7.2946,-7.2671,-7.2671,-7.2671,-7.2671,-7.2671,-7.2671,-7.2671,-7.2671,-7.2671,-7.2671,-7.2671,-7.2671,-7.2671,-7.2671,-7.2671,-7.2671,-7.2671,-7.2671,-7.2671,-7.2671,-7.2671,-7.2671,-7.2671,-7.2501,-7.2245,-7.1898,-7.1457,-7.0699,-6.9921,-6.9058,-6.8301,-6.7593,-6.7181,-6.6796,-6.6512,-6.6299,-6.6085,-6.587,-6.5762,-6.5623,-6.5515,-6.5328,-6.5108,-6.4998,-6.4888,-6.4888,-6.4888,-6.4888,-6.4888,-6.4888,-6.4826,-6.4549,-6.4272,-6.4026,-6.3531,-6.3159,-6.2805,-6.2494,-6.2103,-6.1619,-6.0967,-6.0466,-6.0266,-6.0176,-7.4845,-7.4882,-7.5652,-7.646,-7.7157,-7.7268,-7.7341,-7.7341,-7.7341,-7.7341,-7.7341,-7.7341,-7.7341,-7.7341,-7.7279,-7.7217,-7.7092,-7.7029,-7.6902,-7.6737,-7.6578,-7.7212,-7.8017,-7.8493,-7.8962,-7.9634,-7.9977,-7.9665,-7.9231,-7.8823,-7.8441,-7.8272,-7.8015,-7.7754,-7.749,-7.7313,-7.7223,-7.7189,-7.7154,-7.7051,-7.712,-7.7085,-7.6913,-7.6326,-7.6085,-7.5809,-7.5085,-7.4464,-7.3912,-7.3602,-7.3257,-7.2877,-7.2705,-7.2671,-7.2671,-7.2671,-7.2671,-7.2671,-7.2671,-7.2671,-7.2671,-7.2671,-7.2671,-7.2671,-7.2671,-7.2671,-7.2671,-7.2671,-7.2671,-7.2671,-7.2671,-7.2671,-7.2671,-7.2586,-7.2416,-7.2159,-7.1898,-7.1278,-7.033,-6.9574,-6.8699,-6.8,-6.7491,-6.7109,-6.6691,-6.6406,-6.6085,-6.587,-6.5654,-6.5406,-6.5297,-6.5187,-6.5108,-6.4998,-6.4998,-6.4888,-6.4888,-6.4888,-6.4888,-6.4888,-6.4888,-6.4888,-6.4888,-6.4641,-6.4285,-6.4359,-6.4045,-6.3518,-6.291,-6.2544,-6.2108,-6.1575,-6.1253,-6.1194,-6.0864,-7.4001,-7.4074,-7.4845,-7.5652,-7.6423,-7.7084,-7.7304,-7.7341,-7.7341,-7.7341,-7.7341,-7.7341,-7.7341,-7.7279,-7.7217,-7.7155,-7.7029,-7.6838,-7.6745,-7.6512,-7.6311,-7.6718,-7.7519,-7.7919,-7.8416,-7.8941,-7.9316,-7.9391,-7.8987,-7.8574,-7.8272,-7.8015,-7.7841,-7.7579,-7.7313,-7.7223,-7.7223,-7.7223,-7.7223,-7.7223,-7.7223,-7.7223,-7.7085,-7.6947,-7.6844,-7.6499,-7.5947,-7.5637,-7.474,-7.4016,-7.3705,-7.3222,-7.274,-7.2705,-7.2671,-7.2671,-7.2671,-7.2671,-7.2671,-7.2671,-7.2671,-7.2671,-7.2671,-7.2671,-7.2671,-7.2671,-7.2671,-7.2671,-7.2671,-7.2671,-7.2671,-7.2671,-7.2671,-7.2501,-7.2331,-7.2159,-7.1985,-7.0973,-6.9988,-6.9188,-6.8401,-6.7797,-6.7388,-6.7005,-6.6617,-6.6299,-6.5947,-6.5731,-6.5437,-6.5218,-6.5108,-6.5108,-6.4998,-6.4888,-6.4888,-6.4888,-6.4888,-6.4888,-6.4888,-6.4888,-6.4888,-6.4888,-6.4888,-6.4777,-6.4604,-6.4524,-6.4188,-6.3759,-6.3237,-6.2859,-6.2655,-6.2181,-6.2271,-6.2301,-6.1792,-7.3156,-7.3266,-7.4037,-7.5028,-7.6056,-7.6607,-7.6974,-7.7268,-7.7341,-7.7341,-7.7341,-7.7341,-7.7279,-7.7217,-7.7155,-7.6966,-7.6838,-7.6578,-7.6445,-7.6244,-7.618,-7.6442,-7.6913,-7.7448,-7.8048,-7.8568,-7.8966,-7.9069,-7.8741,-7.849,-7.8186,-7.7928,-7.7667,-7.7525,-7.7223,-7.7223,-7.7223,-7.7223,-7.7223,-7.7223,-7.7223,-7.7223,-7.7223,-7.7223,-7.7154,-7.6913,-7.6706,-7.6361,-7.5637,-7.4705,-7.4223,-7.3395,-7.2877,-7.2671,-7.2671,-7.2671,-7.2671,-7.2671,-7.2671,-7.2671,-7.2671,-7.2671,-7.2671,-7.2671,-7.2671,-7.2671,-7.2671,-7.2671,-7.2671,-7.2671,-7.2671,-7.2671,-7.2586,-7.2416,-7.2159,-7.1898,-7.1244,-7.033,-6.9574,-6.8896,-6.8201,-6.7625,-6.7109,-6.6691,-6.6299,-6.5947,-6.57,-6.5515,-6.5187,-6.5108,-6.4998,-6.4888,-6.4888,-6.4888,-6.4888,-6.4888,-6.4888,-6.4888,-6.4888,-6.4888,-6.4888,-6.4888,-6.4888,-6.4777,-6.4666,-6.43,-6.4075,-6.3652,-6.3424,-6.3014,-6.3044,-6.2959,-6.3079,-6.3079,-6.26,-7.2532,-7.2606,-7.3377,-7.4478,-7.5726,-7.6056,-7.6497,-7.7084,-7.7268,-7.7341,-7.7304,-7.7279,-7.7217,-7.7155,-7.7029,-7.6838,-7.6578,-7.6378,-7.614,-7.6039,-7.5762,-7.598,-7.6408,-7.708,-7.7779,-7.8363,-7.8751,-7.8753,-7.8574,-7.8272,-7.8101,-7.7841,-7.7667,-7.7402,-7.7223,-7.7223,-7.7223,-7.7223,-7.7223,-7.7223,-7.7223,-7.7223,-7.7223,-7.7223,-7.7223,-7.7223,-7.7016,-7.674,-7.6292,-7.5464,-7.4568,-7.3567,-7.2946,-7.2671,-7.2671,-7.2671,-7.2671,-7.2671,-7.2671,-7.2671,-7.2671,-7.2671,-7.2671,-7.2671,-7.2671,-7.2671,-7.2671,-7.2671,-7.2671,-7.2671,-7.2671,-7.2671,-7.2501,-7.2331,-7.1985,-7.1546,-7.0699,-6.986,-6.9285,-6.86,-6.8,-6.742,-6.6901,-6.6512,-6.6161,-6.57,-6.5483,-6.5187,-6.4998,-6.4998,-6.4888,-6.4888,-6.4888,-6.4888,-6.4888,-6.4888,-6.4888,-6.4888,-6.4888,-6.4888,-6.4888,-6.4888,-6.4888,-6.4777,-6.4554,-6.4188,-6.3963,-6.3538,-6.3309,-6.3194,-6.3079,-6.3079,-6.3079,-6.3079,-6.3079,-7.2532,-7.2569,-7.3377,-7.3891,-7.4368,-7.5506,-7.6203,-7.6423,-7.7047,-7.7341,-7.7243,-7.7217,-7.7092,-7.7092,-7.6929,-7.6708,-7.6512,-7.6208,-7.6072,-7.5934,-7.555,-7.5477,-7.5793,-7.6671,-7.7673,-7.8282,-7.86,-7.8539,-7.8322,-7.8066,-7.7928,-7.7667,-7.7402,-7.7313,-7.7223,-7.7223,-7.7223,-7.7223,-7.7223,-7.7223,-7.7223,-7.7223,-7.7223,-7.7223,-7.7223,-7.7223,-7.7154,-7.712,-7.6671,-7.5844,-7.474,-7.3671,-7.3015,-7.274,-7.2671,-7.2671,-7.2671,-7.2671,-7.2671,-7.2671,-7.2671,-7.2671,-7.2671,-7.2671,-7.2671,-7.2671,-7.2671,-7.2671,-7.2671,-7.2671,-7.2671,-7.2671,-7.2586,-7.2159,-7.181,-7.1188,-7.0363,-6.9765,-6.9091,-6.8501,-6.7797,-6.7317,-6.6901,-6.6512,-6.6054,-6.5731,-6.5375,-6.5187,-6.4998,-6.4888,-6.4888,-6.4888,-6.4888,-6.4888,-6.4888,-6.4888,-6.4888,-6.4888,-6.4888,-6.4888,-6.4888,-6.4888,-6.4777,-6.4666,-6.4331,-6.3963,-6.3766,-6.3424,-6.3309,-6.3079,-6.3079,-6.3079,-6.3079,-6.3079,-6.3079]}]]